[[[{"header":{"parameterUnit":"kt","parameterCategory":2,"dx":1,"dy":1,"la1":29.587661999999998,"la2":31.0,"lo1":-88.76705300000003,"lo2":-86.6583820000003,"nx":115,"ny":88,"refTime":"2022-10-27T18:00:00:Z","depth":0,"parameterNumber":1,"parameterNumberName":"U-component_of_WINDS"},"data":[2.0839,2.0839,2.0839,2.0839,2.0839,2.0839,2.0839,2.0839,2.0839,2.0839,2.0839,2.0839,2.0839,2.0839,2.0839,2.0846,2.0627,2.0173,1.1748,-0.0,-0.0,-0.0,-0.0,-0.0,-0.0,-0.0,-0.0,-0.0,-0.0,-0.0,-0.0,-0.0,-0.0,-0.0,-0.0,-0.0,-0.0,-0.0,-0.0,-0.0,-0.0,-0.0,-0.0,-0.0,-0.0,-0.0,-0.0,-0.0,-0.0,-0.0,-0.0,-0.0,-0.0,-0.0,-0.0,-0.0,-0.0,-0.0,-0.0,-0.0,-0.0,-0.0,-0.0,-0.0,-0.0,-0.0,-0.0,-0.0,-0.0,-0.0,-0.0,-0.0,-0.0,-0.0,-0.0,-0.0,-0.0,-0.0,-0.0,-0.0,-0.0,-0.0,-0.0,-0.0,-0.0,-0.0,-0.0,-0.0,-0.0,-0.0,-0.0,-0.0,-0.0,-0.0,-0.0,-0.0,-0.0,-0.0,-0.0,-0.0,-0.0,-0.0,-0.0,-0.0,-0.0,-0.0,-0.0,-0.0,-0.0,-0.0,-0.0,-0.0,-0.0,-0.0,-0.0,2.0839,2.0839,2.0839,2.0839,2.0839,2.0839,2.0839,2.0839,2.0839,2.0839,2.0839,2.0839,2.0839,2.0839,2.0839,2.0846,2.0879,2.0705,1.1997,-0.0,-0.0,-0.0,-0.0,-0.0,-0.0,-0.0,-0.0,-0.0,-0.0,-0.0,-0.0,-0.0,-0.0,-0.0,-0.0,-0.0,-0.0,-0.0,-0.0,-0.0,-0.0,-0.0,-0.0,-0.0,-0.0,-0.0,-0.0,-0.0,-0.0,-0.0,-0.0,-0.0,-0.0,-0.0,-0.0,-0.0,-0.0,-0.0,-0.0,-0.0,-0.0,-0.0,-0.0,-0.0,-0.0,-0.0,-0.0,-0.0,-0.0,-0.0,-0.0,-0.0,-0.0,-0.0,-0.0,-0.0,-0.0,-0.0,-0.0,-0.0,-0.0,-0.0,-0.0,-0.0,-0.0,-0.0,-0.0,-0.0,-0.0,-0.0,-0.0,-0.0,-0.0,-0.0,-0.0,-0.0,-0.0,-0.0,-0.0,-0.0,-0.0,-0.0,-0.0,-0.0,-0.0,-0.0,-0.0,-0.0,-0.0,-0.0,-0.0,-0.0,-0.0,-0.0,-0.0,2.0839,2.0839,2.0839,2.0839,2.0839,2.0839,2.0839,2.0839,2.0839,2.0839,2.0839,2.0839,2.0839,2.0839,2.0839,2.0839,2.0859,2.0692,1.1993,-0.0,-0.0,-0.0,-0.0,-0.0,-0.0,-0.0,-0.0,-0.0,-0.0,-0.0,-0.0,-0.0,-0.0,-0.0,-0.0,-0.0,-0.0,-0.0,-0.0,-0.0,-0.0,-0.0,-0.0,-0.0,-0.0,-0.0,-0.0,-0.0,-0.0,-0.0,-0.0,-0.0,-0.0,-0.0,-0.0,-0.0,-0.0,-0.0,-0.0,-0.0,-0.0,-0.0,-0.0,-0.0,-0.0,-0.0,-0.0,-0.0,-0.0,-0.0,-0.0,-0.0,-0.0,-0.0,-0.0,-0.0,-0.0,-0.0,-0.0,-0.0,-0.0,-0.0,-0.0,-0.0,-0.0,-0.0,-0.0,-0.0,-0.0,-0.0,-0.0,-0.0,-0.0,-0.0,-0.0,-0.0,-0.0,-0.0,-0.0,-0.0,-0.0,-0.0,-0.0,-0.0,-0.0,-0.0,-0.0,-0.0,-0.0,-0.0,-0.0,-0.0,-0.0,-0.0,-0.0,2.0839,2.0839,2.0839,2.0839,2.0839,2.0839,2.0839,2.0839,2.0839,2.0839,2.0839,2.0839,2.0839,2.0839,2.0839,2.0839,2.0859,2.0148,1.1993,-0.0,-0.0,-0.0,-0.0,-0.0,-0.0,-0.0,-0.0,-0.0,-0.0,-0.0,-0.0,-0.0,-0.0,-0.0,-0.0,-0.0,-0.0,-0.0,-0.0,-0.0,-0.0,-0.0,-0.0,-0.0,-0.0,-0.0,-0.0,-0.0,-0.0,-0.0,-0.0,-0.0,-0.0,-0.0,-0.0,-0.0,-0.0,-0.0,-0.0,-0.0,-0.0,-0.0,-0.0,-0.0,-0.0,-0.0,-0.0,-0.0,-0.0,-0.0,-0.0,-0.0,-0.0,-0.0,-0.0,-0.0,-0.0,-0.0,-0.0,-0.0,-0.0,-0.0,-0.0,-0.0,-0.0,-0.0,-0.0,-0.0,-0.0,-0.0,-0.0,-0.0,-0.0,-0.0,-0.0,-0.0,-0.0,-0.0,-0.0,-0.0,-0.0,-0.0,-0.0,-0.0,-0.0,-0.0,-0.0,-0.0,-0.0,-0.0,-0.0,-0.0,-0.0,-0.0,-0.0,2.0839,2.0839,2.0839,2.0839,2.0839,2.0839,2.0839,2.0839,2.0839,2.0839,2.0839,2.0839,2.0839,2.0839,2.0839,2.0839,2.0866,2.0407,-0.0,-0.0,-0.0,-0.0,-0.0,-0.0,-0.0,-0.0,-0.0,-0.0,-0.0,-0.0,-0.0,-0.0,-0.0,-0.0,-0.0,-0.0,-0.0,-0.0,-0.0,-0.0,-0.0,-0.0,-0.0,-0.0,-0.0,-0.0,-0.0,-0.0,-0.0,-0.0,-0.0,-0.0,-0.0,-0.0,-0.0,-0.0,-0.0,-0.0,-0.0,-0.0,-0.0,-0.0,-0.0,-0.0,-0.0,-0.0,-0.0,-0.0,-0.0,-0.0,-0.0,-0.0,-0.0,-0.0,-0.0,-0.0,-0.0,-0.0,-0.0,-0.0,-0.0,-0.0,-0.0,-0.0,-0.0,-0.0,-0.0,-0.0,-0.0,-0.0,-0.0,-0.0,-0.0,-0.0,-0.0,-0.0,-0.0,-0.0,-0.0,-0.0,-0.0,-0.0,-0.0,-0.0,-0.0,-0.0,-0.0,-0.0,-0.0,-0.0,-0.0,-0.0,-0.0,-0.0,-0.0,2.0839,2.0839,2.0839,2.0839,2.0839,2.0839,2.0839,2.0839,2.0839,2.0839,2.0839,2.0839,2.0839,2.0839,2.0839,2.0839,2.0846,2.0123,-0.0,-0.0,-0.0,-0.0,-0.0,-0.0,-0.0,-0.0,-0.0,-0.0,-0.0,-0.0,-0.0,-0.0,-0.0,-0.0,-0.0,-0.0,-0.0,-0.0,-0.0,-0.0,-0.0,-0.0,-0.0,-0.0,-0.0,-0.0,-0.0,-0.0,-0.0,-0.0,-0.0,-0.0,-0.0,-0.0,-0.0,-0.0,-0.0,-0.0,-0.0,-0.0,-0.0,-0.0,-0.0,-0.0,-0.0,-0.0,-0.0,-0.0,-0.0,-0.0,-0.0,-0.0,-0.0,-0.0,-0.0,-0.0,-0.0,-0.0,-0.0,-0.0,-0.0,-0.0,-0.0,-0.0,-0.0,-0.0,-0.0,-0.0,-0.0,-0.0,-0.0,-0.0,-0.0,-0.0,-0.0,-0.0,-0.0,-0.0,-0.0,-0.0,-0.0,-0.0,-0.0,-0.0,-0.0,-0.0,-0.0,-0.0,-0.0,-0.0,-0.0,-0.0,-0.0,-0.0,-0.0,2.0839,2.0839,2.0839,2.0839,2.0839,2.0839,2.0839,2.0839,2.0839,2.0839,2.0839,2.0839,2.0839,2.0839,2.0839,2.0839,2.0853,1.9297,1.3011,-0.0,-0.0,-0.0,-0.0,-0.0,-0.0,-0.0,-0.0,-0.0,-0.0,-0.0,-0.0,-0.0,-0.0,-0.0,-0.0,-0.0,-0.0,-0.0,-0.0,-0.0,-0.0,-0.0,-0.0,-0.0,-0.0,-0.0,-0.0,-0.0,-0.0,-0.0,-0.0,-0.0,-0.0,-0.0,-0.0,-0.0,-0.0,-0.0,-0.0,-0.0,-0.0,-0.0,-0.0,-0.0,-0.0,-0.0,-0.0,-0.0,-0.0,-0.0,-0.0,-0.0,-0.0,-0.0,-0.0,-0.0,-0.0,-0.0,-0.0,-0.0,-0.0,-0.0,-0.0,-0.0,-0.0,-0.0,-0.0,-0.0,-0.0,-0.0,-0.0,-0.0,-0.0,-0.0,-0.0,-0.0,-0.0,-0.0,-0.0,-0.0,-0.0,-0.0,-0.0,-0.0,-0.0,-0.0,-0.0,-0.0,-0.0,-0.0,-0.0,-0.0,-0.0,-0.0,-0.0,2.0839,2.0839,2.0839,2.0839,2.0839,2.0839,2.0839,2.0839,2.0839,2.0839,2.0839,2.0839,2.0839,2.0839,2.0839,2.0839,2.0846,2.0879,1.9074,1.5684,0.4951,-0.0,-0.0,-0.0,-0.0,-0.0,-0.0,-0.0,-0.0,-0.0,-0.0,-0.0,-0.0,-0.0,-0.0,-0.0,-0.0,-0.0,-0.0,-0.0,-0.0,-0.0,-0.0,-0.0,-0.0,-0.0,-0.0,-0.0,-0.0,-0.0,-0.0,-0.0,-0.0,-0.0,-0.0,-0.0,-0.0,-0.0,-0.0,-0.0,-0.0,-0.0,-0.0,-0.0,-0.0,-0.0,-0.0,-0.0,-0.0,-0.0,-0.0,-0.0,-0.0,-0.0,-0.0,-0.0,-0.0,-0.0,-0.0,-0.0,-0.0,-0.0,-0.0,-0.0,-0.0,-0.0,-0.0,-0.0,-0.0,-0.0,-0.0,-0.0,-0.0,-0.0,-0.0,-0.0,-0.0,-0.0,-0.0,-0.0,-0.0,-0.0,-0.0,-0.0,-0.0,-0.0,-0.0,-0.0,-0.0,-0.0,-0.0,-0.0,-0.0,-0.0,-0.0,2.0839,2.0839,2.0839,2.0839,2.0839,2.0839,2.0839,2.0839,2.0839,2.0839,2.0839,2.0839,2.0839,2.0839,2.0839,2.0839,2.0839,2.0859,2.0905,1.8869,0.6511,-0.0,-0.0,-0.0,-0.0,-0.0,-0.0,-0.0,-0.0,-0.0,-0.0,-0.0,-0.0,-0.0,-0.0,-0.0,-0.0,-0.0,-0.0,-0.0,-0.0,-0.0,-0.0,-0.0,-0.0,-0.0,-0.0,-0.0,-0.0,-0.0,-0.0,-0.0,-0.0,-0.0,-0.0,-0.0,-0.0,-0.0,-0.0,-0.0,-0.0,-0.0,-0.0,-0.0,-0.0,-0.0,-0.0,-0.0,-0.0,-0.0,-0.0,-0.0,-0.0,-0.0,-0.0,-0.0,-0.0,-0.0,-0.0,-0.0,-0.0,-0.0,-0.0,-0.0,-0.0,-0.0,-0.0,-0.0,-0.0,-0.0,-0.0,-0.0,-0.0,-0.0,-0.0,-0.0,-0.0,-0.0,-0.0,-0.0,-0.0,-0.0,-0.0,-0.0,-0.0,-0.0,-0.0,-0.0,-0.0,-0.0,-0.0,-0.0,-0.0,-0.0,-0.0,2.0839,2.0839,2.0839,2.0839,2.0839,2.0839,2.0839,2.0839,2.0839,2.0839,2.0839,2.0839,2.0839,2.0839,2.0839,2.0839,2.0839,2.0839,2.0899,1.8869,0.6507,-0.0,-0.0,-0.0,-0.0,-0.0,-0.0,-0.0,-0.0,-0.0,-0.0,-0.0,-0.0,-0.0,-0.0,-0.0,-0.0,-0.0,-0.0,-0.0,-0.0,-0.0,-0.0,-0.0,-0.0,-0.0,-0.0,-0.0,-0.0,-0.0,-0.0,-0.0,-0.0,-0.0,-0.0,-0.0,-0.0,-0.0,-0.0,-0.0,-0.0,-0.0,-0.0,-0.0,-0.0,-0.0,-0.0,-0.0,-0.0,-0.0,-0.0,-0.0,-0.0,-0.0,-0.0,-0.0,-0.0,-0.0,-0.0,-0.0,-0.0,-0.0,-0.0,-0.0,-0.0,-0.0,-0.0,-0.0,-0.0,-0.0,-0.0,-0.0,-0.0,-0.0,-0.0,-0.0,-0.0,-0.0,-0.0,-0.0,-0.0,-0.0,-0.0,-0.0,-0.0,-0.0,-0.0,-0.0,-0.0,-0.0,-0.0,-0.0,-0.0,-0.0,-0.0,2.0839,2.0839,2.0839,2.0839,2.0839,2.0839,2.0839,2.0839,2.0839,2.0839,2.0839,2.0839,2.0839,2.0839,2.0839,2.0839,2.0839,2.0839,2.0899,1.7524,-0.0,-0.0,-0.0,-0.0,-0.0,-0.0,-0.0,-0.0,-0.0,-0.0,-0.0,-0.0,-0.0,-0.0,-0.0,-0.0,-0.0,-0.0,-0.0,-0.0,-0.0,-0.0,-0.0,-0.0,-0.0,-0.0,-0.0,-0.0,-0.0,-0.0,-0.0,-0.0,-0.0,-0.0,-0.0,-0.0,-0.0,-0.0,-0.0,-0.0,-0.0,-0.0,-0.0,-0.0,-0.0,-0.0,-0.0,-0.0,-0.0,-0.0,-0.0,-0.0,-0.0,-0.0,-0.0,-0.0,-0.0,-0.0,-0.0,-0.0,-0.0,-0.0,-0.0,-0.0,-0.0,-0.0,-0.0,-0.0,-0.0,-0.0,-0.0,-0.0,-0.0,-0.0,-0.0,-0.0,-0.0,-0.0,-0.0,-0.0,-0.0,-0.0,-0.0,-0.0,-0.0,-0.0,-0.0,-0.0,-0.0,-0.0,-0.0,-0.0,-0.0,-0.0,-0.0,2.0839,2.0839,2.0839,2.0839,2.0839,2.0839,2.0839,2.0839,2.0839,2.0839,2.0839,2.0839,2.0839,2.0839,2.0839,2.0839,2.0839,2.0846,2.0912,1.5659,-0.0,-0.0,-0.0,-0.0,-0.0,-0.0,-0.0,-0.0,-0.0,-0.0,-0.0,-0.0,-0.0,-0.0,-0.0,-0.0,-0.0,-0.0,-0.0,-0.0,-0.0,-0.0,-0.0,-0.0,-0.0,-0.0,-0.0,-0.0,-0.0,-0.0,-0.0,-0.0,-0.0,-0.0,-0.0,-0.0,-0.0,-0.0,-0.0,-0.0,-0.0,-0.0,-0.0,-0.0,-0.0,-0.0,-0.0,-0.0,-0.0,-0.0,-0.0,-0.0,-0.0,-0.0,-0.0,-0.0,-0.0,-0.0,-0.0,-0.0,-0.0,-0.0,-0.0,-0.0,-0.0,-0.0,-0.0,-0.0,-0.0,-0.0,-0.0,-0.0,-0.0,-0.0,-0.0,-0.0,-0.0,-0.0,-0.0,-0.0,-0.0,-0.0,-0.0,-0.0,-0.0,-0.0,-0.0,-0.0,-0.0,-0.0,-0.0,-0.0,-0.0,-0.0,-0.0,2.0839,2.0839,2.0839,2.0839,2.0839,2.0839,2.0839,2.0839,2.0839,2.0839,2.0839,2.0839,2.0839,2.0839,2.0839,2.0839,2.0839,2.0839,2.0912,1.6194,-0.0,-0.0,-0.0,-0.0,-0.0,-0.0,-0.0,-0.0,-0.0,-0.0,-0.0,-0.0,-0.0,-0.0,-0.0,-0.0,-0.0,-0.0,-0.0,-0.0,-0.0,-0.0,-0.0,-0.0,-0.0,-0.0,-0.0,-0.0,-0.0,-0.0,-0.0,-0.0,-0.0,-0.0,-0.0,-0.0,-0.0,-0.0,-0.0,-0.0,-0.0,-0.0,-0.0,-0.0,-0.0,-0.0,-0.0,-0.0,-0.0,-0.0,-0.0,-0.0,-0.0,-0.0,-0.0,-0.0,-0.0,-0.0,-0.0,-0.0,-0.0,-0.0,-0.0,-0.0,-0.0,-0.0,-0.0,-0.0,-0.0,-0.0,-0.0,-0.0,-0.0,-0.0,-0.0,-0.0,-0.0,-0.0,-0.0,-0.0,-0.0,-0.0,-0.0,-0.0,-0.0,-0.0,-0.0,-0.0,-0.0,-0.0,-0.0,-0.0,-0.0,-0.0,-0.0,2.0839,2.0839,2.0839,2.0839,2.0839,2.0839,2.0839,2.0839,2.0839,2.0839,2.0839,2.0839,2.0839,2.0839,2.0839,2.0839,2.0839,2.0839,2.0912,1.6194,-0.0,-0.0,-0.0,-0.0,-0.0,-0.0,-0.0,-0.0,-0.0,-0.0,-0.0,-0.0,-0.0,-0.0,-0.0,-0.0,-0.0,-0.0,-0.0,-0.0,-0.0,-0.0,-0.0,-0.0,-0.0,-0.0,-0.0,-0.0,-0.0,-0.0,-0.0,-0.0,-0.0,-0.0,-0.0,-0.0,-0.0,-0.0,-0.0,-0.0,-0.0,-0.0,-0.0,-0.0,-0.0,-0.0,-0.0,-0.0,-0.0,-0.0,-0.0,-0.0,-0.0,-0.0,-0.0,-0.0,-0.0,-0.0,-0.0,-0.0,-0.0,-0.0,-0.0,-0.0,-0.0,-0.0,-0.0,-0.0,-0.0,-0.0,-0.0,-0.0,-0.0,-0.0,-0.0,-0.0,-0.0,-0.0,-0.0,-0.0,-0.0,-0.0,-0.0,-0.0,-0.0,-0.0,-0.0,-0.0,-0.0,-0.0,-0.0,-0.0,-0.0,-0.0,-0.0,2.0839,2.0839,2.0839,2.0839,2.0839,2.0839,2.0839,2.0839,2.0839,2.0839,2.0839,2.0839,2.0839,2.0839,2.0839,2.0839,2.0839,2.0839,2.0905,1.6194,-0.0,-0.0,-0.0,-0.0,-0.0,-0.0,-0.0,-0.0,-0.0,-0.0,-0.0,-0.0,-0.0,-0.0,-0.0,-0.0,-0.0,-0.0,-0.0,-0.0,-0.0,-0.0,-0.0,-0.0,-0.0,-0.0,-0.0,-0.0,-0.0,-0.0,-0.0,-0.0,-0.0,-0.0,-0.0,-0.0,-0.0,-0.0,-0.0,-0.0,-0.0,-0.0,-0.0,-0.0,-0.0,-0.0,-0.0,-0.0,-0.0,-0.0,-0.0,-0.0,-0.0,-0.0,-0.0,-0.0,-0.0,-0.0,-0.0,-0.0,-0.0,-0.0,-0.0,-0.0,-0.0,-0.0,-0.0,-0.0,-0.0,-0.0,-0.0,-0.0,-0.0,-0.0,-0.0,-0.0,-0.0,-0.0,-0.0,-0.0,-0.0,-0.0,-0.0,-0.0,-0.0,-0.0,-0.0,-0.0,-0.0,-0.0,-0.0,-0.0,-0.0,-0.0,-0.0,2.0839,2.0839,2.0839,2.0839,2.0839,2.0839,2.0839,2.0839,2.0839,2.0839,2.0839,2.0839,2.0839,2.0839,2.0839,2.0839,2.0839,2.0839,2.0899,1.7795,-0.0,-0.0,-0.0,-0.0,-0.0,-0.0,-0.0,-0.0,-0.0,-0.0,-0.0,-0.0,-0.0,-0.0,-0.0,-0.0,-0.0,-0.0,-0.0,-0.0,-0.0,-0.0,-0.0,-0.0,-0.0,-0.0,-0.0,-0.0,-0.0,-0.0,-0.0,-0.0,-0.0,-0.0,-0.0,-0.0,-0.0,-0.0,-0.0,-0.0,-0.0,-0.0,-0.0,-0.0,-0.0,-0.0,-0.0,-0.0,-0.0,-0.0,-0.0,-0.0,-0.0,-0.0,-0.0,-0.0,-0.0,-0.0,-0.0,-0.0,-0.0,-0.0,-0.0,-0.0,-0.0,-0.0,-0.0,-0.0,-0.0,-0.0,-0.0,-0.0,-0.0,-0.0,-0.0,-0.0,-0.0,-0.0,-0.0,-0.0,-0.0,-0.0,-0.0,-0.0,-0.0,-0.0,-0.0,-0.0,-0.0,-0.0,-0.0,-0.0,-0.0,-0.0,-0.0,2.0839,2.0839,2.0839,2.0839,2.0839,2.0839,2.0839,2.0839,2.0839,2.0839,2.0839,2.0839,2.0839,2.0839,2.0839,2.0839,2.0839,2.0839,2.0886,1.8574,-0.0,-0.0,-0.0,-0.0,-0.0,-0.0,-0.0,-0.0,-0.0,-0.0,-0.0,-0.0,-0.0,-0.0,-0.0,-0.0,-0.0,-0.0,-0.0,-0.0,-0.0,-0.0,-0.0,-0.0,-0.0,-0.0,-0.0,-0.0,-0.0,-0.0,-0.0,-0.0,-0.0,-0.0,-0.0,-0.0,-0.0,-0.0,-0.0,-0.0,-0.0,-0.0,-0.0,-0.0,-0.0,-0.0,-0.0,-0.0,-0.0,-0.0,-0.0,-0.0,-0.0,-0.0,-0.0,-0.0,-0.0,-0.0,-0.0,-0.0,-0.0,-0.0,-0.0,-0.0,-0.0,-0.0,-0.0,-0.0,-0.0,-0.0,-0.0,-0.0,-0.0,-0.0,-0.0,-0.0,-0.0,-0.0,-0.0,-0.0,-0.0,-0.0,-0.0,-0.0,-0.0,-0.0,-0.0,-0.0,-0.0,-0.0,-0.0,-0.0,-0.0,-0.0,-0.0,2.0839,2.0839,2.0839,2.0839,2.0839,2.0839,2.0839,2.0839,2.0839,2.0839,2.0839,2.0839,2.0839,2.0839,2.0839,2.0839,2.0839,2.0839,2.0872,1.8009,-0.0,-0.0,-0.0,-0.0,-0.0,-0.0,-0.0,-0.0,-0.0,-0.0,-0.0,-0.0,-0.0,-0.0,-0.0,-0.0,-0.0,-0.0,-0.0,-0.0,-0.0,-0.0,-0.0,-0.0,-0.0,-0.0,-0.0,-0.0,-0.0,-0.0,-0.0,-0.0,-0.0,-0.0,-0.0,-0.0,-0.0,-0.0,-0.0,-0.0,-0.0,-0.0,-0.0,-0.0,-0.0,-0.0,-0.0,-0.0,-0.0,-0.0,-0.0,-0.0,-0.0,-0.0,-0.0,-0.0,-0.0,-0.0,-0.0,-0.0,-0.0,-0.0,-0.0,-0.0,-0.0,-0.0,-0.0,-0.0,-0.0,-0.0,-0.0,-0.0,-0.0,-0.0,-0.0,-0.0,-0.0,-0.0,-0.0,-0.0,-0.0,-0.0,-0.0,-0.0,-0.0,-0.0,-0.0,-0.0,-0.0,-0.0,-0.0,-0.0,-0.0,-0.0,-0.0,2.0839,2.0839,2.0839,2.0839,2.0839,2.0839,2.0839,2.0839,2.0839,2.0839,2.0839,2.0839,2.0839,2.0839,2.0839,2.0839,2.0839,2.0839,2.0866,2.011,1.3292,0.7296,-0.0,-0.0,-0.0,-0.0,-0.0,-0.0,-0.0,-0.0,-0.0,-0.0,-0.0,-0.0,-0.0,-0.0,-0.0,-0.0,-0.0,-0.0,-0.0,-0.0,-0.0,-0.0,-0.0,-0.0,-0.0,-0.0,-0.0,-0.0,-0.0,-0.0,-0.0,-0.0,-0.0,-0.0,-0.0,-0.0,-0.0,-0.0,-0.0,-0.0,-0.0,-0.0,-0.0,-0.0,-0.0,-0.0,-0.0,-0.0,-0.0,-0.0,-0.0,-0.0,-0.0,-0.0,-0.0,-0.0,-0.0,-0.0,-0.0,-0.0,-0.0,-0.0,-0.0,-0.0,-0.0,-0.0,-0.0,-0.0,-0.0,-0.0,-0.0,-0.0,-0.0,-0.0,-0.0,-0.0,-0.0,-0.0,-0.0,-0.0,-0.0,-0.0,-0.0,-0.0,-0.0,-0.0,-0.0,-0.0,-0.0,-0.0,-0.0,-0.0,-0.0,2.0839,2.0839,2.0839,2.0839,2.0839,2.0839,2.0839,2.0839,2.0839,2.0839,2.0839,2.0839,2.0839,2.0839,2.0839,2.0839,2.0839,2.0839,2.0859,2.0369,1.937,1.1741,-0.0,-0.0,-0.0,-0.0,-0.0,-0.0,-0.0,-0.0,-0.0,-0.0,-0.0,-0.0,-0.0,-0.0,-0.0,-0.0,-0.0,-0.0,-0.0,-0.0,-0.0,-0.0,-0.0,-0.0,-0.0,-0.0,-0.0,-0.0,-0.0,-0.0,-0.0,-0.0,-0.0,-0.0,-0.0,-0.0,-0.0,-0.0,-0.0,-0.0,-0.0,-0.0,-0.0,-0.0,-0.0,-0.0,-0.0,-0.0,-0.0,-0.0,-0.0,-0.0,-0.0,-0.0,-0.0,-0.0,-0.0,-0.0,-0.0,-0.0,-0.0,-0.0,-0.0,-0.0,-0.0,-0.0,-0.0,-0.0,-0.0,-0.0,-0.0,-0.0,-0.0,-0.0,-0.0,-0.0,-0.0,-0.0,-0.0,-0.0,-0.0,-0.0,-0.0,-0.0,-0.0,-0.0,-0.0,-0.0,-0.0,-0.0,-0.0,-0.0,-0.0,2.0839,2.0839,2.0839,2.0839,2.0839,2.0839,2.0839,2.0839,2.0839,2.0839,2.0839,2.0839,2.0839,2.0839,2.0839,2.0839,2.0839,2.0839,2.0839,2.0872,2.0699,1.2525,-0.0,-0.0,-0.0,-0.0,-0.0,-0.0,-0.0,-0.0,-0.0,-0.0,-0.0,-0.0,-0.0,-0.0,-0.0,-0.0,-0.0,-0.0,-0.0,-0.0,-0.0,-0.0,-0.0,-0.0,-0.0,-0.0,-0.0,-0.0,-0.0,-0.0,-0.0,-0.0,-0.0,-0.0,-0.0,-0.0,-0.0,-0.0,-0.0,-0.0,-0.0,-0.0,-0.0,-0.0,-0.0,-0.0,-0.0,-0.0,-0.0,-0.0,-0.0,-0.0,-0.0,-0.0,-0.0,-0.0,-0.0,-0.0,-0.0,-0.0,-0.0,-0.0,-0.0,-0.0,-0.0,-0.0,-0.0,-0.0,-0.0,-0.0,-0.0,-0.0,-0.0,-0.0,-0.0,-0.0,-0.0,-0.0,-0.0,-0.0,-0.0,-0.0,-0.0,-0.0,-0.0,-0.0,-0.0,-0.0,-0.0,-0.0,-0.0,-0.0,-0.0,2.2356,2.0839,2.0839,2.0839,2.0839,2.0839,2.0839,2.0839,2.0839,2.0839,2.0839,2.0839,2.0839,2.0839,2.0839,2.0839,2.0839,2.0839,2.0839,2.0866,2.042,1.3053,-0.0,-0.0,-0.0,-0.0,-0.0,-0.0,-0.0,-0.0,-0.0,-0.0,-0.0,-0.0,-0.0,-0.0,-0.0,-0.0,-0.0,-0.0,-0.0,-0.0,-0.0,-0.0,-0.0,-0.0,-0.0,-0.0,-0.0,-0.0,-0.0,-0.0,-0.0,-0.0,-0.0,-0.0,-0.0,-0.0,-0.0,-0.0,-0.0,-0.0,-0.0,-0.0,-0.0,-0.0,-0.0,-0.0,-0.0,-0.0,-0.0,-0.0,-0.0,-0.0,-0.0,-0.0,-0.0,-0.0,-0.0,-0.0,-0.0,-0.0,-0.0,-0.0,-0.0,-0.0,-0.0,-0.0,-0.0,-0.0,-0.0,-0.0,-0.0,-0.0,-0.0,-0.0,-0.0,-0.0,-0.0,-0.0,-0.0,-0.0,-0.0,-0.0,-0.0,-0.0,-0.0,-0.0,-0.0,-0.0,-0.0,-0.0,-0.0,-0.0,-0.0,2.5423,2.2921,2.2913,2.2134,2.0839,2.0839,2.0839,2.0839,2.0839,2.0839,2.0839,2.0839,2.0839,2.0839,2.0839,2.0839,2.0839,2.0839,2.0839,2.0859,2.0692,1.2789,-0.0,-0.0,-0.0,-0.0,-0.0,-0.0,-0.0,-0.0,-0.0,-0.0,-0.0,-0.0,-0.0,-0.0,-0.0,-0.0,-0.0,-0.0,-0.0,-0.0,-0.0,-0.0,-0.0,-0.0,-0.0,-0.0,-0.0,-0.0,-0.0,-0.0,-0.0,-0.0,-0.0,-0.0,-0.0,-0.0,-0.0,-0.0,-0.0,-0.0,-0.0,-0.0,-0.0,-0.0,-0.0,-0.0,-0.0,-0.0,-0.0,-0.0,-0.0,-0.0,-0.0,-0.0,-0.0,-0.0,-0.0,-0.0,-0.0,-0.0,-0.0,-0.0,-0.0,-0.0,-0.0,-0.0,-0.0,-0.0,-0.0,-0.0,-0.0,-0.0,-0.0,-0.0,-0.0,-0.0,-0.0,-0.0,-0.0,-0.0,-0.0,-0.0,-0.0,-0.0,-0.0,-0.0,-0.0,-0.0,-0.0,-0.0,-0.0,-0.0,-0.0,3.0292,2.9973,2.9718,2.6305,2.1097,2.0839,2.0839,2.0839,2.0839,2.0839,2.0839,2.0839,2.0839,2.0839,2.0839,2.0839,2.0839,2.0839,2.0839,2.0872,1.9876,1.3329,-0.0,-0.0,-0.0,-0.0,-0.0,-0.0,-0.0,-0.0,-0.0,-0.0,-0.0,-0.0,-0.0,-0.0,-0.0,-0.0,-0.0,-0.0,-0.0,-0.0,-0.0,-0.0,-0.0,-0.0,-0.0,-0.0,-0.0,-0.0,-0.0,-0.0,-0.0,-0.0,-0.0,-0.0,-0.0,-0.0,-0.0,-0.0,-0.0,-0.0,-0.0,-0.0,-0.0,-0.0,-0.0,-0.0,-0.0,-0.0,-0.0,-0.0,-0.0,-0.0,-0.0,-0.0,-0.0,-0.0,-0.0,-0.0,-0.0,-0.0,-0.0,-0.0,-0.0,-0.0,-0.0,-0.0,-0.0,-0.0,-0.0,-0.0,-0.0,-0.0,-0.0,-0.0,-0.0,-0.0,-0.0,-0.0,-0.0,-0.0,-0.0,-0.0,-0.0,-0.0,-0.0,-0.0,-0.0,-0.0,-0.0,-0.0,-0.0,-0.0,-0.0,3.5046,3.6541,3.2406,2.709,2.1097,2.0839,2.0839,2.0839,2.0839,2.0839,2.0839,2.0839,2.0839,2.0839,2.0839,2.0839,2.0839,2.0839,2.0839,2.0853,2.0919,1.3049,-0.0,-0.0,-0.0,-0.0,-0.0,-0.0,-0.0,-0.0,-0.0,-0.0,-0.0,-0.0,-0.0,-0.0,-0.0,-0.0,-0.0,-0.0,-0.0,-0.0,-0.0,-0.0,-0.0,-0.0,-0.0,-0.0,-0.0,-0.0,-0.0,-0.0,-0.0,-0.0,-0.0,-0.0,-0.0,-0.0,-0.0,-0.0,-0.0,-0.0,-0.0,-0.0,-0.0,-0.0,-0.0,-0.0,-0.0,-0.0,-0.0,-0.0,-0.0,-0.0,-0.0,-0.0,-0.0,-0.0,-0.0,-0.0,-0.0,-0.0,-0.0,-0.0,-0.0,-0.0,-0.0,-0.0,-0.0,-0.0,-0.0,-0.0,-0.0,-0.0,-0.0,-0.0,-0.0,-0.0,-0.0,-0.0,-0.0,-0.0,-0.0,-0.0,-0.0,-0.0,-0.0,-0.0,-0.0,-0.0,-0.0,-0.0,-0.0,-0.0,-0.0,3.8691,4.0097,3.3679,2.7039,2.1355,2.0839,2.0839,2.0839,2.0839,2.0839,2.0839,2.0839,2.0839,2.0839,2.0839,2.0839,2.0839,2.0839,2.0839,2.0846,2.0899,1.3044,-0.0,-0.0,-0.0,-0.0,-0.0,-0.0,-0.0,-0.0,-0.0,-0.0,-0.0,-0.0,-0.0,-0.0,-0.0,-0.0,-0.0,-0.0,-0.0,-0.0,-0.0,-0.0,-0.0,-0.0,-0.0,-0.0,-0.0,-0.0,-0.0,-0.0,-0.0,-0.0,-0.0,-0.0,-0.0,-0.0,-0.0,-0.0,-0.0,-0.0,-0.0,-0.0,-0.0,-0.0,-0.0,-0.0,-0.0,-0.0,-0.0,-0.0,-0.0,-0.0,-0.0,-0.0,-0.0,-0.0,-0.0,-0.0,-0.0,-0.0,-0.0,-0.0,-0.0,-0.0,-0.0,-0.0,-0.0,-0.0,-0.0,-0.0,-0.0,-0.0,-0.0,-0.0,-0.0,-0.0,-0.0,-0.0,-0.0,-0.0,-0.0,-0.0,-0.0,-0.0,-0.0,-0.0,-0.0,-0.0,-0.0,-0.0,-0.0,-0.0,-0.0,4.0874,4.0053,3.3688,2.6928,2.1091,2.0839,2.0839,2.0839,2.0839,2.0839,2.0839,2.0839,2.0839,2.0839,2.0839,2.0839,2.0839,2.0833,2.082,2.0806,2.0104,1.3538,-0.0,-0.0,-0.0,-0.0,-0.0,-0.0,-0.0,-0.0,-0.0,-0.0,-0.0,-0.0,-0.0,-0.0,-0.0,-0.0,-0.0,-0.0,-0.0,-0.0,-0.0,-0.0,-0.0,-0.0,-0.0,-0.0,-0.0,-0.0,-0.0,-0.0,-0.0,-0.0,-0.0,-0.0,-0.0,-0.0,-0.0,-0.0,-0.0,-0.0,-0.0,-0.0,-0.0,-0.0,-0.0,-0.0,-0.0,-0.0,-0.0,-0.0,-0.0,-0.0,-0.0,-0.0,-0.0,-0.0,-0.0,-0.0,-0.0,-0.0,-0.0,-0.0,-0.0,-0.0,-0.0,-0.0,-0.0,-0.0,-0.0,-0.0,-0.0,-0.0,-0.0,-0.0,-0.0,-0.0,-0.0,-0.0,-0.0,-0.0,-0.0,-0.0,-0.0,-0.0,-0.0,-0.0,-0.0,-0.0,-0.0,-0.0,-0.0,-0.0,-0.0,4.0812,4.0279,3.3656,2.6902,2.1091,2.0839,2.0839,2.0839,2.0839,2.0839,2.0833,2.0833,2.0839,2.0839,2.0839,2.0839,2.0839,2.0839,2.0904,2.0895,2.0844,1.3136,-0.0,-0.0,-0.0,-0.0,-0.0,-0.0,-0.0,-0.0,-0.0,-0.0,-0.0,-0.0,-0.0,-0.0,-0.0,-0.0,-0.0,-0.0,-0.0,-0.0,-0.0,-0.0,-0.0,-0.0,-0.0,-0.0,-0.0,-0.0,-0.0,-0.0,-0.0,-0.0,-0.0,-0.0,-0.0,-0.0,-0.0,-0.0,-0.0,-0.0,-0.0,-0.0,-0.0,-0.0,-0.0,-0.0,-0.0,-0.0,-0.0,-0.0,-0.0,-0.0,-0.0,-0.0,-0.0,-0.0,-0.0,-0.0,-0.0,-0.0,-0.0,-0.0,-0.0,-0.0,-0.0,-0.0,-0.0,-0.0,-0.0,-0.0,-0.0,-0.0,-0.0,-0.0,-0.0,-0.0,-0.0,-0.0,-0.0,-0.0,-0.0,-0.0,-0.0,-0.0,-0.0,-0.0,-0.0,-0.0,-0.0,-0.0,-0.0,-0.0,-0.0,4.0206,3.9641,3.3189,2.6527,2.1264,2.0817,2.083,2.083,2.0837,2.0837,2.0569,2.0576,2.0576,2.0569,2.0576,2.0569,2.0569,2.0295,2.0106,2.0094,2.0272,1.2933,-0.0,-0.0,-0.0,-0.0,-0.0,-0.0,-0.0,-0.0,-0.0,-0.0,-0.0,-0.0,-0.0,-0.0,-0.0,-0.0,-0.0,-0.0,-0.0,-0.0,-0.0,-0.0,-0.0,-0.0,-0.0,-0.0,-0.0,-0.0,-0.0,-0.0,-0.0,-0.0,-0.0,-0.0,-0.0,-0.0,-0.0,-0.0,-0.0,-0.0,-0.0,-0.0,-0.0,-0.0,-0.0,-0.0,-0.0,-0.0,-0.0,-0.0,-0.0,-0.0,-0.0,-0.0,-0.0,-0.0,-0.0,-0.0,-0.0,-0.0,-0.0,-0.0,-0.0,-0.0,-0.0,-0.0,-0.0,-0.0,-0.0,-0.0,-0.0,-0.0,-0.0,-0.0,-0.0,-0.0,-0.0,-0.0,-0.0,-0.0,-0.0,-0.0,-0.0,-0.0,-0.0,-0.0,-0.0,-0.0,-0.0,-0.0,-0.0,-0.0,-0.0,3.9289,3.8364,3.2148,2.6253,2.1119,2.0758,2.0778,2.0819,2.0806,2.0585,2.0101,2.0042,2.0081,2.0035,2.0088,2.0009,1.9989,1.9475,1.9183,1.9151,1.9247,1.2474,-0.0,-0.0,-0.0,-0.0,-0.0,-0.0,-0.0,-0.0,-0.0,-0.0,-0.0,-0.0,-0.0,-0.0,-0.0,-0.0,-0.0,-0.0,-0.0,-0.0,-0.0,-0.0,-0.0,-0.0,-0.0,-0.0,-0.0,-0.0,-0.0,-0.0,-0.0,-0.0,-0.0,-0.0,-0.0,-0.0,-0.0,-0.0,-0.0,-0.0,-0.0,-0.0,-0.0,-0.0,-0.0,-0.0,-0.0,-0.0,-0.0,-0.0,-0.0,-0.0,-0.0,-0.0,-0.0,-0.0,-0.0,-0.0,-0.0,-0.0,-0.0,-0.0,-0.0,-0.0,-0.0,-0.0,-0.0,-0.0,-0.0,-0.0,-0.0,-0.0,-0.0,-0.0,-0.0,-0.0,-0.0,-0.0,-0.0,-0.0,-0.0,-0.0,-0.0,-0.0,-0.0,-0.0,-0.0,-0.0,-0.0,-0.0,-0.0,-0.0,-0.0,3.8629,3.7913,3.5905,2.9124,1.9989,1.9553,1.9877,2.023,2.0236,2.023,1.9982,1.9982,1.9982,1.9982,1.9982,1.9785,1.9402,1.9136,1.913,1.9149,1.9134,1.6995,1.3298,1.2936,1.3035,1.2794,1.2945,0.8116,-0.0,-0.0,-0.0,-0.0,-0.0,-0.0,-0.0,-0.0,-0.0,-0.0,-0.0,-0.0,-0.0,-0.0,-0.0,-0.0,-0.0,-0.0,-0.0,-0.0,-0.0,-0.0,-0.0,-0.0,-0.0,-0.0,-0.0,-0.0,-0.0,-0.0,-0.0,-0.0,-0.0,-0.0,-0.0,-0.0,-0.0,-0.0,-0.0,-0.0,-0.0,-0.0,-0.0,-0.0,-0.0,-0.0,-0.0,-0.0,-0.0,-0.0,-0.0,-0.0,-0.0,-0.0,-0.0,-0.0,-0.0,-0.0,-0.0,-0.0,-0.0,-0.0,-0.0,-0.0,-0.0,-0.0,-0.0,-0.0,-0.0,-0.0,-0.0,-0.0,-0.0,-0.0,-0.0,-0.0,-0.0,-0.0,-0.0,-0.0,-0.0,-0.0,-0.0,-0.0,-0.0,-0.0,-0.0,3.8,3.7722,3.7823,3.3359,2.5493,2.0876,1.9247,1.9587,1.964,1.9659,1.9666,1.9659,1.9659,1.9659,1.9659,1.9448,1.9112,1.9086,1.9086,1.9119,1.9071,1.8935,1.8973,1.916,1.9043,1.9069,1.8936,1.2381,-0.0,-0.0,-0.0,-0.0,-0.0,-0.0,-0.0,-0.0,-0.0,-0.0,-0.0,-0.0,-0.0,-0.0,-0.0,-0.0,-0.0,-0.0,-0.0,-0.0,-0.0,-0.0,-0.0,-0.0,-0.0,-0.0,-0.0,-0.0,-0.0,-0.0,-0.0,-0.0,-0.0,-0.0,-0.0,-0.0,-0.0,-0.0,-0.0,-0.0,-0.0,-0.0,-0.0,-0.0,-0.0,-0.0,-0.0,-0.0,-0.0,-0.0,-0.0,-0.0,-0.0,-0.0,-0.0,-0.0,-0.0,-0.0,-0.0,-0.0,-0.0,-0.0,-0.0,-0.0,-0.0,-0.0,-0.0,-0.0,-0.0,-0.0,-0.0,-0.0,-0.0,-0.0,-0.0,-0.0,-0.0,-0.0,-0.0,-0.0,-0.0,-0.0,-0.0,-0.0,-0.0,-0.0,-0.0,3.7644,3.7708,3.7689,3.7361,3.6612,2.5319,2.0097,1.9208,1.9066,1.9112,1.9132,1.9125,1.9106,1.9125,1.9152,1.9099,1.9086,1.9086,1.9086,1.9092,1.9112,1.9119,1.9158,1.9158,1.8967,1.9077,1.9103,1.3243,0.216,-0.0,-0.0,-0.0,-0.0,-0.0,-0.0,-0.0,-0.0,-0.0,-0.0,-0.0,-0.0,-0.0,-0.0,-0.0,-0.0,-0.0,-0.0,-0.0,-0.0,-0.0,-0.0,-0.0,-0.0,-0.0,-0.0,-0.0,-0.0,-0.0,-0.0,-0.0,-0.0,-0.0,-0.0,-0.0,-0.0,-0.0,-0.0,-0.0,-0.0,-0.0,-0.0,-0.0,-0.0,-0.0,-0.0,-0.0,-0.0,-0.0,-0.0,-0.0,-0.0,-0.0,-0.0,-0.0,-0.0,-0.0,-0.0,-0.0,-0.0,-0.0,-0.0,-0.0,-0.0,-0.0,-0.0,-0.0,-0.0,-0.0,-0.0,-0.0,-0.0,-0.0,-0.0,-0.0,-0.0,-0.0,-0.0,-0.0,-0.0,-0.0,-0.0,-0.0,-0.0,-0.0,-0.0,3.7644,3.7657,3.7721,3.7624,3.7336,3.3867,2.7557,1.9623,1.9033,1.9086,1.9086,1.9086,1.9086,1.9086,1.9086,1.9086,1.9086,1.9086,1.9086,1.9086,1.9086,1.9099,1.9106,1.9106,1.9132,1.8947,1.9006,1.7336,1.3473,0.5041,-0.0,-0.0,-0.0,-0.0,-0.0,-0.0,-0.0,-0.0,-0.0,-0.0,-0.0,-0.0,-0.0,-0.0,-0.0,-0.0,-0.0,-0.0,-0.0,-0.0,-0.0,-0.0,-0.0,-0.0,-0.0,-0.0,-0.0,-0.0,-0.0,-0.0,-0.0,-0.0,-0.0,-0.0,-0.0,-0.0,-0.0,-0.0,-0.0,-0.0,-0.0,-0.0,-0.0,-0.0,-0.0,-0.0,-0.0,-0.0,-0.0,-0.0,-0.0,-0.0,-0.0,-0.0,-0.0,-0.0,-0.0,-0.0,-0.0,-0.0,-0.0,-0.0,-0.0,-0.0,-0.0,-0.0,-0.0,-0.0,-0.0,-0.0,-0.0,-0.0,-0.0,-0.0,-0.0,-0.0,-0.0,-0.0,-0.0,-0.0,-0.0,-0.0,-0.0,-0.0,-0.0,3.7085,3.728,3.7044,3.7263,3.7676,3.7846,3.0695,1.9308,1.9007,1.9086,1.9066,1.8835,1.8743,1.8743,1.8736,1.8743,1.8743,1.8736,1.8743,1.8981,1.8981,1.8981,1.8995,1.9095,1.8941,1.8967,1.8928,1.7802,1.3928,0.5036,-0.0,-0.0,-0.0,-0.0,-0.0,-0.0,-0.0,-0.0,-0.0,-0.0,-0.0,-0.0,-0.0,-0.0,-0.0,-0.0,-0.0,-0.0,-0.0,-0.0,-0.0,-0.0,-0.0,-0.0,-0.0,-0.0,-0.0,-0.0,-0.0,-0.0,-0.0,-0.0,-0.0,-0.0,-0.0,-0.0,-0.0,-0.0,-0.0,-0.0,-0.0,-0.0,-0.0,-0.0,-0.0,-0.0,-0.0,-0.0,-0.0,-0.0,-0.0,-0.0,-0.0,-0.0,-0.0,-0.0,-0.0,-0.0,-0.0,-0.0,-0.0,-0.0,-0.0,-0.0,-0.0,-0.0,-0.0,-0.0,-0.0,-0.0,-0.0,-0.0,-0.0,-0.0,-0.0,-0.0,-0.0,-0.0,-0.0,-0.0,-0.0,-0.0,-0.0,-0.0,-0.0,3.6254,3.667,3.6217,3.6525,3.7501,3.7564,3.0661,1.9782,1.9108,1.9235,1.9389,1.8916,1.87,1.8235,1.8255,1.8262,1.8262,1.8235,1.8481,1.8727,1.8932,1.8932,1.8987,1.899,1.8875,1.8684,1.8745,1.5728,0.9974,0.3095,-0.0,-0.0,-0.0,-0.0,-0.0,-0.0,-0.0,-0.0,-0.0,-0.0,-0.0,-0.0,-0.0,-0.0,-0.0,-0.0,-0.0,-0.0,-0.0,-0.0,-0.0,-0.0,-0.0,-0.0,-0.0,-0.0,-0.0,-0.0,-0.0,-0.0,-0.0,-0.0,-0.0,-0.0,-0.0,-0.0,-0.0,-0.0,-0.0,-0.0,-0.0,-0.0,-0.0,-0.0,-0.0,-0.0,-0.0,-0.0,-0.0,-0.0,-0.0,-0.0,-0.0,-0.0,-0.0,-0.0,-0.0,-0.0,-0.0,-0.0,-0.0,-0.0,-0.0,-0.0,-0.0,-0.0,-0.0,-0.0,-0.0,-0.0,-0.0,-0.0,-0.0,-0.0,-0.0,-0.0,-0.0,-0.0,-0.0,-0.0,-0.0,-0.0,-0.0,-0.0,-0.0,3.602,3.6137,3.5908,3.6189,3.6371,3.7214,3.0483,1.949,1.9082,2.0132,2.1532,2.14,2.0226,1.8461,1.8235,1.7997,1.7539,1.7533,1.7533,1.7765,1.7765,1.7997,1.8474,1.8528,1.8341,1.8361,1.8492,1.527,0.8759,0.3003,-0.0,-0.0,-0.0,-0.0,-0.0,-0.0,-0.0,-0.0,-0.0,-0.0,-0.0,-0.0,-0.0,-0.0,-0.0,-0.0,-0.0,-0.0,-0.0,-0.0,-0.0,-0.0,-0.0,-0.0,-0.0,-0.0,-0.0,-0.0,-0.0,-0.0,-0.0,-0.0,-0.0,-0.0,-0.0,-0.0,-0.0,-0.0,-0.0,-0.0,-0.0,-0.0,-0.0,-0.0,-0.0,-0.0,-0.0,-0.0,-0.0,-0.0,-0.0,-0.0,-0.0,-0.0,-0.0,-0.0,-0.0,-0.0,-0.0,-0.0,-0.0,-0.0,-0.0,-0.0,-0.0,-0.0,-0.0,-0.0,-0.0,-0.0,-0.0,-0.0,-0.0,-0.0,-0.0,-0.0,-0.0,-0.0,-0.0,-0.0,-0.0,-0.0,-0.0,-0.0,-0.0,3.5293,3.5527,3.5301,3.5203,3.5219,3.5856,3.0927,2.2833,2.2314,2.2965,2.3677,2.1086,1.9141,1.7846,1.784,1.7619,1.7385,1.7385,1.7385,1.7385,1.7385,1.7392,1.7853,1.8201,1.8261,1.8044,1.8003,1.6242,1.3002,0.9605,0.8014,0.7559,0.2518,-0.0,-0.0,-0.0,-0.0,-0.0,-0.0,-0.0,-0.0,-0.0,-0.0,-0.0,-0.0,-0.0,-0.0,-0.0,-0.0,-0.0,-0.0,-0.0,-0.0,-0.0,-0.0,-0.0,-0.0,-0.0,-0.0,-0.0,-0.0,-0.0,-0.0,-0.0,-0.0,-0.0,-0.0,-0.0,-0.0,-0.0,-0.0,-0.0,-0.0,-0.0,-0.0,-0.0,-0.0,-0.0,-0.0,-0.0,-0.0,-0.0,-0.0,-0.0,-0.0,-0.0,-0.0,-0.0,-0.0,-0.0,-0.0,-0.0,-0.0,-0.0,-0.0,-0.0,-0.0,-0.0,-0.0,-0.0,-0.0,-0.0,-0.0,-0.0,-0.0,-0.0,-0.0,-0.0,-0.0,-0.0,-0.0,-0.0,-0.0,-0.0,-0.0,3.4475,3.4733,3.4485,3.4281,3.4246,3.4234,3.1755,2.766,2.7299,2.6832,2.5994,2.0744,1.8217,1.7795,1.7587,1.7372,1.7372,1.7372,1.7372,1.7372,1.7372,1.7372,1.7385,1.7847,1.796,1.7754,1.7801,1.7726,1.7726,1.7332,1.7376,1.5754,0.5681,-0.0,-0.0,-0.0,-0.0,-0.0,-0.0,-0.0,-0.0,-0.0,-0.0,-0.0,-0.0,-0.0,-0.0,-0.0,-0.0,-0.0,-0.0,-0.0,-0.0,-0.0,-0.0,-0.0,-0.0,-0.0,-0.0,-0.0,0.1169,-0.0,-0.0,-0.0,-0.0,-0.0,-0.0,-0.0,-0.0,-0.0,-0.0,-0.0,-0.0,-0.0,-0.0,-0.0,-0.0,-0.0,-0.0,-0.0,-0.0,-0.0,-0.0,-0.0,-0.0,-0.0,-0.0,-0.0,-0.0,-0.0,-0.0,-0.0,-0.0,-0.0,-0.0,-0.0,-0.0,-0.0,-0.0,-0.0,-0.0,-0.0,-0.0,-0.0,-0.0,-0.0,-0.0,-0.0,-0.0,-0.0,-0.0,-0.0,-0.0,-0.0,-0.0,3.4241,3.4332,3.4319,3.4165,3.4243,3.4256,3.3597,3.2913,3.2776,0.0,0.0,2.5784,2.3062,2.0752,1.8217,1.7372,1.7372,1.7372,1.7372,1.7372,1.7372,1.7372,1.7378,1.7424,1.7451,1.7451,1.7332,1.7372,1.7372,1.7424,1.7231,1.6325,0.5702,-0.0,-0.0,-0.0,-0.0,-0.0,-0.0,-0.0,-0.0,-0.0,-0.0,-0.0,-0.0,-0.0,-0.0,-0.0,-0.0,-0.0,-0.0,-0.0,-0.0,-0.0,-0.0,-0.0,-0.0,-0.0,-0.0,0.6328,0.722,0.0367,-0.0,-0.0,-0.0,-0.0,-0.0,-0.0,-0.0,-0.0,-0.0,-0.0,-0.0,-0.0,-0.0,-0.0,-0.0,-0.0,-0.0,-0.0,-0.0,-0.0,-0.0,-0.0,-0.0,-0.0,-0.0,-0.0,-0.0,-0.0,-0.0,-0.0,-0.0,-0.0,-0.0,-0.0,-0.0,-0.0,-0.0,-0.0,-0.0,-0.0,-0.0,-0.0,-0.0,-0.0,-0.0,-0.0,-0.0,-0.0,-0.0,-0.0,-0.0,-0.0,-0.0,3.419,3.419,3.419,3.419,0.0,3.419,3.419,3.419,3.419,3.2701,2.9553,2.5574,2.2851,2.1382,1.8646,1.7372,1.7372,1.7372,1.7372,1.7372,1.7372,1.7372,1.7372,1.7372,1.7372,1.7372,1.7405,1.7411,1.7411,1.7241,1.7261,1.7254,1.1546,0.5869,-0.0,-0.0,-0.0,-0.0,-0.0,-0.0,-0.0,-0.0,-0.0,-0.0,-0.0,0.0,0.0,0.0,0.0,0.0,0.0,0.0,0.0,-0.0,-0.0,-0.0,-0.0,0.1096,0.3544,0.95,1.1043,0.6456,0.2332,-0.0,-0.0,-0.0,-0.0,-0.0,-0.0,-0.0,-0.0,-0.0,-0.0,-0.0,-0.0,-0.0,-0.0,-0.0,-0.0,-0.0,-0.0,-0.0,-0.0,-0.0,-0.0,-0.0,-0.0,-0.0,-0.0,-0.0,-0.0,-0.0,-0.0,-0.0,-0.0,-0.0,-0.0,-0.0,-0.0,-0.0,-0.0,-0.0,-0.0,-0.0,-0.0,-0.0,-0.0,-0.0,-0.0,-0.0,-0.0,-0.0,-0.0,-0.0,-0.0,3.4021,3.4034,3.4125,3.419,3.4164,3.4172,3.4081,3.3865,3.4094,3.2835,3.0333,2.4706,2.2012,2.1794,1.8666,1.72,1.7213,1.7207,1.7426,1.722,1.7273,1.7293,1.7299,1.7352,1.7372,1.7372,1.7372,1.7372,1.7378,1.7418,1.7431,1.7215,1.7274,1.2649,0.3691,0.0,0.0,0.0,-0.0,-0.0,-0.0,-0.0,-0.0,-0.0,-0.0,0.0,-0.0,-0.0,-0.0,-0.0,-0.0,0.0,-0.0,0.0,0.0,0.0,0.0,0.0,0.0,0.0,0.0,0.0,0.5175,0.1666,0.1602,0.0641,-0.0,-0.0,-0.0,-0.0,-0.0,-0.0,-0.0,-0.0,-0.0,-0.0,-0.0,-0.0,-0.0,-0.0,-0.0,-0.0,-0.0,-0.0,-0.0,-0.0,-0.0,-0.0,-0.0,-0.0,-0.0,-0.0,-0.0,-0.0,-0.0,-0.0,-0.0,-0.0,-0.0,-0.0,-0.0,-0.0,-0.0,-0.0,-0.0,-0.0,-0.0,-0.0,-0.0,-0.0,-0.0,-0.0,-0.0,-0.0,-0.0,3.3436,3.3488,3.3982,3.419,3.4316,3.4236,3.3585,3.2696,3.3808,3.4044,3.3232,2.6887,2.4051,2.385,1.8825,1.66,1.66,1.7024,1.7237,1.7257,1.7301,1.7423,1.7219,1.726,1.7372,1.7372,1.7372,1.7372,1.7372,1.7385,1.7385,1.7385,1.7222,1.6593,1.461,0.5067,-0.0,-0.0,-0.0,-0.0,-0.0,-0.0,-0.0,-0.0,-0.0,-0.0,-0.0,-0.0,-0.0,-0.0,-0.0,-0.0,-0.0,-0.0,-0.0,0.0,0.7634,0.0,0.0,0.0,0.0,0.0,0.0,0.0,0.0,0.2962,-0.0,-0.0,-0.0,-0.0,-0.0,-0.0,-0.0,-0.0,-0.0,-0.0,-0.0,-0.0,-0.0,-0.0,-0.0,-0.0,-0.0,-0.0,-0.0,-0.0,-0.0,-0.0,-0.0,-0.0,-0.0,-0.0,-0.0,-0.0,-0.0,-0.0,-0.0,-0.0,-0.0,-0.0,-0.0,-0.0,-0.0,-0.0,-0.0,-0.0,-0.0,-0.0,-0.0,-0.0,-0.0,-0.0,-0.0,-0.0,-0.0,3.2852,3.2878,3.3125,3.2683,3.1597,3.2063,3.1971,3.1528,3.2807,3.3252,3.305,2.9428,2.7076,2.5325,2.1119,1.9394,1.9189,1.7215,1.6305,1.6264,1.6389,1.6746,1.7326,1.7254,1.7099,1.6877,1.6884,1.6884,1.6884,1.6884,1.6884,1.6884,1.7146,1.6963,1.6098,1.123,0.5833,0.0203,0.5755,0.5866,-0.0,-0.0,-0.0,-0.0,-0.0,-0.0,-0.0,-0.0,-0.0,-0.0,-0.0,-0.0,-0.0,-0.0,0.105,0.0,0.0,0.0,0.0,0.0,0.0,0.0,0.0,0.0,0.0,0.0,-0.0,-0.0,-0.0,-0.0,-0.0,-0.0,-0.0,-0.0,-0.0,-0.0,-0.0,-0.0,-0.0,-0.0,-0.0,-0.0,-0.0,-0.0,-0.0,-0.0,-0.0,-0.0,-0.0,-0.0,-0.0,-0.0,-0.0,-0.0,-0.0,-0.0,-0.0,-0.0,-0.0,-0.0,-0.0,-0.0,-0.0,-0.0,-0.0,-0.0,-0.0,-0.0,-0.0,-0.0,-0.0,-0.0,-0.0,-0.0,-0.0,3.18,3.1618,3.045,2.957,2.8776,2.958,2.9966,2.9979,3.1125,3.1731,3.1608,3.0508,2.8417,2.5556,2.3132,2.1513,2.0376,1.6849,1.5151,1.5063,1.5334,1.6112,1.7006,1.7082,1.6902,1.6284,1.6284,1.6244,1.6178,1.6178,1.6043,1.5958,1.6765,1.6601,1.5108,1.5231,1.124,0.3321,1.1349,1.0991,0.2085,0.1683,0.2535,0.3591,0.3723,0.2642,-0.0,-0.0,-0.0,-0.0,-0.0,-0.0,-0.0,0.0776,0.0,0.0,0.0,0.0,0.0,0.0,0.0,0.0,0.0,0.7511,0.5707,0.0,0.0839,0.0,0.0433,-0.0,-0.0,-0.0,0.0,0.0,-0.0,-0.0,-0.0,-0.0,-0.0,-0.0,-0.0,0.0705,0.2304,0.1102,-0.0,-0.0,-0.0,-0.0,-0.0,-0.0,-0.0,-0.0,-0.0,-0.0,-0.0,-0.0,-0.0,-0.0,-0.0,-0.0,-0.0,-0.0,-0.0,-0.0,-0.0,-0.0,-0.0,-0.0,-0.0,-0.0,-0.0,-0.0,-0.0,-0.0,-0.0,2.9827,2.8989,2.4738,2.4322,2.6602,2.7388,2.7602,2.7817,2.8926,2.9404,2.9312,2.8174,2.6006,2.3074,2.3462,0.0,1.752,1.5013,1.3921,1.3927,1.5119,1.5974,1.6472,1.6562,1.63,1.5691,1.5697,1.5559,1.5295,1.5086,1.4571,1.4023,1.6195,1.6199,1.4135,1.3879,1.3457,1.2706,1.4594,1.2618,0.6696,0.691,0.9517,1.4125,1.4292,0.9833,-0.0,-0.0,-0.0,-0.0,-0.0,-0.0,-0.0,0.0,0.0,0.0,0.0,0.0,0.0,0.0,0.0,0.0,0.0,0.0,0.0,0.0,0.0,0.4678,0.1868,0.0,-0.0,-0.0,0.0,0.0,0.0,-0.0,-0.0,-0.0,-0.0,-0.0,0.0,0.0,0.8858,0.4058,-0.0,-0.0,-0.0,-0.0,-0.0,-0.0,-0.0,-0.0,-0.0,-0.0,-0.0,-0.0,-0.0,-0.0,-0.0,-0.0,-0.0,-0.0,-0.0,-0.0,-0.0,-0.0,-0.0,-0.0,-0.0,-0.0,-0.0,-0.0,-0.0,-0.0,-0.0,2.6556,2.437,2.2185,2.1768,2.2992,2.4627,2.5316,2.5311,2.571,2.6379,2.7065,2.6622,2.5541,2.4061,2.4313,0.0,0.0,0.0,1.2775,1.295,1.393,1.4798,1.5487,1.5442,1.5131,1.457,1.457,1.4517,1.4398,1.366,1.315,1.2989,0.0,1.4073,1.3796,1.3172,1.3412,1.4399,1.4563,1.3648,1.1929,1.2251,1.338,1.5489,1.5509,1.3312,0.8596,0.8382,0.8056,0.7425,0.7368,0.703,0.0,0.0,0.0,0.0,0.0,0.0,0.0,0.0,0.0,0.0,0.0,0.5834,0.5696,0.0,0.0,0.0,0.3212,0.2275,0.4092,0.1723,0.0,0.0,0.0,0.0,0.0,0.0,0.0,-0.0,0.369,0.743,0.9912,0.4367,-0.0,-0.0,-0.0,-0.0,-0.0,0.0,-0.0,-0.0,-0.0,-0.0,-0.0,-0.0,0.1917,0.7306,0.384,-0.0,-0.0,-0.0,-0.0,-0.0,-0.0,-0.0,-0.0,-0.0,-0.0,-0.0,-0.0,-0.0,-0.0,-0.0,-0.0,2.3131,0.0,0.0,0.0,0.0,2.2233,2.2932,2.3003,2.3631,2.44,2.5101,2.4441,0.0,0.0,0.0,0.0,0.0,0.0,1.4641,1.4578,1.3731,1.3713,1.4197,1.4197,1.403,1.3508,1.3508,1.3508,1.3489,1.306,1.2948,1.2861,0.0,0.0,0.0,0.0,1.2634,1.4135,1.4133,1.4331,1.4897,1.5212,1.5321,1.5405,1.5157,1.4583,1.3884,1.3445,1.3093,1.2276,1.192,0.0,0.0,0.0,0.0,0.0,0.0,0.0,0.0,0.0,0.0,0.0,0.0,0.0,0.0,0.0,0.0,0.0,0.0,0.0,0.6522,0.3898,0.1403,0.0,0.0,0.0,0.0,0.0,0.0,0.0,0.0,0.0,0.7779,0.4567,0.1813,0.0,0.0,-0.0,-0.0,-0.0,-0.0,-0.0,0.2221,0.0,0.222,0.3131,0.6235,1.2668,0.6173,-0.0,-0.0,-0.0,0.0729,-0.0,0.164,-0.0,-0.0,-0.0,-0.0,-0.0,-0.0,-0.0,-0.0,-0.0,-0.0,0.0,0.0,0.0,0.0,2.0566,0.0,0.0,0.0,2.2972,2.3902,0.0,2.177,0.0,0.0,0.0,0.0,1.9011,1.9827,0.0,0.0,1.4773,1.2599,1.3093,1.31,1.2944,1.2618,1.2768,1.2761,1.2681,1.3928,1.4444,0.0,0.0,0.0,0.0,0.0,1.1355,1.3041,1.4247,1.4672,1.4365,1.4675,1.4946,1.517,1.4385,1.3798,1.3815,1.2855,1.2216,1.2157,1.1239,0.0,0.0,0.0,0.0,0.0,0.0,0.0,0.0,0.0,0.0,0.0,0.0,0.0,0.0,0.0,0.0,0.0,0.0,0.0,0.0,0.643,0.0,0.0,0.0,0.0,0.0,0.0,0.0,0.0,0.0,0.7901,0.1711,0.5118,0.6352,0.0757,0.0,0.0,0.0,0.0,-0.0,-0.0,0.758,1.1657,0.7372,1.0393,1.3304,1.3759,0.0,0.0,-0.0,-0.0,0.262,1.0336,0.5411,-0.0,-0.0,-0.0,-0.0,-0.0,-0.0,-0.0,-0.0,-0.0,-0.0,0.0,0.0,0.0,0.0,0.0,0.0,0.0,0.0,0.0,2.1328,2.0539,1.9806,0.0,0.0,0.0,0.0,0.0,0.0,0.0,0.0,1.3086,1.232,1.2474,1.2039,1.3011,1.4999,1.4762,1.371,0.0,0.0,0.0,0.0,0.0,0.0,0.0,0.0,1.1212,1.2537,1.3588,1.4174,1.4036,1.4517,1.4721,1.4623,1.4141,1.3568,1.2749,1.2427,1.1837,0.0,0.0,0.0,0.0,0.0,0.0,0.0,0.0,0.0,0.0,0.0,0.0,0.0,0.0,0.0,0.0,0.0,0.0,0.0,0.0,0.0,0.0,0.0,0.4598,0.0,0.0,0.0,0.0,0.0,0.0,0.0,0.0,0.0,0.5546,0.7534,0.7934,0.5943,0.2362,-0.0,-0.0,0.0,0.0,0.0,0.0,0.0,0.0,0.0,1.3655,1.2865,1.0091,0.6907,0.3953,0.5257,0.7707,1.0618,0.0,0.0,0.6866,0.3111,-0.0,-0.0,0.374,0.535,0.0875,-0.0,-0.0,0.0,0.0,0.0,0.0,0.0,0.0,0.0,0.0,0.0,1.8446,1.7682,0.0,0.0,0.0,0.0,0.0,0.0,0.0,0.0,0.0,0.0,0.0,1.1927,1.2391,0.0,0.0,0.0,0.0,0.0,0.0,0.0,0.0,0.0,0.0,0.0,0.0,1.1097,1.2216,1.3076,1.3559,1.3587,1.4082,1.4286,1.4174,1.3706,1.3172,1.2274,0.0,0.0,0.0,0.0,0.0,0.0,0.0,0.0,0.0,0.0,0.0,0.0,0.0,0.0,0.0,0.0,0.0,0.0,0.0,0.0,0.0,0.0,0.0,0.0,0.0,0.4801,0.0,0.0,0.0,0.0,0.0,0.0,0.0,0.0,0.0,0.0,0.8369,0.8631,0.8906,0.3779,0.0444,0.1671,0.3127,0.6253,0.0,0.0,1.2401,0.0,0.0,0.0,0.0,0.0,0.0,0.0,0.0,0.0,0.0,1.0408,0.9928,0.9887,0.6773,0.3172,0.0551,0.0,0.0,0.0,0.0,0.0,0.0,0.0,0.0,0.0,0.0,0.0,0.0,0.0,0.0,0.0,1.5243,0.0,0.0,1.3686,0.0,0.0,0.0,0.0,0.0,0.0,0.0,0.0,0.0,0.0,0.0,0.0,0.0,0.0,0.0,0.0,0.0,0.0,0.0,0.0,0.0,0.0,1.0998,1.2202,1.2815,1.295,1.3007,1.3311,1.3594,1.3812,1.3363,1.2728,1.2197,0.0,0.0,0.0,0.0,0.0,0.0,0.0,0.0,0.0,0.0,0.0,0.0,0.0,0.0,0.0,0.0,0.0,0.0,0.0,0.0,0.0,0.0,0.0,0.0,0.0,0.0,0.6601,0.2805,0.2421,0.0,0.0,0.0,0.0,0.0,0.0,0.0,0.0,0.0,0.9318,0.4128,0.1531,0.4949,0.9279,1.1934,1.2615,1.2351,1.2238,1.2579,1.2341,1.1935,0.0,0.0,0.0,0.0,0.0,0.0,0.0,0.0,0.0,0.0,0.0,0.0,0.0,0.0,0.0,0.0,0.0,0.0,0.0,0.0,0.0,0.0,0.0,0.0,0.0,0.0,0.0,0.0,0.0,0.0,0.0,0.0,0.0,0.0,0.0,0.0,0.0,0.0,0.0,0.0,0.0,0.0,0.0,0.0,0.0,0.0,0.0,0.0,0.0,0.0,0.0,0.0,0.0,0.0,1.0236,1.2164,1.2364,1.2546,1.2711,1.3001,1.3093,1.2968,1.2881,1.2354,1.111,0.0,0.0,0.0,0.0,0.0,0.0,0.0,0.0,0.0,0.0,0.0,0.0,0.0,0.0,0.0,0.0,0.0,0.0,0.0,0.0,0.0,0.0,0.0,0.0,0.0,0.0,0.0,0.4525,0.5026,0.8375,0.0,0.0,0.0,0.0,0.0,0.0,0.0,0.0,0.0,0.0,0.7776,0.8833,1.0613,1.1229,0.9437,1.0479,1.1622,1.1676,1.1603,1.1316,1.0753,0.0,0.0,0.0,0.0,0.0,0.0,0.0,0.0,0.0,0.0,0.0,0.0,0.0,0.0,0.0,0.0,0.0,0.0,0.0,0.0,0.0,0.0,0.0,0.0,0.0,0.0,0.0,0.0,0.0,0.0,0.0,0.0,0.0,0.0,0.0,0.0,0.0,0.0,0.0,0.0,0.0,0.0,0.0,0.0,0.0,0.0,0.0,0.0,0.0,0.0,0.0,0.0,0.0,0.9807,1.1804,1.1917,1.2049,1.2269,1.2645,1.2724,1.2427,1.2741,1.2235,0.0,0.0,0.0,0.0,0.0,0.0,0.0,0.0,0.0,0.0,0.0,0.0,0.0,0.0,0.0,0.0,0.0,0.0,0.0,0.0,0.0,0.0,0.0,0.0,0.0,0.0,0.0,0.0,0.6073,0.7141,0.8598,0.0,0.0,0.0,0.0,0.0,0.0,0.0,0.0,0.0,0.0,1.0255,1.0554,1.0854,0.0,0.0,1.0156,1.0975,1.1142,1.0978,1.0841,1.0588,1.0621,0.0,0.0,0.0,0.0,0.0,0.0,0.0,0.0,0.0,0.0,0.0,0.0,0.0,0.0,0.0,0.0,0.0,0.0,0.0,0.0,0.0,0.0,0.0,0.0,0.0,0.0,0.0,0.0,0.0,0.0,0.0,0.0,0.0,0.0,0.0,0.0,0.0,0.0,0.0,0.0,0.0,0.0,0.0,0.0,0.0,0.0,0.0,0.0,0.0,0.0,0.0,0.0,0.9554,1.1231,1.126,1.1392,1.1603,1.2262,1.2421,1.2157,1.2622,1.2329,0.0,0.0,0.0,0.0,0.0,0.0,0.0,0.0,0.0,0.0,0.0,0.0,0.0,0.0,0.0,0.0,0.0,0.0,0.0,0.0,0.0,0.0,0.0,0.0,0.0,0.0,0.0,0.0,0.0,0.0,0.0,0.0,0.0,0.0,0.0,0.0,0.0,0.0,0.0,0.0,0.0,1.0138,1.035,1.0509,1.0654,0.0,1.0829,1.0609,1.0717,1.0665,1.0476,1.0427,0.0,0.0,0.0,0.0,0.0,0.0,0.0,0.0,0.0,0.0,0.0,0.0,0.0,0.0,0.0,0.0,0.0,0.0,0.0,0.0,0.0,0.0,0.0,0.0,0.0,0.0,0.0,0.0,0.0,0.0,0.0,0.0,0.0,0.0,0.0,0.0,0.0,0.0,0.0,0.0,0.0,0.0,0.0,0.0,0.0,0.0,0.0,0.0,0.0,0.0,0.0,0.0,0.0,0.0,1.1192,1.1343,1.135,1.159,1.2084,1.2137,1.1847,1.2207,0.0,0.0,0.0,0.0,0.0,0.0,0.0,0.0,0.0,0.0,0.0,0.0,0.0,0.0,0.0,0.0,0.0,0.0,0.0,0.0,0.0,0.0,0.0,0.0,0.0,0.0,0.0,0.4684,0.0,0.0,0.0,0.0,0.0,0.0,0.0,0.0,0.0,0.0,0.0,0.0,0.0,0.0,1.0236,1.0008,1.0325,1.0485,0.0,0.0,1.045,1.0118,1.0358,1.037,0.0,0.0,0.0,0.0,0.0,0.0,0.0,0.0,0.0,0.0,0.0,0.0,0.0,0.0,0.0,0.0,0.0,0.0,0.0,0.0,0.0,0.0,0.0,0.0,0.0,0.0,0.0,0.0,0.0,0.0,0.0,0.0,0.0,0.0,0.0,0.0,0.0,0.0,0.0,0.0,0.0,0.0,0.0,0.0,0.0,0.0,0.0,0.0,0.0,0.0,0.0,0.0,0.0,0.0,0.9499,1.0829,1.114,1.1381,1.1531,1.1695,1.1702,1.1537,1.1695,1.1651,0.0,0.0,0.0,0.0,0.0,0.0,0.0,0.0,0.0,0.0,0.0,0.0,0.0,0.0,0.0,0.0,0.0,0.0,0.0,0.0,0.0,0.0,0.0,0.0,0.0,0.0,0.0,0.0,0.0,0.0,0.0,0.0,0.0,0.0,0.0,0.0,0.0,0.0,0.0,0.0,0.0,0.0,0.9477,1.0005,0.0,0.0,0.0,1.019,0.8623,0.0,0.0,0.0,0.0,0.0,0.0,0.0,0.0,0.0,0.0,0.0,0.0,0.0,0.0,0.0,0.0,0.0,0.0,0.0,0.0,0.0,0.0,0.0,0.0,0.0,0.0,0.0,0.0,0.0,0.0,0.0,0.0,0.0,0.0,0.0,0.0,0.0,0.0,0.0,0.0,0.0,0.0,0.0,0.0,0.0,0.0,0.0,0.0,0.0,0.0,0.0,0.0,0.0,0.0,0.0,0.0,0.0,1.0451,1.1035,1.1208,1.1273,1.128,1.1273,1.1273,1.1101,1.1117,0.0,0.0,0.0,0.0,0.0,0.0,0.0,0.0,0.0,0.0,0.0,0.0,0.0,0.0,0.0,0.0,0.0,0.0,0.0,0.0,0.0,0.0,0.0,0.0,0.0,0.0,0.0,0.0,0.0,0.0,0.0,0.0,0.0,0.0,0.0,0.0,0.0,0.0,0.0,0.0,0.0,0.9008,0.8817,0.9586,1.0067,0.0,0.0,0.9744,0.6823,0.77,0.0,0.0,0.0,0.0,0.0,0.0,0.0,0.0,0.0,0.0,0.0,0.0,0.0,0.0,0.0,0.0,0.0,0.0,0.0,0.0,0.0,0.0,0.0,0.0,0.0,0.0,0.0,0.0,0.0,0.0,0.0,0.0,0.0,0.0,0.0,0.0,0.0,0.0,0.0,0.0,0.0,0.0,0.0,0.0,0.0,0.0,0.0,0.0,0.0,0.0,0.0,0.0,0.0,0.0,0.0,0.0,1.0408,1.1026,1.1234,1.1254,1.1273,1.1273,1.1127,1.1062,1.0919,0.0,0.0,0.0,0.0,0.0,0.0,0.0,0.0,0.0,0.0,0.0,0.0,0.0,0.0,0.0,0.0,0.0,0.0,0.0,0.0,0.0,0.0,0.0,0.0,0.0,0.0,0.0,0.0,0.0,0.0,0.0,0.0,0.0,0.0,0.0,0.0,0.0,0.0,0.0,0.0,0.0,0.7799,0.8582,0.8491,0.0,0.0,0.0,0.0,0.6331,0.529,0.0,0.0,0.0,0.0,0.0,0.0,0.0,0.0,0.0,0.0,0.0,0.0,0.0,0.0,0.0,0.0,0.0,0.0,0.0,0.0,0.0,0.0,0.0,0.0,0.0,0.0,0.0,0.0,0.0,0.0,0.0,0.0,0.0,0.0,0.0,0.0,0.0,0.0,0.0,0.0,0.0,0.0,0.0,0.0,0.0,0.0,0.0,0.0,0.0,0.0,0.0,0.0,0.0,0.0,0.0,0.0,1.0408,1.0757,1.1028,1.1206,1.0944,1.0795,1.0782,1.0792,1.0481,0.0,0.0,0.0,0.0,0.0,0.0,0.0,0.0,0.0,0.0,0.0,0.0,0.0,0.0,0.0,0.0,0.0,0.0,0.0,0.0,0.0,0.0,0.0,0.0,0.0,0.0,0.0,0.0,0.0,0.0,0.0,0.0,0.0,0.0,0.0,0.0,0.0,0.0,0.0,0.0,0.7388,0.7762,0.8419,0.0,0.0,0.0,0.0,0.0,0.0,0.5104,0.4432,0.0,0.0,0.0,0.0,0.0,0.0,0.0,0.0,0.0,0.0,0.0,0.0,0.0,0.0,0.0,0.0,0.0,0.0,0.0,0.0,0.0,0.0,0.0,0.0,0.0,0.0,0.0,0.0,0.0,0.0,0.0,0.0,0.0,0.0,0.0,0.0,0.0,0.0,0.0,0.0,0.0,0.0,0.0,0.0,0.0,0.0,0.0,0.0,0.0,0.0,0.0,0.0,0.0,0.0,0.0,1.0357,1.0026,1.0232,1.1006,1.0712,1.0561,1.0551,1.0505,0.9884,0.8808,0.0,0.0,0.0,0.0,0.0,0.0,0.0,0.0,0.0,0.0,0.0,0.0,0.0,0.0,0.0,0.0,0.0,0.0,0.0,0.0,0.0,0.0,0.0,0.0,0.0,0.0,0.0,0.0,0.0,0.0,0.0,0.0,0.0,0.0,0.0,0.0,0.0,0.0,0.0,0.7483,0.803,0.0,0.0,0.0,0.0,0.0,0.0,0.0,0.0,0.4894,0.0,0.0,0.0,0.0,0.0,0.0,0.0,0.0,0.0,0.0,0.0,0.0,0.0,0.0,0.0,0.0,0.0,0.0,0.0,0.0,0.0,0.0,0.0,0.0,0.0,0.0,0.0,0.0,0.0,0.0,0.0,0.0,0.0,0.0,0.0,0.0,0.0,0.0,0.0,0.0,0.0,0.0,0.0,0.0,0.0,0.0,0.0,0.0,0.0,0.0,0.0,0.0,0.0,0.0,0.0,0.0,0.7913,0.8248,1.0812,1.0575,1.0561,1.0564,1.0447,0.9947,0.8755,0.0,0.0,0.0,0.0,0.0,0.0,0.0,0.0,0.0,0.0,0.0,0.0,0.0,0.0,0.0,0.0,0.0,0.0,0.0,0.0,0.0,0.0,0.0,0.0,0.0,0.0,0.0,0.0,0.0,0.0,0.0,0.0,0.0,0.0,0.0,0.0,0.0,0.0,0.531,0.6421,0.0,0.0,0.0,0.0,0.0,0.0,0.0,0.0,0.7483,0.0,0.0,0.0,0.0,0.0,0.0,0.0,0.0,0.0,0.0,0.0,0.0,0.0,0.0,0.0,0.0,0.0,0.0,0.0,0.0,0.0,0.0,0.0,0.0,0.0,0.0,0.0,0.0,0.0,0.0,0.0,0.0,0.0,0.0,0.0,0.0,0.0,0.0,0.0,0.0,0.0,0.0,0.0,0.0,0.0,0.0,0.0,0.0,0.0,0.0,0.0,0.0,0.0,0.0,0.0,0.0,0.0,0.0,0.8959,1.0383,1.0416,1.0482,1.0457,1.053,0.9975,0.0,0.0,0.0,0.0,0.0,0.0,0.0,0.0,0.0,0.0,0.0,0.0,0.0,0.0,0.0,0.0,0.0,0.0,0.0,0.0,0.0,0.0,0.0,0.0,0.0,0.0,0.0,0.0,0.0,0.0,0.0,0.0,0.0,0.0,0.0,0.0,0.0,0.0,0.0,0.0,0.0,0.0,0.0,0.0,0.0,0.0,0.0,0.0,0.0,0.0,0.0,0.0,0.0,0.0,0.0,0.0,0.0,0.0,0.0,0.0,0.0,0.0,0.0,0.0,0.0,0.0,0.0,0.0,0.0,0.0,0.0,0.0,0.0,0.0,0.0,0.0,0.0,0.0,0.0,0.0,0.0,0.0,0.0,0.0,0.0,0.0,0.0,0.0,0.0,0.0,0.0,0.0,0.0,0.0,0.0,0.0,0.0,0.0,0.0,0.0,0.0,0.0,0.0,0.0,0.0,0.0,0.0,0.0,0.9771,0.9871,1.0278,1.0525,1.0458,1.0204,0.9534,0.0,0.0,0.0,0.0,0.0,0.0,0.0,0.0,0.0,0.0,0.0,0.0,0.0,0.0,0.0,0.0,0.0,0.0,0.0,0.0,0.0,0.0,0.0,0.0,0.0,0.0,0.0,0.0,0.0,0.0,0.0,0.0,0.0,0.0,0.0,0.0,0.0,0.0,0.0,0.0,0.0,0.0,0.0,0.0,0.0,0.0,0.0,0.0,0.7846,0.0,0.0,0.0,0.0,0.0,0.0,0.0,0.0,0.0,0.0,0.0,0.0,0.0,0.0,0.0,0.0,0.0,0.0,0.0,0.0,0.0,0.0,0.0,0.0,0.0,0.0,0.0,0.0,0.0,0.0,0.0,0.0,0.0,0.0,0.0,0.0,0.0,0.0,0.0,0.0,0.0,0.0,0.0,0.0,0.0,0.0,0.0,0.0,0.0,0.0,0.0,0.0,0.0,0.0,0.0,0.0,0.0,0.0,0.0,0.9421,0.9962,1.0265,1.0552,1.0523,0.9531,0.8341,0.0,0.0,0.0,0.0,0.0,0.0,0.0,0.0,0.0,0.0,0.0,0.0,0.0,0.0,0.0,0.0,0.0,0.0,0.0,0.0,0.0,0.0,0.0,0.0,0.0,0.0,0.0,0.0,0.0,0.0,0.0,0.0,0.0,0.0,0.0,0.0,0.0,0.0,0.0,0.0,0.0,0.0,0.0,0.0,0.0,0.0,0.0,0.0,0.0,0.0,0.0,0.0,0.0,0.0,0.0,0.0,0.0,0.0,0.0,0.0,0.0,0.0,0.0,0.0,0.0,0.0,0.0,0.0,0.0,0.0,0.0,0.0,0.0,0.0,0.0,0.0,0.0,0.0,0.0,0.0,0.0,0.0,0.0,0.0,0.0,0.0,0.0,0.0,0.0,0.0,0.0,0.0,0.0,0.0,0.0,0.0,0.0,0.0,0.0,0.0,0.0,0.0,0.0,0.0,0.0,0.0,0.0,0.0,0.8979,0.9223,0.9678,0.9831,0.9485,0.8656,0.7813,0.0,0.0,0.0,0.0,0.0,0.0,0.0,0.0,0.0,0.0,0.0,0.0,0.0,0.0,0.0,0.0,0.0,0.0,0.0,0.0,0.0,0.0,0.0,0.0,0.0,0.0,0.0,0.0,0.0,0.0,0.0,0.0,0.0,0.0,0.0,0.0,0.0,0.0,0.0,0.0,0.0,0.0,0.0,0.0,0.0,0.0,0.0,0.0,0.0,0.0,0.0,0.0,0.0,0.0,0.0,0.0,0.0,0.0,0.0,0.0,0.0,0.0,0.0,0.0,0.0,0.0,0.0,0.0,0.0,0.0,0.0,0.0,0.0,0.0,0.0,0.0,0.0,0.0,0.0,0.0,0.0,0.0,0.0,0.0,0.0,0.0,0.0,0.0,0.0,0.0,0.0,0.0,0.0,0.0,0.0,0.0,0.0,0.0,0.0,0.0,0.0,0.0,0.0,0.0,0.0,0.0,0.0,0.0,0.0,0.8783,0.9144,0.8986,0.8275,0.7372,0.6878,0.0,0.0,0.0,0.0,0.0,0.0,0.0,0.0,0.0,0.0,0.0,0.0,0.0,0.0,0.0,0.0,0.0,0.0,0.0,0.0,0.0,0.0,0.0,0.0,0.0,0.0,0.0,0.0,0.0,0.0,0.0,0.0,0.0,0.0,0.0,0.0,0.0,0.0,0.0,0.0,0.0,0.0,0.0,0.0,0.0,0.0,0.0,0.0,0.0,0.0,0.0,0.0,0.0,0.0,0.0,0.0,0.0,0.0,0.0,0.0,0.0,0.0,0.0,0.0,0.0,0.0,0.0,0.0,0.0,0.0,0.0,0.0,0.0,0.0,0.0,0.0,0.0,0.0,0.0,0.0,0.0,0.0,0.0,0.0,0.0,0.0,0.0,0.0,0.0,0.0,0.0,0.0,0.0,0.0,0.0,0.0,0.0,0.0,0.0,0.0,0.0,0.0,0.0,0.0,0.0,0.0,0.0,0.0,0.0,0.8663,0.8772,0.8201,0.7109,0.5481,0.5254,0.0,0.0,0.0,0.0,0.0,0.0,0.0,0.0,0.0,0.0,0.0,0.0,0.0,0.0,0.0,0.0,0.0,0.0,0.0,0.0,0.0,0.0,0.0,0.0,0.0,0.0,0.0,0.0,0.0,0.0,0.0,0.0,0.0,0.0,0.0,0.0,0.0,0.0,0.0,0.0,0.0,0.0,0.0,0.0,0.0,0.0,0.0,0.0,0.0,0.0,0.0,0.0,0.0,0.0,0.0,0.0,0.0,0.0,0.0,0.0,0.0,0.0,0.0,0.0,0.0,0.0,0.0,0.0,0.0,0.0,0.0,0.0,0.0,0.0,0.0,0.0,0.0,0.0,0.0,0.0,0.0,0.0,0.0,0.0,0.0,0.0,0.0,0.0,0.0,0.0,0.0,0.0,0.0,0.0,0.0,0.0,0.0,0.0,0.0,0.0,0.0,0.0,0.0,0.0,0.0,0.0,0.0,0.0,0.0,0.797,0.6364,0.605,0.7463,0.6486,0.4971,0.2695,0.0,0.0,0.0,0.0,0.0,0.0,0.0,0.0,0.0,0.0,0.0,0.0,0.0,0.0,0.0,0.0,0.0,0.0,0.0,0.0,0.0,0.0,0.0,0.0,0.0,0.0,0.0,0.0,0.0,0.0,0.0,0.0,0.0,0.0,0.0,0.0,0.0,0.0,0.0,0.0,0.0,0.0,0.0,0.0,0.0,0.0,0.0,0.0,0.0,0.0,0.0,0.0,0.0,0.0,0.0,0.0,0.0,0.0,0.0,0.0,0.0,0.0,0.0,0.0,0.0,0.0,0.0,0.0,0.0,0.0,0.0,0.0,0.0,0.0,0.0,0.0,0.0,0.0,0.0,0.0,0.0,0.0,0.0,0.0,0.0,0.0,0.0,0.0,0.0,0.0,0.0,0.0,0.0,0.0,0.0,0.0,0.0,0.0,0.0,0.0,0.0,0.0,0.0,0.0,0.0,0.0,0.0,0.0,0.5273,0.5183,0.5889,0.7351,0.5758,0.3331,0.0,0.0,0.0,0.0,0.0,0.0,0.0,0.0,0.0,0.0,0.0,0.0,0.0,0.0,0.0,0.0,0.0,0.0,0.0,0.0,0.0,0.0,0.0,0.0,0.0,0.0,0.0,0.0,0.0,0.0,0.0,0.0,0.0,0.0,0.0,0.0,0.0,0.0,0.0,0.0,0.0,0.0,0.0,0.0,0.0,0.0,0.0,0.0,0.0,0.0,0.0,0.0,0.0,0.0,0.0,0.0,0.0,0.0,0.0,0.0,0.0,0.0,0.0,0.0,0.0,0.0,0.0,0.0,0.0,0.0,0.0,0.0,0.0,0.0,0.0,0.0,0.0,0.0,0.0,0.0,0.0,0.0,0.0,0.0,0.0,0.0,0.0,0.0,0.0,0.0,0.0,0.0,0.0,0.0,0.0,0.0,0.0,0.0,0.0,0.0,0.0,0.0,0.0,0.0,0.0,0.0,0.0,0.0,0.4777,0.0649,0.5729,0.7862,0.6858,0.2586,-0.0,0.0,0.0,0.0,0.0,0.0,0.0,0.0,0.0,0.0,0.0,0.0,0.0,0.0,0.0,0.0,0.0,0.0,0.0,0.0,0.0,0.0,0.0,0.0,0.0,0.0,0.0,0.0,0.0,0.0,0.0,0.0,0.0,0.0,0.0,0.0,0.0,0.0,0.0,0.0,0.0,0.0,0.0,0.0,0.0,0.0,0.0,0.0,0.0,0.0,0.0,0.0,0.0,0.0,0.0,0.0,0.0,0.0,0.0,0.0,0.0,0.0,0.0,0.0,0.0,0.0,0.0,0.0,0.0,0.0,0.0,0.0,0.0,0.0,0.0,0.0,0.0,0.0,0.0,0.0,0.0,0.0,0.0,0.0,0.0,0.0,0.0,0.0,0.0,0.0,0.0,0.0,0.0,0.0,0.0,0.0,0.0,0.0,0.0,0.0,0.0,0.0,0.0,0.0,0.0,0.0,0.0,0.0,0.0,0.0,0.4782,0.0,0.5833,0.2443,0.0779,-0.0,0.0,0.0,0.0,0.0,0.0,0.0,0.0,0.0,0.0,0.0,0.0,0.0,0.0,0.0,0.0,0.0,0.0,0.0,0.0,0.0,0.0,0.0,0.0,0.0,0.0,0.0,0.0,0.0,0.0,0.0,0.0,0.0,0.0,0.0,0.0,0.0,0.0,0.0,0.0,0.0,0.0,0.0,0.0,0.0,0.0,0.0,0.0,0.0,0.0,0.0,0.0,0.0,0.0,0.0,0.0,0.0,0.0,0.0,0.0,0.0,0.0,0.0,0.0,0.0,0.0,0.0,0.0,0.0,0.0,0.0,0.0,0.0,0.0,0.0,0.0,0.0,0.0,0.0,0.0,0.0,0.0,0.0,0.0,0.0,0.0,0.0,0.0,0.0,0.0,0.0,0.0,0.0,0.0,0.0,0.0,0.0,0.0,0.0,0.0,0.0,0.0,0.0,0.0,0.0,0.0,0.0,0.0,0.0,0.0,0.4313,0.4508,0.3055,-0.0,-0.0,-0.0,0.0,0.0,0.0,0.0,0.0,0.0,0.0,0.0,0.0,0.0,0.0,0.0,0.0,0.0,0.0,0.0,0.0,0.0,0.0,0.0,0.0,0.0,0.0,0.0,0.0,0.0,0.0,0.0,0.0,0.0,0.0,0.0,0.0,0.0,0.0,0.0,0.0,0.0,0.0,0.0,0.0,0.0,0.0,0.0,0.0,0.0,0.0,0.0,0.0,0.0,0.0,0.0,0.0,0.0,0.0,0.0,0.0,0.0,0.0,0.0,0.0,0.0,0.0,0.0,0.0,0.0,0.0,0.0,0.0,0.0,0.0,0.0,0.0,0.0,0.0,0.0,0.0,0.0,0.0,0.0,0.0,0.0,0.0,0.0,0.0,0.0,0.0,0.0,0.0,0.0,0.0,0.0,0.0,0.0,0.0,0.0,0.0,0.0,0.0,0.0,0.0,0.0,0.0,0.0,0.0,0.0,0.0,0.0,0.0,-0.0,-0.0,-0.0,-0.0,-0.0,-0.0,0.0,0.0,0.0,0.0,0.0,0.0,0.0,0.0,0.0,0.0,0.0,0.0,0.0,0.0,0.0,0.0,0.0,0.0,0.0,0.0,0.0,0.0,0.0,0.0,0.0,0.0,0.0,0.0,0.0,0.0,0.0,0.0,0.0,0.0,0.0,0.0,0.0,0.0,0.0,0.0,0.0,0.0,0.0,0.0,0.0,0.0,0.0,0.0,0.0,0.0,0.0,0.0,0.0,0.0,0.0,0.0,0.0,0.0,0.0,0.0,0.0,0.0,0.0,0.0,0.0,0.0,0.0,0.0,0.0,0.0,0.0,0.0,0.0,0.0,0.0,0.0,0.0,0.0,0.0,0.0,0.0,0.0,0.0,0.0,0.0,0.0,0.0,0.0,0.0,0.0,0.0,0.0,0.0,0.0,0.0,0.0,0.0,0.0,0.0,0.0,0.0,0.0,0.0,0.0,0.0,0.0,0.0,0.0,0.0,0.0,-0.0,-0.0,-0.0,-0.0,-0.0,-0.0,0.0,0.0,0.0,0.0,0.0,0.0,0.0,0.0,0.0,0.0,0.0,0.0,0.0,0.0,0.0,0.0,0.0,0.0,0.0,0.0,0.0,0.0,0.0,0.0,0.0,0.0,0.0,0.0,0.0,0.0,0.0,0.0,0.0,0.0,0.0,0.0,0.0,0.0,0.0,0.0,0.0,0.0,0.0,0.0,0.0,0.0,0.0,0.0,0.0,0.0,0.0,0.0,0.0,0.0,0.0,0.0,0.0,0.0,0.0,0.0,0.0,0.0,0.0,0.0,0.0,0.0,0.0,0.0,0.0,0.0,0.0,0.0,0.0,0.0,0.0,0.0,0.0,0.0,0.0,0.0,0.0,0.0,0.0,0.0,0.0,0.0,0.0,0.0,0.0,0.0,0.0,0.0,0.0,0.0,0.0,0.0,0.0,0.0,0.0,0.0,0.0,0.0,0.0,0.0,0.0,0.0,0.0,0.0,0.0,0.0,-0.0,-0.0,-0.0,-0.0,0.0,0.0,0.0,0.0,0.0,0.0,0.0,0.0,0.0,0.0,0.0,0.0,0.0,0.0,0.0,0.0,0.0,0.0,0.0,0.0,0.0,0.0,0.0,0.0,0.0,0.0,0.0,0.0,0.0,0.0,0.0,0.0,0.0,0.0,0.0,0.0,0.0,0.0,0.0,0.0,0.0,0.0,0.0,0.0,0.0,0.0,0.0,0.0,0.0,0.0,0.0,0.0,0.0,0.0,0.0,0.0,0.0,0.0,0.0,0.0,0.0,0.0,0.0,0.0,0.0,0.0,0.0,0.0,0.0,0.0,0.0,0.0,0.0,0.0,0.0,0.0,0.0,0.0,0.0,0.0,0.0,0.0,0.0,0.0,0.0,0.0,0.0,0.0,0.0,0.0,0.0,0.0,0.0,0.0,0.0,0.0,0.0,0.0,0.0,0.0,0.0,0.0,0.0,0.0,0.0,0.0,0.0,0.0,0.0,0.0,0.0,-0.0,-0.0,-0.0,0.0,-0.0,0.0,0.0,0.0,0.0,0.0,0.0,0.0,0.0,0.0,0.0,0.0,0.0,0.0,0.0,0.0,0.0,0.0,0.0,0.0,0.0,0.0,0.0,0.0,0.0,0.0,0.0,0.0,0.0,0.0,0.0,0.0,0.0,0.0,0.0,0.0,0.0,0.0,0.0,0.0,0.0,0.0,0.0,0.0,0.0,0.0,0.0,0.0,0.0,0.0,0.0,0.0,0.0,0.0,0.0,0.0,0.0,0.0,0.0,0.0,0.0,0.0,0.0,0.0,0.0,0.0,0.0,0.0,0.0,0.0,0.0,0.0,0.0,0.0,0.0,0.0,0.0,0.0,0.0,0.0,0.0,0.0,0.0,0.0,0.0,0.0,0.0,0.0,0.0,0.0,0.0,0.0,0.0,0.0,0.0,0.0,0.0,0.0,0.0,0.0,0.0,0.0,0.0,0.0,0.0,0.0,0.0,0.0,0.0,0.0,0.0,0.0,0.0,-0.0,-0.0,-0.0,0.0,0.0,0.0,0.0,0.0,0.0,0.0,0.0,0.0,0.0,0.0,0.0,0.0,0.0,0.0,0.0,0.0,0.0,0.0,0.0,0.0,0.0,0.0,0.0,0.0,0.0,0.0,0.0,0.0,0.0,0.0,0.0,0.0,0.0,0.0,0.0,0.0,0.0,0.0,0.0,0.0,0.0,0.0,0.0,0.0,0.0,0.0,0.0,0.0,0.0,0.0,0.0,0.0,0.0,0.0,0.0,0.0,0.0,0.0,0.0,0.0,0.0,0.0,0.0,0.0,0.0,0.0,0.0,0.0,0.0,0.0,0.0,0.0,0.0,0.0,0.0,0.0,0.0,0.0,0.0,0.0,0.0,0.0,0.0,0.0,0.0,0.0,0.0,0.0,0.0,0.0,0.0,0.0,0.0,0.0,0.0,0.0,0.0,0.0,0.0,0.0,0.0,0.0,0.0,0.0,0.0,0.0,0.0,0.0,0.0,-0.0,-0.0,-0.0,-0.0,-0.0,0.0,0.0,0.0,0.0,0.0,0.0,0.0,0.0,0.0,0.0,0.0,0.0,0.0,0.0,0.0,0.0,0.0,0.0,0.0,0.0,0.0,0.0,0.0,0.0,0.0,0.0,0.0,0.0,0.0,0.0,0.0,0.0,0.0,0.0,0.0,0.0,0.0,0.0,0.0,0.0,0.0,0.0,0.0,0.0,0.0,0.0,0.0,0.0,0.0,0.0,0.0,0.0,0.0,0.0,0.0,0.0,0.0,0.0,0.0,0.0,0.0,0.0,0.0,0.0,0.0,0.0,0.0,0.0,0.0,0.0,0.0,0.0,0.0,0.0,0.0,0.0,0.0,0.0,0.0,0.0,0.0,0.0,0.0,0.0,0.0,0.0,0.0,0.0,0.0,0.0,0.0,0.0,0.0,0.0,0.0,0.0,0.0,0.0,0.0,0.0,0.0,0.0,0.0,0.0,0.0,0.0,0.0,0.0,0.0,0.0,0.0,0.0,0.0,0.0,-0.0,0.0,0.0,0.0,0.0,0.0,0.0,0.0,0.0,0.0,0.0,0.0,0.0,0.0,0.0,0.0,0.0,0.0,0.0,0.0,0.0,0.0,0.0,0.0,0.0,0.0,0.0,0.0,0.0,0.0,0.0,0.0,0.0,0.0,0.0,0.0,0.0,0.0,0.0,0.0,0.0,0.0,0.0,0.0,0.0,0.0,0.0,0.0,0.0,0.0,0.0,0.0,0.0,0.0,0.0,0.0,0.0,0.0,0.0,0.0,0.0,0.0,0.0,0.0,0.0,0.0,0.0,0.0,0.0,0.0,0.0,0.0,0.0,0.0,0.0,0.0,0.0,0.0,0.0,0.0,0.0,0.0,0.0,0.0,0.0,0.0,0.0,0.0,0.0,0.0,0.0,0.0,0.0,0.0,0.0,0.0,0.0,0.0,0.0,0.0,0.0,0.0,0.0,0.0,0.0,0.0,0.0,0.0,0.0,0.0,0.0,0.0,0.0,0.0,0.0,0.0,0.0,0.0,0.0,0.0,0.0,0.0,0.0,0.0,0.0,0.0,0.0,0.0,0.0,0.0,0.0,0.0,0.0,0.0,0.0,0.0,0.0,0.0,0.0,0.0,0.0,0.0,0.0,0.0,0.0,0.0,0.0,0.0,0.0,0.0,0.0,0.0,0.0,0.0,0.0,0.0,0.0,0.0,0.0,0.0,0.0,0.0,0.0,0.0,0.0,0.0,0.0,0.0,0.0,0.0,0.0,0.0,0.0,0.0,0.0,0.0,0.0,0.0,0.0,0.0,0.0,0.0,0.0,0.0,0.0,0.0,0.0,0.0,0.0,0.0,0.0,0.0,0.0,0.0,0.0,0.0,0.0,0.0,0.0,0.0,0.0,0.0,0.0,0.0,0.0,0.0,0.0,0.0,0.0,0.0,0.0,0.0,0.0,0.0,0.0,0.0,0.0,0.0,0.0,0.0,0.0,0.0,0.0,0.0,0.0,0.0,0.0,0.0,0.0,0.0,0.0,0.0,0.0,0.0,0.0,0.0,0.0,0.0,0.0,0.0,0.0,0.0,0.0,0.0,0.0,0.0,0.0,0.0,0.0,0.0,0.0,0.0,0.0,0.0,0.0,0.0,0.0,0.0,0.0,0.0,0.0,0.0,0.0,0.0,0.0,0.0,0.0,0.0,0.0,0.0,0.0,0.0,0.0,0.0,0.0,0.0,0.0,0.0,0.0,0.0,0.0,0.0,0.0,0.0,0.0,0.0,0.0,0.0,0.0,0.0,0.0,0.0,0.0,0.0,0.0,0.0,0.0,0.0,0.0,0.0,0.0,0.0,0.0,0.0,0.0,0.0,0.0,0.0,0.0,0.0,0.0,0.0,0.0,0.0,0.0,0.0,0.0,0.0,0.0,0.0,0.0,0.0,0.0,0.0,0.0,0.0,0.0,0.0,0.0,0.0,0.0,0.0,0.0,0.0,0.0,0.0,0.0,0.0,0.0,0.0,0.0,0.0,0.0,0.0,0.0,0.0,0.0,0.0,0.0,0.0,0.0,0.0,0.0,0.0,0.0,0.0,0.0,0.0,0.0,0.0,0.0,0.0,0.0,0.0,0.0,0.0,0.0,0.0,0.0,0.0,0.0,0.0,0.0,0.0,0.0,0.0,0.0,0.0,0.0,0.0,0.0,0.0,0.0,0.0,0.0,0.0,0.0,0.0,0.0,0.0,0.0,0.0,0.0,0.0,0.0,0.0,0.0,0.0,0.0,0.0,0.0,0.0,0.0,0.0,0.0,0.0,0.0,0.0,0.0,0.0,0.0,0.0,0.0,0.0,0.0,0.0,0.0,0.0,0.0,0.0,0.0,0.0,0.0,0.0,0.0,0.0,0.0,0.0,0.0,0.0,0.0,0.0,0.0,0.0,0.0,0.0,0.0,0.0,0.0,0.0,0.0,0.0,0.0,0.0,0.0,0.0,0.0,0.0,0.0,0.0,0.0,0.0,0.0,0.0,0.0,0.0,0.0,0.0,0.0,0.0,0.0,0.0,0.0,0.0,0.0,0.0,0.0,0.0,0.0,0.0,0.0,0.0,0.0,0.0,0.0,0.0,0.0,0.0,0.0,0.0,0.0,0.0,0.0,0.0,0.0,0.0,0.0,0.0,0.0,0.0,0.0,0.0,0.0,0.0,0.0,0.0,0.0,0.0,0.0,0.0,0.0,0.0,0.0,0.0,0.0,0.0,0.0,0.0,0.0,0.0,0.0,0.0,0.0,0.0,0.0,0.0,0.0,0.0,0.0,0.0,0.0,0.0,0.0,0.0,0.0,0.0,0.0,0.0,0.0,0.0,0.0,0.0,0.0,0.0,0.0,0.0,0.0,0.0,0.0,0.0,0.0,0.0,0.0,0.0,0.0,0.0,0.0,0.0,0.0,0.0,0.0,0.0,0.0,0.0,0.0,0.0,0.0,0.0,0.0,0.0,0.0,0.0,0.0,0.0,0.0,0.0,0.0,0.0,0.0,0.0,0.0,0.0,0.0,0.0,0.0,0.0,0.0,0.0,0.0,0.0,0.0,0.0,0.0,0.0,0.0,0.0,0.0,0.0,0.0,0.0,0.0,0.0,0.0,0.0,0.0,0.0,0.0,0.0,0.0,0.0,0.0,0.0,0.0,0.0,0.0,0.0,0.0,0.0,0.0,0.0,0.0,0.0,0.0,0.0,0.0,0.0,0.0,0.0,0.0,0.0,0.0,0.0,0.0,0.0,0.0,0.0,0.0,0.0,0.0,0.0,0.0,0.0,0.0,0.0,0.0,0.0,0.0,0.0,0.0,0.0,0.0,0.0,0.0,0.0,0.0,0.0,0.0,0.0,0.0,0.0,0.0,0.0,0.0,0.0,0.0,0.0,0.0,0.0,0.0,0.0,0.0,0.0,0.0,0.0,0.0,0.0,0.0,0.0,0.0,0.0,0.0,0.0,0.0,0.0,0.0,0.0,0.0,0.0,0.0,0.0,0.0,0.0,0.0,0.0,0.0,0.0,0.0,0.0,0.0,0.0,0.0,0.0,0.0,0.0,0.0,0.0,0.0,0.0,0.0,0.0,0.0,0.0,0.0,0.0,0.0,0.0,0.0,0.0,0.0,0.0,0.0,0.0,0.0,0.0,0.0,0.0,0.0,0.0,0.0,0.0,0.0,0.0,0.0,0.0,0.0,0.0,0.0,0.0,0.0,0.0,0.0,0.0,0.0,0.0,0.0,0.0,0.0,0.0,0.0,0.0,0.0,0.0,0.0,0.0,0.0,0.0,0.0,0.0,0.0,0.0,0.0,0.0,0.0,0.0,0.0,0.0,0.0,0.0,0.0,0.0,0.0,0.0,0.0,0.0,0.0,0.0,0.0,0.0,0.0,0.0,0.0,0.0,0.0,0.0,0.0,0.0,0.0,0.0,0.0,0.0,0.0,0.0,0.0,0.0,0.0,0.0,0.0,0.0,0.0,0.0,0.0,0.0,0.0,0.0,0.0,0.0,0.0,0.0,0.0,0.0,0.0,0.0,0.0,0.0,0.0,0.0,0.0,0.0,0.0,0.0,0.0,0.0,0.0,0.0,0.0,0.0,0.0,0.0,0.0,0.0,0.0,0.0,0.0,0.0,0.0,0.0,0.0,0.0,0.0,0.0,0.0,0.0,0.0,0.0,0.0,0.0,0.0,0.0,0.0,0.0,0.0,0.0,0.0,0.0,0.0,0.0,0.0,0.0,0.0,0.0,0.0,0.0,0.0,0.0,0.0,0.0,0.0,0.0,0.0,0.0,0.0,0.0,0.0,0.0,0.0,0.0,0.0,0.0,0.0,0.0,0.0,0.0,0.0,0.0,0.0,0.0,0.0,0.0,0.0,0.0,0.0,0.0,0.0,0.0,0.0,0.0,0.0,0.0,0.0,0.0,0.0,0.0,0.0,0.0,0.0,0.0,0.0,0.0,0.0,0.0,0.0,0.0,0.0,0.0,0.0,0.0,0.0,0.0,0.0,0.0,0.0,0.0,0.0,0.0,0.0,0.0,0.0,0.0,0.0,0.0,0.0,0.0,0.0,0.0,0.0,0.0,0.0,0.0,0.0,0.0,0.0,0.0,0.0,0.0,0.0,0.0,0.0,0.0,0.0,0.0,0.0,0.0,0.0,0.0,0.0,0.0,0.0,0.0,0.0,0.0,0.0,0.0,0.0,0.0,0.0,0.0,0.0,0.0,0.0,0.0,0.0,0.0,0.0,0.0,0.0,0.0,0.0,0.0,0.0,0.0,0.0,0.0,0.0,0.0,0.0,0.0,0.0,0.0,0.0,0.0,0.0,0.0,0.0,0.0,0.0,0.0,0.0,0.0,0.0]}],[{"header":{"parameterUnit":"kt","parameterCategory":2,"dx":1,"dy":1,"la1":29.587661999999998,"la2":31.0,"lo1":-88.76705300000003,"lo2":-86.6583820000003,"nx":115,"ny":88,"refTime":"2022-10-27T18:00:00:Z","depth":0,"parameterNumber":2,"parameterNumberName":"V-component_of_WINDS"},"data":[-11.8186,-11.8186,-11.8186,-11.8186,-11.8186,-11.8186,-11.8186,-11.8186,-11.8186,-11.8186,-11.8186,-11.8186,-11.8186,-11.8186,-11.8186,-11.8224,-11.8493,-11.8956,-11.928,-11.9554,-11.9782,-11.9895,-11.9933,-11.9895,-11.906,-11.7769,-11.6213,-11.4314,-11.2834,-11.1125,-11.0062,-11.0062,-11.0062,-11.0062,-11.0062,-11.0062,-11.0062,-11.0062,-11.0062,-11.0062,-11.0062,-11.0062,-11.0062,-11.0062,-11.0062,-11.0062,-11.0062,-11.0062,-11.0062,-11.0062,-11.0062,-11.0062,-11.0062,-11.0062,-11.0062,-11.0062,-11.0062,-11.0062,-11.0062,-11.0062,-11.0062,-11.0062,-11.0062,-11.0062,-10.9986,-10.9873,-10.9873,-10.9835,-10.9797,-10.991,-10.991,-10.991,-10.9303,-10.9379,-10.9113,-10.9113,-10.8658,-10.8506,-10.8506,-10.8506,-10.8506,-10.8506,-10.8468,-10.843,-10.843,-10.9189,-10.9151,-10.9797,-10.9759,-10.991,-11.0062,-11.0062,-11.0062,-11.0062,-11.0062,-11.0062,-11.0062,-11.0062,-11.0062,-11.0062,-10.9569,-10.8506,-10.7481,-10.6266,-10.4443,-10.2507,-10.1216,-10.0305,-10.0153,-9.9888,-9.9888,-9.9888,-9.9888,-9.9888,-9.9888,-11.8186,-11.8186,-11.8186,-11.8186,-11.8186,-11.8186,-11.8186,-11.8186,-11.8186,-11.8186,-11.8186,-11.8186,-11.8186,-11.8186,-11.8186,-11.8224,-11.841,-11.8942,-11.9141,-11.9364,-11.9744,-11.9895,-11.9933,-11.9933,-11.9706,-11.8567,-11.6289,-11.4314,-11.2264,-11.1011,-11.0062,-11.0062,-11.0062,-11.0062,-11.0062,-11.0062,-11.0062,-11.0062,-11.0062,-11.0062,-11.0062,-11.0062,-11.0062,-11.0062,-11.0062,-11.0062,-11.0062,-11.0062,-11.0062,-11.0062,-11.0062,-11.0062,-11.0062,-11.0062,-11.0062,-11.0062,-11.0062,-11.0062,-11.0062,-11.0062,-11.0062,-11.0062,-11.0062,-11.0062,-11.0062,-11.0024,-11.0024,-10.9948,-10.9835,-10.9835,-10.9835,-10.9645,-10.8696,-10.8164,-10.7708,-10.7405,-10.6494,-10.5734,-10.5734,-10.5696,-10.5696,-10.5734,-10.5696,-10.562,-10.6228,-10.7367,-10.8088,-10.8809,-10.9417,-10.9531,-10.9873,-11.0062,-11.0062,-11.0062,-11.0062,-11.0062,-11.0062,-11.0062,-11.0062,-11.0062,-10.991,-10.9417,-10.8582,-10.7139,-10.5506,-10.3722,-10.2317,-10.0685,-10.0191,-9.9888,-9.9888,-9.9888,-9.9888,-9.9888,-9.9888,-11.8186,-11.8186,-11.8186,-11.8186,-11.8186,-11.8186,-11.8186,-11.8186,-11.8186,-11.8186,-11.8186,-11.8186,-11.8186,-11.8186,-11.8186,-11.8186,-11.8298,-11.8867,-11.9103,-11.9326,-11.963,-11.9895,-11.9933,-11.9933,-11.9933,-11.9098,-11.6517,-11.3783,-11.1315,-11.0252,-11.0062,-11.0062,-11.0062,-11.0062,-11.0062,-11.0062,-11.0062,-11.0062,-11.0062,-11.0062,-11.0062,-11.0062,-11.0062,-11.0062,-11.0062,-11.0062,-11.0062,-11.0062,-11.0062,-11.0062,-11.0062,-11.0062,-11.0062,-11.0062,-11.0062,-11.0062,-11.0062,-11.0062,-11.0062,-11.0062,-11.0062,-11.0062,-11.0062,-11.0062,-11.0062,-11.0062,-11.0062,-10.9379,-10.9265,-10.8582,-10.8582,-10.7974,-10.7063,-10.6494,-10.6076,-10.5658,-10.4899,-10.433,-10.433,-10.433,-10.4368,-10.433,-10.4292,-10.4292,-10.4823,-10.6,-10.7329,-10.8164,-10.8734,-10.9037,-10.9683,-11.0062,-11.0062,-11.0062,-11.0062,-11.0062,-11.0062,-11.0062,-11.0062,-11.0062,-11.0024,-10.9986,-10.9493,-10.7671,-10.5962,-10.4557,-10.2849,-10.0951,-10.0191,-9.9926,-9.9888,-9.9888,-9.9888,-9.9888,-9.9888,-11.8186,-11.8186,-11.8186,-11.8186,-11.8186,-11.8186,-11.8186,-11.8186,-11.8186,-11.8186,-11.8186,-11.8186,-11.8186,-11.8186,-11.8186,-11.8186,-11.8298,-11.8807,-11.9103,-11.9326,-11.9668,-11.9933,-11.9933,-11.9933,-11.9933,-11.8984,-11.7124,-11.4466,-11.2264,-11.0746,-11.0062,-11.0062,-11.0062,-11.0062,-11.0062,-11.0062,-11.0062,-11.0062,-11.0062,-11.0062,-11.0062,-11.0062,-11.0062,-11.0062,-11.0062,-11.0062,-11.0062,-11.0062,-11.0062,-11.0062,-11.0062,-11.0062,-11.0062,-11.0062,-11.0062,-11.0062,-11.0062,-11.0062,-11.0062,-11.0062,-11.0062,-11.0062,-11.0062,-11.0062,-11.0062,-11.0062,-10.9683,-10.8923,-10.8202,-10.7405,-10.6683,-10.5848,-10.5051,-10.4709,-10.433,-10.395,-10.357,-10.3494,-10.3494,-10.3494,-10.3532,-10.3494,-10.3418,-10.3608,-10.395,-10.4823,-10.6076,-10.7291,-10.7822,-10.8999,-10.9683,-11.0062,-11.0062,-11.0062,-11.0062,-11.0062,-11.0062,-11.0062,-11.0062,-11.0062,-11.0062,-10.9986,-10.9759,-10.805,-10.6607,-10.5317,-10.376,-10.171,-10.0419,-10.0001,-9.9888,-9.9888,-9.9888,-9.9888,-9.9888,-11.8186,-11.8186,-11.8186,-11.8186,-11.8186,-11.8186,-11.8186,-11.8186,-11.8186,-11.8186,-11.8186,-11.8186,-11.8186,-11.8186,-11.8186,-11.8186,-11.8336,-11.8762,-11.906,-11.9212,-11.963,-11.9895,-11.9933,-11.9933,-11.9933,-11.9364,-11.7883,-11.5719,-11.3973,-11.1695,-11.0062,-11.0062,-11.0062,-11.0062,-11.0062,-11.0062,-11.0062,-11.0062,-11.0062,-11.0062,-11.0062,-11.0062,-11.0062,-11.0062,-11.0062,-11.0062,-11.0062,-11.0062,-11.0062,-11.0062,-11.0062,-11.0062,-11.0062,-11.0062,-11.0062,-11.0062,-11.0062,-11.0062,-11.0062,-11.0062,-11.0062,-11.0062,-11.0062,-11.0062,-11.0062,-11.0062,-10.9151,-10.8316,-10.6152,-10.5089,-10.4861,-10.4178,-10.3342,-10.2849,-10.2583,-10.2279,-10.1938,-10.171,-10.1672,-10.1672,-10.1672,-10.1596,-10.1596,-10.1824,-10.209,-10.3039,-10.4368,-10.6076,-10.7291,-10.8961,-10.9645,-11.0062,-11.0062,-11.0062,-11.0062,-11.0062,-11.0062,-11.0062,-11.0062,-11.0062,-11.0062,-10.9986,-10.9948,-10.8885,-10.7708,-10.6342,-10.4709,-10.2963,-10.1444,-10.0571,-9.9888,-9.9888,-9.9888,-9.9888,-9.9888,-11.8186,-11.8186,-11.8186,-11.8186,-11.8186,-11.8186,-11.8186,-11.8186,-11.8186,-11.8186,-11.8186,-11.8186,-11.8186,-11.8186,-11.8186,-11.8186,-11.8224,-11.8657,-11.8984,-11.9174,-11.9516,-11.9744,-11.9895,-11.9933,-11.9933,-11.9364,-11.8263,-11.6744,-11.4466,-11.1961,-11.0062,-11.0062,-11.0062,-11.0062,-11.0062,-11.0062,-11.0062,-11.0062,-11.0062,-11.0062,-11.0062,-11.0062,-11.0062,-11.0062,-11.0062,-11.0062,-11.0062,-11.0062,-11.0062,-11.0062,-11.0062,-11.0062,-11.0062,-11.0062,-11.0062,-11.0062,-11.0062,-11.0062,-11.0062,-11.0062,-11.0062,-11.0062,-11.0062,-10.9986,-10.9986,-10.9759,-10.8772,-10.6949,-10.4633,-10.2887,-10.2773,-10.2583,-10.1786,-10.1064,-10.0875,-10.0647,-10.0343,-9.9963,-9.9888,-9.9888,-9.9888,-9.9888,-9.9888,-9.9963,-10.0533,-10.209,-10.3684,-10.5469,-10.7253,-10.8923,-10.9721,-11.0024,-11.0062,-11.0062,-11.0062,-11.0062,-11.0062,-11.0062,-11.0062,-11.0062,-11.0062,-11.0024,-10.9986,-10.9417,-10.8658,-10.6987,-10.5203,-10.3646,-10.2279,-10.0799,-9.9888,-9.9888,-9.9888,-9.9888,-9.9888,-11.8186,-11.8186,-11.8186,-11.8186,-11.8186,-11.8186,-11.8186,-11.8186,-11.8186,-11.8186,-11.8186,-11.8186,-11.8186,-11.8186,-11.8186,-11.8186,-11.8261,-11.8486,-11.8805,-11.9136,-11.944,-11.9668,-11.9857,-11.9933,-11.9933,-11.9516,-11.8681,-11.7238,-11.4922,-11.3289,-11.1581,-11.0176,-11.0062,-11.0062,-11.0062,-11.0062,-11.0062,-11.0062,-11.0062,-11.0062,-11.0062,-11.0062,-11.0062,-11.0062,-11.0062,-11.0062,-11.0062,-11.0062,-11.0062,-11.0062,-11.0062,-11.0062,-11.0062,-11.0062,-11.0062,-11.0062,-11.0062,-11.0062,-11.0062,-11.0062,-11.0062,-11.0062,-11.0062,-10.991,-10.9607,-10.9265,-10.8582,-10.5582,-10.2697,-10.171,-10.1368,-10.1216,-10.0723,-10.0381,-10.0343,-10.0229,-10.0153,-9.9888,-9.9888,-9.9888,-9.9888,-9.9888,-9.9888,-9.9926,-10.0381,-10.1824,-10.3494,-10.5431,-10.7253,-10.8961,-10.9873,-11.0024,-11.0062,-11.0062,-11.0062,-11.0062,-11.0062,-11.0062,-11.0062,-11.0062,-11.0062,-11.0062,-11.0062,-10.9797,-10.9379,-10.786,-10.5962,-10.4443,-10.3191,-10.1634,-10.0229,-10.0039,-9.9888,-9.9888,-9.9888,-11.8186,-11.8186,-11.8186,-11.8186,-11.8186,-11.8186,-11.8186,-11.8186,-11.8186,-11.8186,-11.8186,-11.8186,-11.8186,-11.8186,-11.8186,-11.8186,-11.8224,-11.841,-11.8753,-11.9133,-11.9375,-11.9668,-11.982,-11.9933,-11.9933,-11.9933,-11.9402,-11.7959,-11.5378,-11.4163,-11.2492,-11.0898,-11.0214,-11.0062,-11.0062,-11.0062,-11.0062,-11.0062,-11.0062,-11.0062,-11.0062,-11.0062,-11.0062,-11.0062,-11.0062,-11.0062,-11.0062,-11.0062,-11.0062,-11.0062,-11.0062,-11.0062,-11.0062,-11.0062,-11.0062,-11.0062,-11.0062,-11.0062,-11.0062,-11.0062,-11.0062,-11.0062,-11.0062,-10.9037,-10.8582,-10.8506,-10.6949,-10.4026,-10.1596,-10.0761,-10.0153,-10.0039,-9.9888,-9.9888,-9.9888,-9.9888,-9.9888,-9.9888,-9.9888,-9.9888,-9.9888,-9.9888,-9.9888,-10.0001,-10.0267,-10.1786,-10.3494,-10.5279,-10.6607,-10.8392,-10.991,-11.0062,-11.0062,-11.0062,-11.0062,-11.0062,-11.0062,-11.0062,-11.0062,-11.0062,-11.0062,-11.0062,-11.0062,-10.9986,-10.9873,-10.9113,-10.7519,-10.5886,-10.4216,-10.2621,-10.1102,-10.0647,-9.9888,-9.9888,-9.9888,-11.8186,-11.8186,-11.8186,-11.8186,-11.8186,-11.8186,-11.8186,-11.8186,-11.8186,-11.8186,-11.8186,-11.8186,-11.8186,-11.8186,-11.8186,-11.8186,-11.8186,-11.8298,-11.856,-11.9132,-11.9262,-11.9554,-11.982,-11.9933,-11.9933,-11.9933,-11.9668,-11.8908,-11.6517,-11.5567,-11.3783,-11.1809,-11.0594,-11.0252,-11.0062,-11.0062,-11.0062,-11.0062,-11.0062,-11.0062,-11.0062,-11.0062,-11.0062,-11.0062,-11.0062,-11.0062,-11.0062,-11.0062,-11.0062,-11.0062,-11.0062,-11.0062,-11.0062,-11.0062,-11.0062,-11.0062,-11.0062,-11.0062,-11.0062,-11.0062,-11.0062,-11.0062,-11.0062,-10.9189,-10.805,-10.7329,-10.5165,-10.3077,-10.1064,-10.0267,-10.0001,-10.0001,-9.9888,-9.9888,-9.9888,-9.9888,-9.9888,-9.9888,-9.9888,-9.9888,-9.9888,-9.9888,-9.9926,-10.0039,-10.0115,-10.1748,-10.3456,-10.4481,-10.5696,-10.805,-11.0024,-11.0062,-11.0062,-11.0062,-11.0062,-11.0062,-11.0062,-11.0062,-11.0062,-11.0062,-11.0062,-11.0062,-11.0062,-11.0024,-10.9986,-10.9607,-10.8544,-10.7101,-10.5051,-10.3342,-10.1976,-10.0951,-10.0039,-9.9888,-9.9888,-11.8186,-11.8186,-11.8186,-11.8186,-11.8186,-11.8186,-11.8186,-11.8186,-11.8186,-11.8186,-11.8186,-11.8186,-11.8186,-11.8186,-11.8186,-11.8186,-11.8186,-11.8186,-11.8523,-11.9132,-11.9186,-11.9516,-11.982,-11.9933,-11.9933,-11.9933,-11.982,-11.9022,-11.7466,-11.6592,-11.4846,-11.291,-11.1467,-11.0632,-11.0176,-11.0062,-11.0062,-11.0062,-11.0062,-11.0062,-11.0062,-11.0062,-11.0062,-11.0062,-11.0062,-11.0062,-11.0062,-11.0062,-11.0062,-11.0062,-11.0062,-11.0062,-11.0062,-11.0062,-11.0062,-11.0062,-11.0062,-11.0062,-11.0062,-11.0062,-11.0062,-11.0062,-10.9873,-10.8961,-10.7101,-10.581,-10.4064,-10.2014,-10.0419,-10.0115,-9.9888,-9.9888,-9.9888,-9.9888,-9.9888,-9.9888,-9.9888,-9.9888,-9.9888,-9.9888,-9.9888,-9.9888,-9.9888,-9.9963,-10.0077,-10.1292,-10.338,-10.4595,-10.5393,-10.7708,-11.0062,-11.0062,-11.0062,-11.0062,-11.0062,-11.0062,-11.0062,-11.0062,-11.0062,-11.0062,-11.0062,-11.0062,-11.0062,-11.0062,-11.0062,-11.0024,-10.9455,-10.8544,-10.619,-10.4178,-10.2811,-10.171,-10.0989,-10.0609,-10.0229,-11.8186,-11.8186,-11.8186,-11.8186,-11.8186,-11.8186,-11.8186,-11.8186,-11.8186,-11.8186,-11.8186,-11.8186,-11.8186,-11.8186,-11.8186,-11.8186,-11.8186,-11.8186,-11.8523,-11.903,-11.9212,-11.9516,-11.9782,-11.9933,-11.9933,-11.9933,-11.9857,-11.9212,-11.7693,-11.72,-11.5453,-11.3555,-11.2682,-11.1923,-11.029,-11.01,-11.0062,-11.0062,-11.0062,-11.0062,-11.0062,-11.0062,-11.0062,-11.0062,-11.0062,-11.0062,-11.0062,-11.0062,-11.0062,-11.0062,-11.0062,-11.0062,-11.0062,-11.0062,-11.0062,-11.0062,-11.0062,-11.0062,-11.0062,-11.0062,-11.0062,-11.0062,-11.0024,-10.8544,-10.6228,-10.5582,-10.5013,-10.0989,-10.0077,-9.9926,-9.9888,-9.9888,-9.9888,-9.9888,-9.9888,-9.9888,-9.9888,-9.9888,-9.9888,-9.9888,-9.9888,-9.9888,-9.9888,-9.9926,-10.0039,-10.1064,-10.3304,-10.4633,-10.5355,-10.7329,-10.9721,-11.0062,-11.0062,-11.0062,-11.0062,-11.0062,-11.0062,-11.0062,-11.0062,-11.0062,-11.0062,-11.0062,-11.0062,-11.0062,-11.0062,-11.0062,-10.9948,-10.9873,-10.8544,-10.6911,-10.4861,-10.2963,-10.209,-10.1444,-10.0609,-11.8186,-11.8186,-11.8186,-11.8186,-11.8186,-11.8186,-11.8186,-11.8186,-11.8186,-11.8186,-11.8186,-11.8186,-11.8186,-11.8186,-11.8186,-11.8186,-11.8186,-11.8224,-11.8597,-11.8945,-11.925,-11.9516,-11.9782,-11.9933,-11.9933,-11.9933,-11.9895,-11.9857,-11.8946,-11.7921,-11.6289,-11.496,-11.4201,-11.3213,-11.1847,-11.0784,-11.0062,-11.0062,-11.0062,-11.0062,-11.0062,-11.0062,-11.0062,-11.0062,-11.0062,-11.0062,-11.0062,-11.0062,-11.0062,-11.0062,-11.0062,-11.0062,-11.0062,-11.0062,-11.0062,-11.0062,-11.0062,-11.0062,-11.0062,-11.0062,-11.0062,-11.0062,-11.0024,-10.8202,-10.6304,-10.5886,-10.4481,-10.0647,-9.9888,-9.9888,-9.9888,-9.9888,-9.9888,-9.9888,-9.9888,-9.9888,-9.9888,-9.9888,-9.9888,-9.9888,-9.9888,-9.9888,-9.9888,-9.9926,-9.9963,-10.0571,-10.2621,-10.4026,-10.5165,-10.7291,-10.9493,-11.0062,-11.0062,-11.0062,-11.0062,-11.0062,-11.0062,-11.0062,-11.0062,-11.0062,-11.0062,-11.0062,-11.0062,-11.0062,-11.0062,-11.0062,-11.0024,-10.9986,-10.9607,-10.9189,-10.7405,-10.5165,-10.4102,-10.2317,-10.1368,-11.8186,-11.8186,-11.8186,-11.8186,-11.8186,-11.8186,-11.8186,-11.8186,-11.8186,-11.8186,-11.8186,-11.8186,-11.8186,-11.8186,-11.8186,-11.8186,-11.8186,-11.8186,-11.8597,-11.8988,-11.925,-11.9478,-11.9782,-11.9933,-11.9933,-11.9933,-11.9933,-11.9933,-11.9895,-11.906,-11.7466,-11.6175,-11.5226,-11.4163,-11.2568,-11.0898,-11.0214,-11.0062,-11.0062,-11.0062,-11.0062,-11.0062,-11.0062,-11.0062,-11.0062,-11.0062,-11.0062,-11.0062,-11.0062,-11.0062,-11.0062,-11.0062,-11.0062,-11.0062,-11.0062,-11.0062,-11.0062,-11.0062,-11.0062,-11.0062,-11.0062,-11.0062,-10.9835,-10.8582,-10.5469,-10.5544,-10.3722,-10.152,-9.9888,-9.9888,-9.9888,-9.9888,-9.9888,-9.9888,-9.9888,-9.9888,-9.9888,-9.9888,-9.9888,-9.9888,-9.9888,-9.9888,-9.9888,-9.9888,-9.9888,-10.0039,-10.1786,-10.357,-10.5469,-10.7481,-10.9151,-11.0062,-11.0062,-11.0062,-11.0062,-11.0062,-11.0062,-11.0062,-11.0062,-11.0062,-11.0062,-11.0062,-11.0062,-11.0062,-11.0062,-11.0062,-11.0062,-11.0062,-10.9948,-10.9683,-10.8582,-10.7215,-10.5393,-10.3456,-10.1862,-11.8186,-11.8186,-11.8186,-11.8186,-11.8186,-11.8186,-11.8186,-11.8186,-11.8186,-11.8186,-11.8186,-11.8186,-11.8186,-11.8186,-11.8186,-11.8186,-11.8186,-11.8186,-11.8597,-11.8988,-11.9212,-11.9478,-11.9782,-11.9933,-11.9933,-11.9933,-11.9933,-11.9933,-11.9857,-11.9554,-11.8832,-11.758,-11.6327,-11.4504,-11.2948,-11.1505,-11.0594,-11.0062,-11.0062,-11.0062,-11.0062,-11.0062,-11.0062,-11.0062,-11.0062,-11.0062,-11.0062,-11.0062,-11.0062,-11.0062,-11.0062,-11.0062,-11.0062,-11.0062,-11.0062,-11.0062,-11.0062,-11.0062,-11.0062,-11.0062,-11.0062,-11.0062,-10.9721,-10.8582,-10.5393,-10.5051,-10.3342,-10.0571,-9.9963,-9.9888,-9.9888,-9.9888,-9.9888,-9.9888,-9.9888,-9.9888,-9.9888,-9.9888,-9.9888,-9.9888,-9.9888,-9.9888,-9.9888,-9.9888,-9.9888,-9.9888,-10.1444,-10.2203,-10.4405,-10.6835,-10.8582,-11.0024,-11.0024,-11.0062,-11.0062,-11.0062,-11.0062,-11.0062,-11.0062,-11.0062,-11.0062,-11.0062,-11.0062,-11.0062,-11.0062,-11.0062,-11.0062,-11.0062,-11.0062,-11.0062,-10.9721,-10.8772,-10.7215,-10.5469,-10.3456,-11.8186,-11.8186,-11.8186,-11.8186,-11.8186,-11.8186,-11.8186,-11.8186,-11.8186,-11.8186,-11.8186,-11.8186,-11.8186,-11.8186,-11.8186,-11.8186,-11.8186,-11.8186,-11.856,-11.8988,-11.925,-11.944,-11.9782,-11.9933,-11.9933,-11.9933,-11.9933,-11.9933,-11.9933,-11.9895,-11.9744,-11.9288,-11.739,-11.5947,-11.439,-11.272,-11.1163,-11.0328,-11.0138,-11.0062,-11.0062,-11.0062,-11.0062,-11.0062,-11.0062,-11.0062,-11.0062,-11.0062,-11.0062,-11.0062,-11.0062,-11.0062,-11.0062,-11.0062,-11.0062,-11.0062,-11.0062,-11.0062,-11.0062,-11.0062,-11.0062,-11.0062,-10.9721,-10.8696,-10.5696,-10.4861,-10.357,-10.0229,-9.9926,-9.9888,-9.9888,-9.9888,-9.9888,-9.9888,-9.9888,-9.9888,-9.9888,-9.9888,-9.9888,-9.9888,-9.9888,-9.9888,-9.9888,-9.9888,-9.9888,-9.9888,-10.0343,-10.1027,-10.3229,-10.5848,-10.786,-10.9948,-10.9986,-11.0062,-11.0062,-11.0062,-11.0062,-11.0062,-11.0062,-11.0062,-11.0062,-11.0062,-11.0062,-11.0062,-11.0062,-11.0062,-11.0062,-11.0062,-11.0062,-11.0062,-10.9986,-10.9607,-10.9075,-10.7671,-10.5734,-11.8186,-11.8186,-11.8186,-11.8186,-11.8186,-11.8186,-11.8186,-11.8186,-11.8186,-11.8186,-11.8186,-11.8186,-11.8186,-11.8186,-11.8186,-11.8186,-11.8186,-11.8186,-11.8523,-11.9067,-11.9212,-11.9402,-11.982,-11.9933,-11.9933,-11.9933,-11.9933,-11.9933,-11.9933,-11.9933,-11.9933,-11.963,-11.8187,-11.6896,-11.5985,-11.3745,-11.2188,-11.1201,-11.0366,-11.0062,-11.0062,-11.0062,-11.0062,-11.0062,-11.0062,-11.0062,-11.0062,-11.0062,-11.0062,-11.0062,-11.0062,-11.0062,-11.0062,-11.0062,-11.0062,-11.0062,-11.0062,-11.0062,-11.0062,-11.0062,-11.0062,-11.0062,-10.9835,-10.8847,-10.657,-10.4747,-10.2583,-10.0153,-9.9926,-9.9888,-9.9888,-9.9888,-9.9888,-9.9888,-9.9888,-9.9888,-9.9888,-9.9888,-9.9888,-9.9888,-9.9888,-9.9888,-9.9888,-9.9888,-9.9888,-9.9888,-10.0191,-10.0875,-10.2621,-10.4975,-10.7139,-10.9303,-10.9683,-10.9986,-11.0062,-11.0062,-11.0062,-11.0062,-11.0062,-11.0062,-11.0062,-11.0062,-11.0062,-11.0062,-11.0062,-11.0062,-11.0062,-11.0062,-11.0062,-11.0062,-11.0062,-10.991,-10.9683,-10.843,-10.7025,-11.8186,-11.8186,-11.8186,-11.8186,-11.8186,-11.8186,-11.8186,-11.8186,-11.8186,-11.8186,-11.8186,-11.8186,-11.8186,-11.8186,-11.8186,-11.8186,-11.8186,-11.8186,-11.8448,-11.8948,-11.9136,-11.9402,-11.982,-11.9933,-11.9933,-11.9933,-11.9933,-11.9933,-11.9933,-11.9933,-11.9933,-11.9744,-11.8605,-11.7542,-11.6896,-11.4542,-11.2834,-11.2264,-11.086,-11.0062,-11.0062,-11.0062,-11.0062,-11.0062,-11.0062,-11.0062,-11.0062,-11.0062,-11.0062,-11.0062,-11.0062,-11.0062,-11.0062,-11.0062,-11.0062,-11.0062,-11.0062,-11.0062,-11.0062,-11.0062,-11.0062,-11.0062,-11.0062,-10.9113,-10.7177,-10.4823,-10.2431,-10.0267,-9.9888,-9.9888,-9.9888,-9.9888,-9.9888,-9.9888,-9.9888,-9.9888,-9.9888,-9.9888,-9.9888,-9.9888,-9.9888,-9.9888,-9.9888,-9.9888,-9.9888,-9.9888,-10.0077,-10.0799,-10.209,-10.4102,-10.6228,-10.7898,-10.862,-10.9683,-11.0062,-11.0062,-11.0062,-11.0062,-11.0062,-11.0062,-11.0062,-11.0062,-11.0062,-11.0062,-11.0062,-11.0062,-11.0062,-11.0062,-11.0062,-11.0062,-11.0062,-11.0062,-11.0062,-10.9151,-10.8012,-11.8186,-11.8186,-11.8186,-11.8186,-11.8186,-11.8186,-11.8186,-11.8186,-11.8186,-11.8186,-11.8186,-11.8186,-11.8186,-11.8186,-11.8186,-11.8186,-11.8186,-11.8186,-11.8373,-11.8727,-11.9022,-11.9326,-11.963,-11.982,-11.9933,-11.9933,-11.9933,-11.9933,-11.9933,-11.9933,-11.9933,-11.9744,-11.9706,-11.887,-11.7428,-11.5605,-11.3935,-11.2568,-11.0936,-11.01,-11.0062,-11.0062,-11.0062,-11.0062,-11.0062,-11.0062,-11.0062,-11.0062,-11.0062,-11.0062,-11.0062,-11.0062,-11.0062,-11.0062,-11.0062,-11.0062,-11.0062,-11.0062,-11.0062,-11.0062,-11.0062,-11.0024,-11.0024,-10.9037,-10.7329,-10.5165,-10.3001,-10.0647,-9.9888,-9.9888,-9.9888,-9.9888,-9.9888,-9.9888,-9.9888,-9.9888,-9.9888,-9.9888,-9.9888,-9.9888,-9.9888,-9.9888,-9.9888,-9.9888,-9.9888,-9.9888,-9.9926,-10.0647,-10.0989,-10.3077,-10.4975,-10.657,-10.805,-10.9227,-10.9986,-10.9986,-11.0062,-11.0062,-11.0062,-11.0062,-11.0062,-11.0062,-11.0062,-11.0062,-11.0062,-11.0062,-11.0062,-11.0062,-11.0062,-11.0062,-11.0062,-11.0062,-11.0062,-10.9417,-10.8734,-11.8186,-11.8186,-11.8186,-11.8186,-11.8186,-11.8186,-11.8186,-11.8186,-11.8186,-11.8186,-11.8186,-11.8186,-11.8186,-11.8186,-11.8186,-11.8186,-11.8186,-11.8186,-11.8336,-11.8582,-11.8965,-11.9293,-11.9554,-11.982,-11.9933,-11.9933,-11.9933,-11.9933,-11.9933,-11.9933,-11.9933,-11.9933,-11.9933,-11.9554,-11.8453,-11.6972,-11.5871,-11.4694,-11.2682,-11.1315,-11.1315,-11.0366,-11.01,-11.0062,-11.0062,-11.0062,-11.0062,-11.0062,-11.0062,-11.0062,-11.0062,-11.0062,-11.0062,-11.0062,-11.0062,-11.0062,-11.0062,-11.0062,-11.0062,-11.0062,-11.0062,-10.9948,-10.9151,-10.805,-10.6418,-10.4709,-10.2507,-10.0609,-9.9888,-9.9888,-9.9888,-9.9888,-9.9888,-9.9888,-9.9888,-9.9888,-9.9888,-9.9888,-9.9888,-9.9888,-9.9888,-9.9888,-9.9888,-9.9888,-9.9888,-9.9888,-9.9888,-9.9963,-10.0039,-10.19,-10.3912,-10.5544,-10.7177,-10.8544,-10.9835,-10.991,-11.0062,-11.0062,-11.0062,-11.0062,-11.0062,-11.0062,-11.0062,-11.0062,-11.0062,-11.0062,-11.0062,-11.0062,-11.0062,-11.0062,-11.0062,-11.0062,-11.0062,-10.9948,-10.9569,-11.8186,-11.8186,-11.8186,-11.8186,-11.8186,-11.8186,-11.8186,-11.8186,-11.8186,-11.8186,-11.8186,-11.8186,-11.8186,-11.8186,-11.8186,-11.8186,-11.8186,-11.8186,-11.8298,-11.8538,-11.8936,-11.9205,-11.9516,-11.9782,-11.9933,-11.9933,-11.9933,-11.9933,-11.9933,-11.9933,-11.9933,-11.9933,-11.9933,-11.9933,-11.9364,-11.8339,-11.7086,-11.6365,-11.3897,-11.2378,-11.1923,-11.0936,-11.0062,-11.0062,-11.0062,-11.0062,-11.0062,-11.0062,-11.0062,-11.0062,-11.0062,-11.0062,-11.0062,-11.0062,-11.0062,-11.0062,-11.0062,-11.0062,-11.0062,-11.0062,-11.0062,-10.9645,-10.862,-10.6911,-10.5241,-10.3532,-10.1938,-10.0495,-9.9888,-9.9888,-9.9888,-9.9888,-9.9888,-9.9888,-9.9888,-9.9888,-9.9888,-9.9888,-9.9888,-9.9888,-9.9888,-9.9888,-9.9888,-9.9888,-9.9888,-9.9888,-9.9888,-9.9888,-10.0115,-10.1482,-10.3191,-10.4747,-10.6342,-10.7974,-10.9607,-10.9797,-11.0062,-11.0062,-11.0062,-11.0062,-11.0062,-11.0062,-11.0062,-11.0062,-11.0062,-11.0062,-11.0062,-11.0062,-11.0062,-11.0062,-11.0062,-11.0062,-11.0062,-11.0024,-10.9797,-11.8186,-11.8186,-11.8186,-11.8186,-11.8186,-11.8186,-11.8186,-11.8186,-11.8186,-11.8186,-11.8186,-11.8186,-11.8186,-11.8186,-11.8186,-11.8186,-11.8186,-11.8186,-11.8186,-11.8373,-11.8905,-11.9163,-11.9364,-11.9706,-11.9933,-11.9933,-11.9933,-11.9933,-11.9933,-11.9933,-11.9933,-11.9933,-11.9933,-11.9933,-11.9592,-11.8339,-11.7618,-11.7276,-11.4542,-11.2796,-11.2492,-11.1011,-11.01,-11.0062,-11.0062,-11.0062,-11.0062,-11.0062,-11.0062,-11.0062,-11.0062,-11.0062,-11.0062,-11.0062,-11.0062,-11.0062,-11.0062,-11.0062,-11.0062,-11.0062,-10.9986,-10.9948,-10.8392,-10.6721,-10.4975,-10.3191,-10.1558,-10.0457,-9.9888,-9.9888,-9.9888,-9.9888,-9.9888,-9.9888,-9.9888,-9.9888,-9.9888,-9.9888,-9.9888,-9.9888,-9.9888,-9.9888,-9.9888,-9.9888,-9.9888,-9.9888,-9.9888,-10.0001,-10.0419,-10.1368,-10.2811,-10.433,-10.5848,-10.7443,-10.8999,-10.9531,-10.9986,-11.0062,-11.0062,-11.0062,-11.0062,-11.0062,-11.0062,-11.0062,-11.0062,-11.0062,-11.0062,-11.0062,-11.0062,-11.0062,-11.0062,-11.0062,-11.0062,-11.0062,-10.9986,-11.7754,-11.8186,-11.8186,-11.8186,-11.8186,-11.8186,-11.8186,-11.8186,-11.8186,-11.8186,-11.8186,-11.8186,-11.8186,-11.8186,-11.8186,-11.8186,-11.8186,-11.8186,-11.8186,-11.8336,-11.8837,-11.9183,-11.9288,-11.963,-11.9933,-11.9933,-11.9933,-11.9933,-11.9933,-11.9933,-11.9933,-11.9933,-11.9933,-11.9933,-11.9706,-11.9174,-11.8719,-11.8073,-11.5605,-11.3897,-11.3403,-11.1467,-11.0062,-11.0062,-11.0062,-11.0062,-11.0062,-11.0062,-11.0062,-11.0062,-11.0062,-11.0062,-11.0062,-11.0062,-11.0062,-11.0062,-11.0062,-11.0062,-11.0062,-10.9986,-10.9607,-10.8734,-10.7101,-10.5431,-10.376,-10.2052,-10.0723,-10.0153,-9.9888,-9.9888,-9.9888,-9.9888,-9.9888,-9.9888,-9.9888,-9.9888,-9.9888,-9.9888,-9.9888,-9.9888,-9.9888,-9.9888,-9.9888,-9.9888,-9.9888,-9.9888,-9.9888,-9.9926,-10.0381,-10.0647,-10.2165,-10.3684,-10.5241,-10.6683,-10.8202,-10.9151,-10.9493,-10.9683,-10.9797,-11.0024,-11.0024,-11.0062,-11.0062,-11.0062,-11.0062,-11.0062,-11.0062,-11.0062,-11.0062,-11.0062,-11.0062,-11.0062,-11.0062,-11.0062,-11.0062,-11.7091,-11.7916,-11.7879,-11.7989,-11.8186,-11.8186,-11.8186,-11.8186,-11.8186,-11.8186,-11.8186,-11.8186,-11.8186,-11.8186,-11.8186,-11.8186,-11.8186,-11.8186,-11.8186,-11.8298,-11.8867,-11.9173,-11.9364,-11.9706,-11.9933,-11.9933,-11.9933,-11.9933,-11.9933,-11.9933,-11.9933,-11.9933,-11.9933,-11.9933,-11.9933,-11.9782,-11.9933,-11.9364,-11.6668,-11.5036,-11.4314,-11.1809,-11.0062,-11.0062,-11.0062,-11.0062,-11.0062,-11.0062,-11.0062,-11.0062,-11.0062,-11.0062,-11.0062,-11.0062,-11.0062,-11.0062,-11.0062,-11.0062,-10.9948,-10.9569,-10.8847,-10.7557,-10.581,-10.3836,-10.2393,-10.0989,-10.0077,-9.9888,-9.9888,-9.9888,-9.9888,-9.9888,-9.9888,-9.9888,-9.9888,-9.9888,-9.9888,-9.9888,-9.9888,-9.9888,-9.9888,-9.9888,-9.9888,-9.9888,-9.9888,-9.9888,-9.9888,-9.9888,-9.9926,-9.9963,-10.1292,-10.2773,-10.4064,-10.4975,-10.657,-10.7936,-10.8468,-10.8885,-10.9531,-10.9986,-11.0024,-11.0062,-11.0062,-11.0062,-11.0062,-11.0062,-11.0062,-11.0062,-11.0062,-11.0062,-11.0062,-11.0062,-11.0062,-11.0062,-11.0062,-11.6084,-11.6951,-11.7016,-11.7441,-11.814,-11.8186,-11.8186,-11.8186,-11.8186,-11.8186,-11.8186,-11.8186,-11.8186,-11.8186,-11.8186,-11.8186,-11.8186,-11.8186,-11.8186,-11.8373,-11.8775,-11.9305,-11.9516,-11.982,-11.9933,-11.9933,-11.9933,-11.9933,-11.9933,-11.9933,-11.9933,-11.9933,-11.9933,-11.9933,-11.9933,-11.9933,-11.9933,-11.9174,-11.6592,-11.5112,-11.4201,-11.1809,-11.0138,-11.0062,-11.0062,-11.0062,-11.0062,-11.0062,-11.0062,-11.0062,-11.0062,-11.0062,-11.0062,-11.0062,-11.0062,-11.0062,-11.0062,-10.9986,-10.9797,-10.862,-10.7671,-10.6759,-10.433,-10.2545,-10.2052,-10.0837,-9.9888,-9.9888,-9.9888,-9.9888,-9.9888,-9.9888,-9.9888,-9.9888,-9.9888,-9.9888,-9.9888,-9.9888,-9.9888,-9.9888,-9.9888,-9.9888,-9.9888,-9.9888,-9.9888,-9.9888,-9.9888,-9.9888,-9.9888,-9.9926,-10.0761,-10.1938,-10.2697,-10.3456,-10.5013,-10.6683,-10.7329,-10.8202,-10.9037,-10.9379,-10.9417,-10.9797,-10.991,-11.0062,-11.0062,-11.0062,-11.0062,-11.0062,-11.0062,-11.0062,-11.0062,-11.0062,-11.0062,-11.0062,-11.0062,-11.5532,-11.678,-11.6852,-11.734,-11.814,-11.8186,-11.8186,-11.8186,-11.8186,-11.8186,-11.8186,-11.8186,-11.8186,-11.8186,-11.8186,-11.8186,-11.8186,-11.8186,-11.8186,-11.8261,-11.8635,-11.9145,-11.9668,-11.9857,-11.9933,-11.9933,-11.9933,-11.9933,-11.9933,-11.9933,-11.9933,-11.9933,-11.9933,-11.9933,-11.9895,-11.9933,-11.9516,-11.8225,-11.6365,-11.4504,-11.3555,-11.1239,-11.0176,-11.0062,-11.0062,-11.0062,-11.0062,-11.0062,-11.0062,-11.0062,-11.0062,-11.0062,-11.0062,-11.0062,-11.0062,-11.0062,-11.0024,-10.9531,-10.8696,-10.7974,-10.6645,-10.4709,-10.3494,-10.209,-10.1064,-10.0419,-9.9888,-9.9888,-9.9888,-9.9888,-9.9888,-9.9888,-9.9888,-9.9888,-9.9888,-9.9888,-9.9888,-9.9888,-9.9888,-9.9888,-9.9888,-9.9888,-9.9888,-9.9888,-9.9888,-9.9888,-9.9888,-9.9888,-9.9888,-9.9926,-10.0267,-10.0951,-10.1672,-10.2431,-10.3722,-10.5051,-10.5886,-10.7253,-10.8088,-10.824,-10.8582,-10.9265,-10.9607,-11.0024,-11.0024,-11.0062,-11.0062,-11.0062,-11.0062,-11.0062,-11.0062,-11.0062,-11.0062,-11.0062,-11.0062,-11.4804,-11.6451,-11.6492,-11.7118,-11.8094,-11.8186,-11.8186,-11.8186,-11.8186,-11.8186,-11.8186,-11.8186,-11.8186,-11.8186,-11.8186,-11.8186,-11.8186,-11.8186,-11.8186,-11.8224,-11.8523,-11.9107,-11.963,-11.9857,-11.9933,-11.9933,-11.9933,-11.9933,-11.9933,-11.9933,-11.9933,-11.9933,-11.9933,-11.9744,-11.9326,-11.9174,-11.8377,-11.682,-11.5226,-11.3745,-11.253,-11.0898,-11.0062,-11.0062,-11.0062,-11.0062,-11.0062,-11.0062,-11.0062,-11.0062,-11.0062,-11.0062,-11.0062,-11.0062,-11.0062,-10.991,-10.9607,-10.8734,-10.7633,-10.6607,-10.5013,-10.2735,-10.2014,-10.1216,-10.0001,-9.9888,-9.9888,-9.9888,-9.9888,-9.9888,-9.9888,-9.9888,-9.9888,-9.9888,-9.9888,-9.9888,-9.9888,-9.9888,-9.9888,-9.9888,-9.9888,-9.9888,-9.9888,-9.9888,-9.9888,-9.9888,-9.9888,-9.9888,-9.9888,-9.9926,-9.9926,-10.0419,-10.0761,-10.1444,-10.2241,-10.3494,-10.4709,-10.6076,-10.6494,-10.6532,-10.7139,-10.8088,-10.9037,-10.9873,-10.9759,-10.9986,-11.0024,-11.0024,-11.0062,-11.0062,-11.0062,-11.0062,-11.0062,-11.0062,-11.0062,-11.3843,-11.5502,-11.5579,-11.6638,-11.8103,-11.8186,-11.8186,-11.8186,-11.8186,-11.8186,-11.8186,-11.8186,-11.8186,-11.8186,-11.8186,-11.8186,-11.8186,-11.8149,-11.8074,-11.7999,-11.8545,-11.8823,-11.9136,-11.9668,-11.9782,-11.9744,-11.9744,-11.9744,-11.9364,-11.9402,-11.9895,-11.9516,-11.9364,-11.9098,-11.7807,-11.7542,-11.6782,-11.5226,-11.3631,-11.2758,-11.234,-11.086,-11.0062,-11.0062,-11.0062,-11.0062,-11.0062,-11.0062,-11.0062,-11.0062,-11.0062,-11.0062,-11.0062,-10.9986,-10.9873,-10.9759,-10.843,-10.7633,-10.6797,-10.4823,-10.2811,-10.2165,-10.1027,-9.9963,-10.0001,-9.9888,-9.9888,-9.9888,-9.9888,-9.9888,-9.9888,-9.9888,-9.9888,-9.9888,-9.9888,-9.9888,-9.9888,-9.9888,-9.9888,-9.9888,-9.9888,-9.9888,-9.9888,-9.9888,-9.9888,-9.9888,-9.9888,-9.9888,-9.9888,-9.9888,-9.9888,-9.9963,-10.0115,-10.0609,-10.0875,-10.2052,-10.2925,-10.3912,-10.414,-10.4443,-10.5013,-10.6494,-10.7708,-10.8847,-10.9493,-10.9797,-10.9986,-11.0024,-11.0062,-11.0062,-11.0062,-11.0062,-11.0062,-11.0062,-11.0024,-11.2897,-11.5343,-11.547,-11.6527,-11.8103,-11.8186,-11.8186,-11.8186,-11.8186,-11.8186,-11.8149,-11.8149,-11.8186,-11.8186,-11.8186,-11.8186,-11.8186,-11.8186,-11.7057,-11.5554,-11.672,-11.7569,-11.7769,-11.9136,-11.9478,-11.8529,-11.8339,-11.7845,-11.6972,-11.6896,-11.6896,-11.6896,-11.6858,-11.6554,-11.6061,-11.5909,-11.515,-11.3669,-11.2872,-11.2037,-11.1049,-11.0328,-11.0062,-11.0062,-11.0062,-11.0062,-11.0062,-11.0062,-11.0062,-11.0062,-11.0062,-11.0062,-10.9948,-10.9037,-10.843,-10.8126,-10.6911,-10.5431,-10.433,-10.3153,-10.2052,-10.0989,-10.0305,-9.9926,-9.9888,-9.9888,-9.9888,-9.9888,-9.9888,-9.9888,-9.9888,-9.9888,-9.9888,-9.9888,-9.9888,-9.9888,-9.9888,-9.9888,-9.9888,-9.9888,-9.9888,-9.9888,-9.9888,-9.9888,-9.9888,-9.9888,-9.9888,-9.9888,-9.9888,-9.9888,-9.9888,-9.9888,-9.9888,-9.9926,-9.9963,-10.0533,-10.1292,-10.1748,-10.2165,-10.2735,-10.3266,-10.4785,-10.6,-10.7063,-10.8164,-10.8354,-10.9151,-10.9379,-10.9341,-10.9986,-11.0062,-10.9721,-10.9303,-10.9493,-10.9189,-11.1219,-11.3515,-11.3866,-11.4899,-11.6143,-11.6571,-11.6645,-11.6645,-11.6683,-11.6683,-11.6653,-11.6691,-11.6691,-11.6653,-11.6691,-11.6653,-11.6653,-11.6586,-11.5501,-11.3961,-11.4971,-11.5758,-11.6099,-11.7428,-11.7731,-11.682,-11.6668,-11.6099,-11.534,-11.515,-11.5074,-11.5074,-11.515,-11.4808,-11.4352,-11.4277,-11.3479,-11.1961,-11.1771,-11.1239,-11.0176,-11.0062,-11.0062,-11.0062,-11.0062,-11.0062,-11.0062,-11.0062,-11.0062,-11.0062,-11.0062,-10.9759,-10.9151,-10.8126,-10.7291,-10.6645,-10.5127,-10.357,-10.2545,-10.1976,-10.1064,-10.0229,-9.9926,-9.9888,-9.9888,-9.9888,-9.9888,-9.9888,-9.9888,-9.9888,-9.9888,-9.9888,-9.9888,-9.9888,-9.9888,-9.9888,-9.9888,-9.9888,-9.9888,-9.9888,-9.9888,-9.9888,-9.9888,-9.9888,-9.9888,-9.9888,-9.9888,-9.9888,-9.9888,-9.9888,-9.9888,-9.9888,-9.9888,-9.9926,-9.9926,-10.0267,-10.0647,-10.0875,-10.114,-10.152,-10.1976,-10.2925,-10.3836,-10.4823,-10.5962,-10.6835,-10.7746,-10.8012,-10.7746,-10.805,-10.824,-10.8316,-10.8392,-10.8126,-10.7633,-10.8684,-10.9859,-11.0294,-11.1493,-11.2578,-11.3379,-11.3491,-11.3715,-11.3641,-11.3835,-11.3999,-11.3662,-11.3886,-11.3625,-11.3924,-11.3475,-11.3363,-11.3337,-11.3117,-11.293,-11.3491,-11.3899,-11.4125,-11.4732,-11.5074,-11.5264,-11.515,-11.4998,-11.4656,-11.458,-11.458,-11.4846,-11.4618,-11.3821,-11.2606,-11.2492,-11.1771,-11.0632,-11.0328,-11.0176,-11.0062,-11.0062,-11.0062,-11.0062,-11.0062,-11.0062,-11.0062,-11.0062,-11.0062,-11.0062,-10.9948,-10.9189,-10.7898,-10.7215,-10.6607,-10.5013,-10.338,-10.2545,-10.2165,-10.0913,-10.0153,-9.9888,-9.9888,-9.9888,-9.9888,-9.9888,-9.9888,-9.9888,-9.9888,-9.9888,-9.9888,-9.9888,-9.9888,-9.9888,-9.9888,-9.9888,-9.9888,-9.9888,-9.9888,-9.9888,-9.9888,-9.9888,-9.9888,-9.9888,-9.9888,-9.9888,-9.9888,-9.9888,-9.9888,-9.9888,-9.9888,-9.9888,-9.9888,-9.9888,-9.9888,-9.9888,-9.9963,-10.0039,-10.0305,-10.0457,-10.0989,-10.133,-10.2279,-10.2735,-10.3874,-10.4899,-10.5772,-10.638,-10.6114,-10.619,-10.5696,-10.5772,-10.6152,-10.6418,-10.6,-10.759,-10.9332,-10.9689,-11.0621,-11.1936,-11.2322,-11.2727,-11.3282,-11.3319,-11.3282,-11.3326,-11.3326,-11.3326,-11.3326,-11.3326,-11.2204,-11.0035,-10.9928,-10.989,-11.0003,-11.1354,-11.2046,-11.2353,-11.3542,-11.441,-11.4513,-11.3617,-11.2542,-11.1733,-11.1657,-11.1657,-11.1733,-11.1657,-11.1353,-11.0974,-11.0822,-11.0632,-11.0176,-11.0062,-11.0062,-11.0062,-11.0062,-11.0062,-11.0062,-11.0062,-11.0062,-11.0062,-11.0062,-11.0062,-10.9873,-10.8885,-10.8088,-10.7329,-10.5355,-10.3798,-10.3153,-10.1672,-10.0723,-10.0647,-10.0229,-9.9888,-9.9888,-9.9888,-9.9888,-9.9888,-9.9888,-9.9888,-9.9888,-9.9888,-9.9888,-9.9888,-9.9888,-9.9888,-9.9888,-9.9888,-9.9888,-9.9888,-9.9888,-9.9888,-9.9888,-9.9888,-9.9888,-9.9888,-9.9888,-9.9888,-9.9888,-9.9888,-9.9888,-9.9888,-9.9888,-9.9888,-9.9888,-9.9888,-9.9888,-9.9888,-9.9888,-9.9926,-9.9963,-10.0115,-10.0077,-10.0267,-10.0419,-10.0799,-10.1064,-10.1786,-10.2773,-10.3646,-10.4368,-10.4747,-10.5051,-10.4519,-10.395,-10.4405,-10.4671,-10.4633,-10.5839,-10.7268,-10.7554,-10.8267,-10.9332,-10.9958,-11.0564,-11.1082,-11.1381,-11.1494,-11.1531,-11.1494,-11.1494,-11.1494,-11.1494,-11.0297,-10.839,-10.8241,-10.8241,-10.8428,-10.9554,-11.0194,-11.0418,-11.1503,-11.2294,-11.2443,-11.1657,-11.0816,-11.0062,-11.0062,-11.0062,-11.0062,-11.0062,-11.0062,-11.0062,-11.0062,-11.0062,-11.0062,-11.0062,-11.0062,-11.0062,-11.0062,-11.0062,-11.0062,-11.0062,-10.9721,-10.9151,-10.9113,-10.8809,-10.8202,-10.7177,-10.6607,-10.6304,-10.395,-10.2203,-10.152,-10.0533,-9.9888,-9.9888,-9.9888,-9.9888,-9.9888,-9.9888,-9.9888,-9.9888,-9.9888,-9.9888,-9.9888,-9.9888,-9.9888,-9.9888,-9.9888,-9.9888,-9.9888,-9.9888,-9.9888,-9.9888,-9.9888,-9.9888,-9.9888,-9.9888,-9.9888,-9.9888,-9.9888,-9.9888,-9.9888,-9.9888,-9.9888,-9.9888,-9.9888,-9.9888,-9.9888,-9.9888,-9.9888,-9.9888,-9.9888,-9.9888,-9.9888,-9.9888,-9.9888,-9.9888,-10.0077,-10.0153,-10.0495,-10.0685,-10.1482,-10.1596,-10.2279,-10.2317,-10.2621,-10.2659,-10.2393,-10.3153,-10.2431,-10.2621,-10.3425,-10.3603,-10.4256,-10.4777,-10.4841,-10.6486,-10.7131,-10.7563,-10.8129,-10.839,-10.8502,-10.8465,-10.8353,-10.8465,-10.8615,-10.8315,-10.8241,-10.8241,-10.8241,-10.8278,-10.839,-10.8428,-10.8652,-10.8652,-10.8955,-10.9591,-10.9741,-10.9836,-11.0003,-10.9986,-11.0062,-11.0062,-11.0062,-11.0062,-11.0062,-11.0062,-11.0062,-11.0062,-11.0062,-11.0062,-11.0024,-10.9797,-10.9569,-10.9531,-10.9721,-10.8885,-10.7633,-10.7405,-10.6721,-10.5127,-10.4975,-10.4823,-10.4709,-10.3229,-10.1558,-10.0229,-9.9926,-9.9888,-9.9888,-9.9888,-9.9888,-9.9888,-9.9888,-9.9888,-9.9888,-9.9888,-9.9888,-9.9888,-9.9888,-9.9888,-9.9888,-9.9888,-9.9888,-9.9888,-9.9888,-9.9888,-9.9888,-9.9888,-9.9888,-9.9888,-9.9888,-9.9888,-9.9888,-9.9888,-9.9888,-9.9888,-9.9888,-9.9888,-9.9888,-9.9888,-9.9888,-9.9888,-9.9888,-9.9888,-9.9888,-9.9888,-9.9888,-9.9888,-9.9888,-9.9888,-9.9888,-9.9888,-9.9926,-10.0001,-10.0229,-10.0229,-10.0001,-10.0077,-10.0419,-10.0571,-10.0723,-10.0685,-10.1178,-10.0305,-10.0457,-10.3425,-10.346,-10.3639,-10.4078,-10.4706,-10.5799,-10.6557,-10.718,-10.7942,-10.8241,-10.8241,-10.8241,-10.8241,-10.8241,-10.8241,-10.8241,-10.8241,-10.8241,-10.8241,-10.8241,-10.8241,-10.8315,-10.8353,-10.8353,-10.8502,-10.8843,-10.918,-10.9457,-10.9732,-10.9947,-11.0062,-11.0062,-11.0062,-11.0062,-11.0062,-11.0062,-11.0062,-11.0024,-11.0062,-11.0062,-10.9683,-10.7633,-10.6342,-10.6342,-10.638,-10.6152,-10.5658,-10.5658,-10.5431,-10.4975,-10.376,-10.3115,-10.3077,-10.152,-10.0419,-9.9963,-9.9888,-9.9888,-9.9888,-9.9888,-9.9888,-9.9888,-9.9888,-9.9888,-9.9888,-9.9888,-9.9888,-9.9888,-9.9888,-9.9888,-9.9888,-9.9888,-9.9888,-9.9888,-9.9888,-9.9888,-9.9888,-9.9888,-9.9888,-9.9888,-9.9888,-9.9888,-9.9888,-9.9888,-9.9888,-9.9888,-9.9888,-9.9888,-9.9888,-9.9888,-9.9888,-9.9888,-9.9888,-9.9888,-9.9888,-9.9888,-9.9888,-9.9888,-9.9888,-9.9888,-9.9888,-9.9888,-9.9888,-9.9888,-9.9888,-9.9888,-9.9888,-9.9888,-10.0115,-9.9963,-10.0039,-10.0115,-9.9888,-9.9926,-9.9926,-10.1891,-10.2426,-10.2471,-10.3078,-10.4221,-10.541,-10.617,-10.6774,-10.7792,-10.8241,-10.8129,-10.682,-10.6296,-10.6296,-10.6259,-10.6296,-10.6296,-10.6259,-10.6296,-10.6293,-10.6293,-10.6293,-10.6367,-10.6928,-10.7418,-10.7568,-10.8731,-10.9306,-10.9484,-10.9833,-11.0062,-11.0062,-11.0062,-11.0062,-11.0062,-11.0062,-10.9645,-10.8999,-10.8961,-10.862,-10.7822,-10.6,-10.4937,-10.4937,-10.4937,-10.4671,-10.4026,-10.3912,-10.3608,-10.2887,-10.1976,-10.1368,-10.1368,-10.0495,-9.9888,-9.9888,-9.9888,-9.9888,-9.9888,-9.9888,-9.9888,-9.9888,-9.9888,-9.9888,-9.9888,-9.9888,-9.9888,-9.9888,-9.9888,-9.9888,-9.9888,-9.9888,-9.9888,-9.9888,-9.9888,-9.9888,-9.9888,-9.9888,-9.9888,-9.9888,-9.9888,-9.9888,-9.9888,-9.9888,-9.9888,-9.9888,-9.9888,-9.9888,-9.9888,-9.9888,-9.9888,-9.9888,-9.9888,-9.9888,-9.9888,-9.9888,-9.9888,-9.9888,-9.9888,-9.9888,-9.9888,-9.9888,-9.9888,-9.9888,-9.9888,-9.9888,-9.9888,-9.9888,-9.9888,-9.9888,-9.9888,-9.9888,-9.9888,-9.9888,-9.9888,-9.9607,-10.0749,-10.0872,-10.173,-10.3032,-10.4624,-10.5192,-10.5451,-10.7003,-10.7713,-10.7222,-10.4607,-10.3412,-10.3418,-10.353,-10.3567,-10.3567,-10.3418,-10.349,-10.3561,-10.3408,-10.3408,-10.3707,-10.5018,-10.5695,-10.596,-10.7684,-10.8472,-10.8542,-10.9107,-10.9493,-10.9569,-10.9569,-10.9417,-10.9455,-10.9455,-10.8772,-10.7291,-10.7139,-10.6228,-10.4633,-10.4519,-10.4481,-10.4481,-10.4443,-10.376,-10.2279,-10.2203,-10.152,-10.0077,-9.9963,-9.9926,-9.9926,-9.9926,-9.9812,-9.9584,-9.9622,-9.9622,-9.9432,-9.9622,-9.9622,-9.9698,-9.9736,-9.9888,-9.9888,-9.9584,-9.947,-9.966,-9.9774,-9.9888,-9.9888,-9.9888,-9.9888,-9.9888,-9.9888,-9.9888,-9.9888,-9.9888,-9.9888,-9.9888,-9.9888,-9.9888,-9.9888,-9.9888,-9.9888,-9.9888,-9.9888,-9.9888,-9.9888,-9.9888,-9.9888,-9.9888,-9.9888,-9.9888,-9.9888,-9.9888,-9.9888,-9.9888,-9.9888,-9.9888,-9.9888,-9.9888,-9.9888,-9.9888,-9.9888,-9.9888,-9.9888,-9.9888,-9.9888,-9.9888,-9.9888,-9.9888,-9.9888,-9.9888,-9.9888,-9.8965,-9.9286,-9.9329,-9.9429,-9.9929,-10.0873,-10.1284,-10.1449,-10.2956,-10.3568,-10.3519,-10.2887,-10.2853,-10.3378,-10.3418,-10.3382,-10.3422,-10.3385,-10.3385,-10.3384,-10.3384,-10.3382,-10.3452,-10.3751,-10.4016,-10.4128,-10.4876,-10.5316,-10.5409,-10.5844,-10.6114,-10.6076,-10.6114,-10.6076,-10.6076,-10.6114,-10.5924,-10.5506,-10.4216,-10.2773,-10.114,-10.1064,-10.1027,-10.1027,-10.1102,-10.0875,-10.0533,-10.0457,-10.0305,-9.9926,-9.9888,-9.9888,-9.9888,-9.9888,-9.9128,-9.7648,-9.7837,-9.7534,-9.6395,-9.7344,-9.8103,-9.8103,-9.9204,-9.9888,-9.9698,-9.7648,-9.666,-9.7989,-9.9204,-9.985,-9.9736,-9.9812,-9.9888,-9.9888,-9.9888,-9.985,-9.9888,-9.9888,-9.9888,-9.9888,-9.9888,-9.9888,-9.9888,-9.9888,-9.9888,-9.9888,-9.9888,-9.9888,-9.9888,-9.9888,-9.9888,-9.9888,-9.9888,-9.9888,-9.9888,-9.9888,-9.9888,-9.9888,-9.9888,-9.9888,-9.9888,-9.9888,-9.9888,-9.9888,-9.9888,-9.9888,-9.9888,-9.9888,-9.9888,-9.9888,-9.9888,-9.9888,-9.9888,-9.9888,-9.9888,-9.6967,-9.761,-9.7651,-9.805,-9.877,-9.9186,-9.9601,-9.9893,-9.9621,-9.9473,-9.9579,-10.0276,-10.082,-10.1212,-10.1174,-10.1213,-10.1176,-10.1176,-10.1176,-10.1176,-10.1176,-10.1214,-10.1249,-10.192,-10.2256,-10.2333,-10.342,-10.4018,-10.4014,-10.4535,-10.4745,-10.4817,-10.4907,-10.4937,-10.4937,-10.4937,-10.4557,-10.3798,-10.2165,-10.0837,-9.9926,-9.9888,-9.9888,-9.9888,-9.9888,-9.9888,-9.9888,-9.9888,-9.9888,-9.9888,-9.9888,-9.9888,-9.9888,-9.9242,-9.8179,-9.6736,-9.5787,-9.4876,-9.3927,-9.4041,-9.4421,-9.5256,-9.6774,-9.7382,-9.6623,-9.2826,-9.2143,-9.6053,-9.8597,-9.9318,-9.7837,-9.7686,-9.7989,-9.8787,-9.8862,-9.9128,-9.9736,-9.9888,-9.9888,-9.9888,-9.9888,-9.9888,-9.9888,-9.9888,-9.9888,-9.9888,-9.9888,-9.9888,-9.9888,-9.9888,-9.9888,-9.9888,-9.9888,-9.9888,-9.9888,-9.9888,-9.9888,-9.9888,-9.9888,-9.9888,-9.9888,-9.9888,-9.9888,-9.9888,-9.9888,-9.9888,-9.9888,-9.9888,-9.9888,-9.9888,-9.9888,-9.9888,-9.9888,-9.9888,-9.9888,-9.472,-9.608,-9.6049,-9.6806,-9.8066,-9.803,-9.8462,-9.8902,-9.6795,-9.594,-9.6171,-9.7593,-9.829,-9.8406,-9.8481,-9.852,-9.852,-9.852,-9.852,-9.852,-9.852,-9.852,-9.8594,-9.9939,-10.0574,-10.0688,-10.226,-10.3159,-10.3159,-10.3573,-10.3835,-10.3863,-10.4061,-10.4178,-10.4216,-10.4254,-10.3532,-10.2128,-10.0647,-9.9888,-9.9888,-9.9888,-10.0039,-10.0229,-10.0039,-10.0001,-10.0229,-10.0039,-10.0153,-10.0571,-10.0419,-10.0609,-10.114,-9.9014,-9.7002,-9.5673,-9.3054,-9.1345,-9.1042,-8.9561,-8.9325,-9.1004,-9.2902,-9.3168,-9.1193,-8.6903,-8.6941,-9.3282,-9.704,-9.7989,-9.5218,-9.4762,-9.5446,-9.6964,-9.723,-9.7724,-9.89,-9.9014,-9.8976,-9.8976,-9.9432,-9.9508,-9.947,-9.9736,-9.9888,-9.9888,-9.9888,-9.9888,-9.9888,-9.9888,-9.9888,-9.9888,-9.9888,-9.9888,-9.9888,-9.9888,-9.9888,-9.9888,-9.9888,-9.9888,-9.9888,-9.9888,-9.9888,-9.9888,-9.9888,-9.9888,-9.9888,-9.9888,-9.9888,-9.9888,-9.9888,-9.9888,-9.9888,-9.9888,-9.9888,-9.4078,-9.4327,-9.4292,-9.4509,-9.4723,-9.4759,-9.4874,-9.4912,-9.4518,0.0,0.0,-9.6227,-9.6994,-9.7631,-9.829,-9.852,-9.852,-9.852,-9.852,-9.852,-9.852,-9.852,-9.8557,-9.8819,-9.8968,-9.8968,-9.9567,-9.9792,-9.9792,-10.0091,-10.0278,-10.0237,-10.0409,-10.0495,-10.0495,-10.0723,-10.0685,-10.0343,-10.0039,-9.9888,-9.9888,-9.9888,-10.0571,-10.1938,-10.0647,-10.0571,-10.1938,-10.0685,-10.1178,-10.3836,-10.2735,-10.3874,-10.7671,-10.1482,-9.5673,-9.1459,-8.808,-8.565,-8.4284,-8.2713,-8.2526,-8.4055,-8.7055,-8.7511,-8.4436,-8.2196,-8.3145,-8.8384,-9.313,-9.5104,-9.3206,-9.2978,-9.3661,-9.5294,-9.5484,-9.5522,-9.5863,-9.5939,-9.5977,-9.6053,-9.7192,-9.7989,-9.8027,-9.9014,-9.9888,-9.9888,-9.9774,-9.9888,-9.9888,-9.985,-9.9774,-9.9888,-9.9888,-9.9888,-9.9888,-9.9888,-9.9888,-9.9888,-9.9888,-9.9888,-9.9888,-9.9888,-9.9888,-9.9888,-9.9888,-9.9888,-9.9888,-9.9888,-9.9888,-9.9888,-9.9888,-9.9888,-9.9888,-9.9888,-9.9888,-9.3935,-9.3935,-9.3935,-9.3935,0.0,-9.3935,-9.3935,-9.3935,-9.3935,-9.4303,-9.5177,-9.6283,-9.7044,-9.7456,-9.8209,-9.852,-9.852,-9.852,-9.852,-9.852,-9.852,-9.852,-9.852,-9.852,-9.852,-9.852,-9.8707,-9.8744,-9.8744,-9.9044,-9.9156,-9.9118,-9.9409,-9.9525,-9.9546,-9.9774,-9.9888,-9.9888,-9.9888,-9.9888,-9.9888,-9.9888,-10.0305,-10.1102,-10.0343,0.0,0.0,0.0,0.0,0.0,0.0,0.0,0.0,-9.7799,-9.1877,-8.7701,-8.5802,-8.3707,-8.1169,-8.0269,-7.9841,-7.9809,-8.22,-8.2309,-7.8931,-7.745,-7.931,-8.5537,-8.6865,-8.7435,-8.7397,-8.7397,-8.8422,-9.0852,-9.1193,-9.1611,-9.2408,-9.3244,-9.3737,-9.3927,-9.5256,-9.6281,-9.6281,-9.704,-9.7724,-9.8559,-9.8749,-9.9014,-9.9698,-9.928,-9.909,-9.9812,-9.9888,-9.9888,-9.9888,-9.9888,-9.9888,-9.9888,-9.9888,-9.9888,-9.9888,-9.9888,-9.9888,-9.9888,-9.9888,-9.9888,-9.9888,-9.9888,-9.9888,-9.9888,-9.9888,-9.9888,-9.9888,-9.9888,-9.9888,-9.3471,-9.3507,-9.3757,-9.3935,-9.3864,-9.3254,-9.3005,-9.3043,-9.304,-9.3371,-9.4054,-9.553,-9.6303,-9.6314,-9.7162,-9.7547,-9.7622,-9.7585,-9.7584,-9.766,-9.7959,-9.8071,-9.8108,-9.8407,-9.852,-9.852,-9.852,-9.852,-9.8557,-9.8781,-9.8856,-9.8894,-9.9231,-9.9428,-9.9477,0.0,0.0,0.0,-9.928,-9.9622,-9.9888,-9.9888,-10.0077,-10.0343,-9.9812,0.0,-9.9812,-9.8065,-9.723,-9.7458,-9.4345,0.0,-9.5977,0.0,0.0,0.0,0.0,0.0,0.0,0.0,0.0,0.0,-7.6402,-7.6369,-7.3408,-7.3423,-7.6235,-8.2309,-8.0449,-7.9424,-8.0867,-8.1019,-8.2385,-8.5612,-8.6106,-8.66,-8.8004,-8.9561,-9.0624,-9.0662,-9.2674,-9.4079,-9.4117,-9.4724,-9.5597,-9.6888,-9.7078,-9.761,-9.8749,-9.7837,-9.7572,-9.8711,-9.8749,-9.9014,-9.9432,-9.9736,-9.9888,-9.9888,-9.9888,-9.9888,-9.9888,-9.9888,-9.9888,-9.9888,-9.9888,-9.9888,-9.9888,-9.9888,-9.9888,-9.9888,-9.9888,-9.9888,-9.9888,-9.9888,-9.9888,-9.1866,-9.2008,-9.3364,-9.3935,-9.3646,-9.0963,-8.9828,-8.9832,-8.9826,-8.9858,-9.008,-9.1501,-9.2169,-9.2222,-9.3571,-9.4145,-9.4145,-9.4146,-9.4146,-9.4259,-9.5678,-9.6351,-9.6426,-9.7884,-9.852,-9.852,-9.852,-9.852,-9.852,-9.8594,-9.8594,-9.8594,-9.8931,-9.9154,-9.9236,-9.668,-9.5332,-9.537,-9.7002,-9.8559,-9.985,-9.9888,-10.0609,-10.19,-9.9356,-9.8521,-9.9736,-9.6964,-9.6053,-9.7382,-9.4383,-8.9523,-8.3107,-8.4511,-8.5385,0.0,-7.9285,0.0,0.0,0.0,0.0,0.0,0.0,0.0,0.0,-7.1428,-7.521,-7.6235,-7.4982,-7.4678,-7.5855,-7.5969,-7.7336,-8.0601,-8.1057,-8.1095,-8.136,-8.2765,-8.3714,-8.3676,-8.7814,-9.0662,-9.07,-9.3282,-9.5066,-9.5218,-9.518,-9.5294,-9.5635,-9.5522,-9.5484,-9.5597,-9.5673,-9.6509,-9.7686,-9.8976,-9.9736,-9.9812,-9.966,-9.9888,-9.9736,-9.9736,-9.9812,-9.9812,-9.9698,-9.9774,-9.9888,-9.985,-9.985,-9.9888,-9.9736,-9.966,-9.966,-9.966,-9.9888,-9.026,-9.0332,-9.101,-8.9797,-8.7404,-8.691,-8.6661,-8.6621,-8.6592,-8.6625,-8.6662,-8.7317,-8.7876,-8.8318,-8.969,-9.0273,-9.0278,-9.0675,-9.1306,-9.2238,-9.2949,-9.3772,-9.4632,-9.5417,-9.5753,-9.5715,-9.5753,-9.5753,-9.5753,-9.5753,-9.5753,-9.5753,-9.6015,-9.6201,-9.6196,-9.3139,-9.2072,-9.3129,-9.4093,-9.5912,-9.8483,-9.8597,-9.8976,-9.966,-9.742,-9.6053,-9.5787,-9.3509,-9.1725,-9.0586,-8.7397,-8.2234,-7.502,-7.7602,-8.0177,0.0,0.0,0.0,0.0,0.0,0.0,0.0,0.0,0.0,0.0,0.0,-7.0464,-6.9515,-7.0654,-7.1261,-7.0882,-7.2514,-7.3843,-7.4413,-7.5324,-7.5514,-7.4564,-7.6729,-7.8323,-7.8361,-8.2727,-8.5764,-8.5878,-8.8764,-9.1155,-9.2143,-9.1421,-9.1535,-9.3206,-9.3661,-9.4003,-9.4914,-9.5028,-9.5332,-9.6015,-9.6774,-9.723,-9.723,-9.723,-9.723,-9.723,-9.7192,-9.723,-9.723,-9.723,-9.7496,-9.8445,-9.8635,-9.8938,-9.9356,-9.8521,-9.7382,-9.723,-9.7951,-9.8635,-8.7371,-8.6871,-8.5395,-8.2928,-8.0148,-8.127,-8.1776,-8.1811,-8.2154,-8.2126,-8.1807,-8.2142,-8.2528,-8.2942,-8.4123,-8.4708,-8.4871,-8.568,-8.7037,-8.8824,-8.924,-9.0222,-9.1757,-9.2167,-9.2317,-9.235,-9.235,-9.2126,-9.1752,-9.1752,-9.2161,-9.287,-9.157,-9.0673,-9.028,-8.8641,-8.8355,-8.9499,-9.0791,-9.2861,-9.5537,-9.6418,-9.6817,-9.6784,-9.4765,-9.313,-9.1839,-8.9409,-8.6713,-8.3752,-8.0107,-7.5628,-7.016,-7.1181,0.0,0.0,0.0,0.0,0.0,0.0,0.0,0.0,0.0,-5.4305,-5.4295,0.0,-6.408,0.0,-6.6211,-6.7845,-6.6971,-6.9173,0.0,0.0,-7.1375,-7.1375,-7.016,-7.2249,-7.3653,-7.3274,-7.7602,-8.0826,-8.1214,-8.4201,-8.66,-8.7473,-8.7207,-8.7928,-9.0814,-9.1307,-9.1915,-9.3395,-9.3737,-9.4003,-9.4345,-9.4458,-9.4496,-9.4458,-9.4458,-9.4458,-9.4458,-9.4762,-9.5028,-9.5028,-9.5028,-9.5408,-9.6357,-9.6812,-9.7344,-9.7913,-9.5939,-9.3851,-9.3889,-9.518,-9.6357,-8.1948,-8.0192,-7.4474,-7.2691,-7.3586,-7.3743,-7.3825,-7.3907,-7.5354,-7.5128,-7.394,-7.5354,-7.5528,-7.4887,-7.5562,0.0,-7.665,-7.8147,-7.9968,-8.2124,-8.3611,-8.5152,-8.6758,-8.8287,-8.903,-8.8985,-8.9023,-8.8238,-8.6742,-8.6663,-8.8252,-9.1108,-8.5304,-8.1435,-8.0162,-8.2941,-8.3779,-8.2552,-8.7209,-8.978,-9.011,-9.2987,-9.4512,-9.451,-9.1527,-8.9783,-8.9485,-8.5043,-8.1702,-7.9918,-7.521,-7.1603,-6.9477,0.0,0.0,0.0,0.0,0.0,0.0,0.0,0.0,0.0,0.0,0.0,0.0,0.0,0.0,-5.7823,-6.1134,0.0,-6.4997,-6.5377,0.0,0.0,0.0,-7.0123,-7.0009,-7.0236,-6.9781,-6.8224,0.0,0.0,-7.7744,-8.0803,-8.2347,-8.1019,-8.3335,-8.5802,-8.7625,-8.789,-8.846,-9.013,-9.0396,-9.0966,-9.2143,-9.2446,-9.2408,-9.2408,-9.2712,-9.256,-9.256,-9.3661,-9.48,-9.461,-9.4952,-9.4724,-9.3813,-9.4193,-9.4914,-9.3851,-9.1877,-9.032,-9.0244,-9.1535,-9.275,-7.3966,-6.9786,-6.8279,-6.7496,-6.725,-6.8124,-6.9085,-7.0016,-7.0639,-7.0554,-7.0049,-7.1679,-7.1628,-7.0375,-7.061,0.0,0.0,0.0,-7.3385,-7.636,-7.7036,-7.8883,-8.1574,-8.2316,-8.2644,-8.2629,-8.2629,-8.233,-8.1657,-8.163,-8.1868,-8.2009,0.0,-7.5929,-7.7253,-7.767,-7.8052,-7.8648,-8.2592,-8.6171,-8.9108,-9.1516,-9.2279,-9.1332,-8.9094,-8.6492,-8.3539,-8.1462,-7.8289,-7.3736,-7.1605,-6.8319,0.0,0.0,0.0,0.0,0.0,0.0,0.0,0.0,0.0,0.0,0.0,-3.9627,-3.8688,0.0,0.0,0.0,-5.2522,-5.4851,-5.8514,-6.0721,0.0,0.0,0.0,0.0,0.0,0.0,0.0,-6.1732,-6.7592,-7.2209,-7.283,-7.4056,-7.5438,-7.6842,-7.9918,-8.2613,-8.4208,0.0,-8.6182,-8.6865,-8.6941,-8.7207,-8.7814,-8.7852,-8.787,-8.7929,-8.7958,-8.7966,-8.7966,-8.846,-8.8915,-8.8953,-8.8953,-8.9447,-9.1004,-8.8308,-8.6334,-8.7852,-8.5992,-8.4094,-8.4018,-8.6106,-8.7928,-6.4869,0.0,0.0,0.0,0.0,-6.1924,-6.3004,-6.4068,-6.4487,-6.4402,-6.4132,-6.5806,0.0,0.0,0.0,0.0,0.0,0.0,-6.815,-7.1654,-7.2323,-7.3988,-7.6601,-7.6601,-7.6632,-7.661,-7.661,-7.661,-7.6498,-7.4067,-7.2506,-7.202,0.0,0.0,0.0,0.0,-7.3525,-7.4449,-7.8157,-8.2324,-8.6696,-8.8529,-8.9165,-8.8496,-8.5957,-8.2704,-7.8741,-7.7237,-7.4254,-6.9618,-6.7599,0.0,0.0,0.0,0.0,0.0,0.0,0.0,0.0,0.0,0.0,0.0,0.0,0.0,0.0,0.0,0.0,0.0,0.0,0.0,-5.2176,-5.5749,-5.845,0.0,0.0,0.0,0.0,0.0,0.0,0.0,0.0,0.0,-6.6977,-6.7424,-6.9226,0.0,0.0,-7.8817,-8.1398,-8.2727,-8.379,-8.4777,-8.4824,0.0,-8.4786,-8.4377,-8.39,-8.3518,-8.3068,-8.2803,-8.2727,-8.3145,-8.3521,-8.3448,-8.3508,-8.3562,-8.4056,-8.0297,-7.8513,-8.0601,-7.9234,-7.726,-7.7298,-7.9766,-8.2082,0.0,0.0,0.0,0.0,-5.4284,0.0,0.0,0.0,-5.6152,-5.5969,0.0,-5.6344,0.0,0.0,0.0,0.0,-5.7653,-6.1022,0.0,0.0,-7.0257,-7.145,-7.1515,-7.1553,-7.1581,-7.1562,-7.1497,-7.146,-7.1011,-6.2826,-5.9589,0.0,0.0,0.0,0.0,0.0,-7.0697,-6.9517,-7.4157,-7.8212,-8.147,-8.3228,-8.476,-8.6032,-8.1582,-7.8255,-7.6401,-7.1983,-6.9282,-6.8945,-6.2938,0.0,0.0,0.0,0.0,0.0,0.0,0.0,0.0,0.0,0.0,0.0,0.0,0.0,0.0,0.0,0.0,0.0,0.0,0.0,0.0,-5.0543,0.0,0.0,0.0,0.0,0.0,0.0,0.0,0.0,0.0,-6.2105,-6.0303,-6.1596,-6.4495,-6.9435,0.0,0.0,0.0,0.0,-8.0981,-8.417,-8.4514,-8.4279,-8.4266,-8.3143,-8.1689,-8.0073,0.0,0.0,-7.745,-7.8931,-8.0027,-7.9859,-7.9886,-7.8209,-7.2059,-7.0844,-7.1261,-7.3312,-7.2135,-7.0426,-7.0426,-7.3236,-7.559,0.0,0.0,0.0,0.0,0.0,0.0,0.0,0.0,0.0,-5.1491,-5.1157,-5.2623,0.0,0.0,0.0,0.0,0.0,0.0,0.0,0.0,-6.2231,-6.4128,-6.4176,-6.6575,-6.6933,-6.5621,-6.4584,-6.3146,0.0,0.0,0.0,0.0,0.0,0.0,0.0,0.0,-6.7912,-6.7642,-7.3316,-7.7416,-7.9601,-8.233,-8.3489,-8.2928,-8.0199,-7.6946,-7.3235,-7.0478,-6.7999,0.0,0.0,0.0,0.0,0.0,0.0,0.0,0.0,0.0,0.0,0.0,0.0,0.0,0.0,0.0,0.0,0.0,0.0,0.0,0.0,0.0,0.0,0.0,-4.8874,0.0,0.0,0.0,0.0,0.0,0.0,0.0,0.0,0.0,-5.5075,-5.8209,-6.1297,-6.3162,-6.7651,-7.1413,-7.3236,0.0,0.0,0.0,0.0,0.0,0.0,0.0,-7.6468,-7.4872,-7.4147,-7.3405,-7.2407,-7.2895,-7.3325,-7.3229,0.0,0.0,-6.8183,-6.7849,-6.83,-6.8642,-6.8502,-6.7976,-6.6814,-6.9363,-7.1717,0.0,0.0,0.0,0.0,0.0,0.0,0.0,0.0,0.0,-4.5369,-4.5469,0.0,0.0,0.0,0.0,0.0,0.0,0.0,0.0,0.0,0.0,0.0,-5.7974,-6.0902,0.0,0.0,0.0,0.0,0.0,0.0,0.0,0.0,0.0,0.0,0.0,0.0,-6.4582,-6.4341,-7.0553,-7.4981,-7.7058,-7.9863,-8.1022,-8.0386,-7.7731,-7.4703,-7.143,0.0,0.0,0.0,0.0,0.0,0.0,0.0,0.0,0.0,0.0,0.0,0.0,0.0,0.0,0.0,0.0,0.0,0.0,0.0,0.0,0.0,0.0,0.0,0.0,0.0,-4.2135,0.0,0.0,0.0,0.0,0.0,0.0,0.0,0.0,0.0,0.0,-5.4372,-5.775,-5.959,-6.4089,-6.7843,-6.9609,-7.1611,-7.3311,0.0,0.0,-7.4104,0.0,0.0,0.0,0.0,0.0,0.0,0.0,0.0,0.0,0.0,-6.6657,-6.4503,-6.3319,-6.3116,-6.3171,-6.3134,0.0,0.0,0.0,0.0,0.0,0.0,0.0,0.0,0.0,0.0,0.0,0.0,0.0,0.0,0.0,-3.7491,0.0,0.0,-3.7603,0.0,0.0,0.0,0.0,0.0,0.0,0.0,0.0,0.0,0.0,0.0,0.0,0.0,0.0,0.0,0.0,0.0,0.0,0.0,0.0,0.0,0.0,-6.0822,-5.9313,-6.5927,-7.0731,-7.3768,-7.5488,-7.7096,-7.833,-7.3898,-7.1273,-7.0981,0.0,0.0,0.0,0.0,0.0,0.0,0.0,0.0,0.0,0.0,0.0,0.0,0.0,0.0,0.0,0.0,0.0,0.0,0.0,0.0,0.0,0.0,0.0,0.0,0.0,0.0,-3.5188,-3.7748,-4.1045,0.0,0.0,0.0,0.0,0.0,0.0,0.0,0.0,0.0,-5.8835,-6.0947,-6.3764,-6.8615,-6.9314,-7.0371,-7.3413,-7.3804,-7.313,-7.1338,-6.9992,-6.856,0.0,0.0,0.0,0.0,0.0,0.0,0.0,0.0,0.0,0.0,0.0,0.0,0.0,0.0,0.0,0.0,0.0,0.0,0.0,0.0,0.0,0.0,0.0,0.0,0.0,0.0,0.0,0.0,0.0,0.0,0.0,0.0,0.0,0.0,0.0,0.0,0.0,0.0,0.0,0.0,0.0,0.0,0.0,0.0,0.0,0.0,0.0,0.0,0.0,0.0,0.0,0.0,0.0,0.0,-5.9568,-5.9127,-6.6709,-7.1151,-7.2086,-7.3731,-7.4254,-7.3544,-7.2133,-6.918,-6.4657,0.0,0.0,0.0,0.0,0.0,0.0,0.0,0.0,0.0,0.0,0.0,0.0,0.0,0.0,0.0,0.0,0.0,0.0,0.0,0.0,0.0,0.0,0.0,0.0,0.0,0.0,0.0,-3.8957,-3.9508,-3.9401,0.0,0.0,0.0,0.0,0.0,0.0,0.0,0.0,0.0,0.0,-6.1126,-6.3858,-6.5164,-6.6216,-6.7147,-6.7107,-6.6765,-6.6216,-6.5804,-6.5007,-6.3408,0.0,0.0,0.0,0.0,0.0,0.0,0.0,0.0,0.0,0.0,0.0,0.0,0.0,0.0,0.0,0.0,0.0,0.0,0.0,0.0,0.0,0.0,0.0,0.0,0.0,0.0,0.0,0.0,0.0,0.0,0.0,0.0,0.0,0.0,0.0,0.0,0.0,0.0,0.0,0.0,0.0,0.0,0.0,0.0,0.0,0.0,0.0,0.0,0.0,0.0,0.0,0.0,0.0,-5.7831,-5.7379,-6.5903,-7.012,-6.9581,-7.1712,-7.216,-7.0478,-7.046,-6.7658,0.0,0.0,0.0,0.0,0.0,0.0,0.0,0.0,0.0,0.0,0.0,0.0,0.0,0.0,0.0,0.0,0.0,0.0,0.0,0.0,0.0,0.0,0.0,0.0,0.0,0.0,0.0,0.0,-3.6784,-3.7172,-3.616,0.0,0.0,0.0,0.0,0.0,0.0,0.0,0.0,0.0,0.0,-5.891,-6.063,-6.2351,0.0,0.0,-6.4122,-6.3871,-6.3187,-6.3062,-6.2276,-6.0046,-6.0233,0.0,0.0,0.0,0.0,0.0,0.0,0.0,0.0,0.0,0.0,0.0,0.0,0.0,0.0,0.0,0.0,0.0,0.0,0.0,0.0,0.0,0.0,0.0,0.0,0.0,0.0,0.0,0.0,0.0,0.0,0.0,0.0,0.0,0.0,0.0,0.0,0.0,0.0,0.0,0.0,0.0,0.0,0.0,0.0,0.0,0.0,0.0,0.0,0.0,0.0,0.0,0.0,-5.5602,-5.459,-6.386,-6.8075,-6.6652,-6.9543,-7.0441,-6.8945,-6.8939,-6.6522,0.0,0.0,0.0,0.0,0.0,0.0,0.0,0.0,0.0,0.0,0.0,0.0,0.0,0.0,0.0,0.0,0.0,0.0,0.0,0.0,0.0,0.0,0.0,0.0,0.0,0.0,0.0,0.0,0.0,0.0,0.0,0.0,0.0,0.0,0.0,0.0,0.0,0.0,0.0,0.0,0.0,-5.6772,-5.87,-6.0369,-6.2,0.0,-6.3858,-6.3394,-6.1566,-6.1266,-6.0182,-5.6951,0.0,0.0,0.0,0.0,0.0,0.0,0.0,0.0,0.0,0.0,0.0,0.0,0.0,0.0,0.0,0.0,0.0,0.0,0.0,0.0,0.0,0.0,0.0,0.0,0.0,0.0,0.0,0.0,0.0,0.0,0.0,0.0,0.0,0.0,0.0,0.0,0.0,0.0,0.0,0.0,0.0,0.0,0.0,0.0,0.0,0.0,0.0,0.0,0.0,0.0,0.0,0.0,0.0,0.0,-5.4404,-6.2727,-6.6927,-6.6578,-6.8534,-6.8833,-6.7188,-6.8358,0.0,0.0,0.0,0.0,0.0,0.0,0.0,0.0,0.0,0.0,0.0,0.0,0.0,0.0,0.0,0.0,0.0,0.0,0.0,0.0,0.0,0.0,0.0,0.0,0.0,0.0,0.0,-2.9163,0.0,0.0,0.0,0.0,0.0,0.0,0.0,0.0,0.0,0.0,0.0,0.0,0.0,0.0,-5.266,-5.6756,-5.7818,-5.8715,0.0,0.0,-6.0032,-5.8124,-5.8005,-5.7347,0.0,0.0,0.0,0.0,0.0,0.0,0.0,0.0,0.0,0.0,0.0,0.0,0.0,0.0,0.0,0.0,0.0,0.0,0.0,0.0,0.0,0.0,0.0,0.0,0.0,0.0,0.0,0.0,0.0,0.0,0.0,0.0,0.0,0.0,0.0,0.0,0.0,0.0,0.0,0.0,0.0,0.0,0.0,0.0,0.0,0.0,0.0,0.0,0.0,0.0,0.0,0.0,0.0,0.0,-5.2528,-5.4439,-6.1606,-6.5381,-6.5393,-6.6328,-6.6365,-6.543,-6.6328,-6.2864,0.0,0.0,0.0,0.0,0.0,0.0,0.0,0.0,0.0,0.0,0.0,0.0,0.0,0.0,0.0,0.0,0.0,0.0,0.0,0.0,0.0,0.0,0.0,0.0,0.0,0.0,0.0,0.0,0.0,0.0,0.0,0.0,0.0,0.0,0.0,0.0,0.0,0.0,0.0,0.0,0.0,0.0,-5.3072,-5.6024,0.0,0.0,0.0,-5.8536,-5.6023,0.0,0.0,0.0,0.0,0.0,0.0,0.0,0.0,0.0,0.0,0.0,0.0,0.0,0.0,0.0,0.0,0.0,0.0,0.0,0.0,0.0,0.0,0.0,0.0,0.0,0.0,0.0,0.0,0.0,0.0,0.0,0.0,0.0,0.0,0.0,0.0,0.0,0.0,0.0,0.0,0.0,0.0,0.0,0.0,0.0,0.0,0.0,0.0,0.0,0.0,0.0,0.0,0.0,0.0,0.0,0.0,0.0,-5.4397,-6.0275,-6.3561,-6.3935,-6.3972,-6.3935,-6.3935,-6.3772,-6.0723,0.0,0.0,0.0,0.0,0.0,0.0,0.0,0.0,0.0,0.0,0.0,0.0,0.0,0.0,0.0,0.0,0.0,0.0,0.0,0.0,0.0,0.0,0.0,0.0,0.0,0.0,0.0,0.0,0.0,0.0,0.0,0.0,0.0,0.0,0.0,0.0,0.0,0.0,0.0,0.0,0.0,-4.8604,-4.9372,-5.4363,-5.7093,0.0,0.0,-5.7457,-5.4587,-5.3934,0.0,0.0,0.0,0.0,0.0,0.0,0.0,0.0,0.0,0.0,0.0,0.0,0.0,0.0,0.0,0.0,0.0,0.0,0.0,0.0,0.0,0.0,0.0,0.0,0.0,0.0,0.0,0.0,0.0,0.0,0.0,0.0,0.0,0.0,0.0,0.0,0.0,0.0,0.0,0.0,0.0,0.0,0.0,0.0,0.0,0.0,0.0,0.0,0.0,0.0,0.0,0.0,0.0,0.0,0.0,0.0,-5.4173,-5.8075,-6.1358,-6.3823,-6.3935,-6.3935,-6.3922,-6.2738,-5.964,0.0,0.0,0.0,0.0,0.0,0.0,0.0,0.0,0.0,0.0,0.0,0.0,0.0,0.0,0.0,0.0,0.0,0.0,0.0,0.0,0.0,0.0,0.0,0.0,0.0,0.0,0.0,0.0,0.0,0.0,0.0,0.0,0.0,0.0,0.0,0.0,0.0,0.0,0.0,0.0,0.0,-4.5387,-5.0607,-5.1431,0.0,0.0,0.0,0.0,-5.2506,-5.0331,0.0,0.0,0.0,0.0,0.0,0.0,0.0,0.0,0.0,0.0,0.0,0.0,0.0,0.0,0.0,0.0,0.0,0.0,0.0,0.0,0.0,0.0,0.0,0.0,0.0,0.0,0.0,0.0,0.0,0.0,0.0,0.0,0.0,0.0,0.0,0.0,0.0,0.0,0.0,0.0,0.0,0.0,0.0,0.0,0.0,0.0,0.0,0.0,0.0,0.0,0.0,0.0,0.0,0.0,0.0,0.0,-5.4173,-5.6658,-5.9504,-6.2752,-6.2065,-6.2014,-6.2749,-6.0434,-5.725,0.0,0.0,0.0,0.0,0.0,0.0,0.0,0.0,0.0,0.0,0.0,0.0,0.0,0.0,0.0,0.0,0.0,0.0,0.0,0.0,0.0,0.0,0.0,0.0,0.0,0.0,0.0,0.0,0.0,0.0,0.0,0.0,0.0,0.0,0.0,0.0,0.0,0.0,0.0,0.0,-4.1373,-4.3466,-4.7746,0.0,0.0,0.0,0.0,0.0,0.0,-4.7564,-4.6029,0.0,0.0,0.0,0.0,0.0,0.0,0.0,0.0,0.0,0.0,0.0,0.0,0.0,0.0,0.0,0.0,0.0,0.0,0.0,0.0,0.0,0.0,0.0,0.0,0.0,0.0,0.0,0.0,0.0,0.0,0.0,0.0,0.0,0.0,0.0,0.0,0.0,0.0,0.0,0.0,0.0,0.0,0.0,0.0,0.0,0.0,0.0,0.0,0.0,0.0,0.0,0.0,0.0,0.0,0.0,-5.3912,-5.5442,-5.8027,-6.163,-5.9986,-5.9897,-6.1402,-5.8094,-5.4657,-5.1262,0.0,0.0,0.0,0.0,0.0,0.0,0.0,0.0,0.0,0.0,0.0,0.0,0.0,0.0,0.0,0.0,0.0,0.0,0.0,0.0,0.0,0.0,0.0,0.0,0.0,0.0,0.0,0.0,0.0,0.0,0.0,0.0,0.0,0.0,0.0,0.0,0.0,0.0,0.0,-3.9889,-4.1795,0.0,0.0,0.0,0.0,0.0,0.0,0.0,0.0,-4.3806,0.0,0.0,0.0,0.0,0.0,0.0,0.0,0.0,0.0,0.0,0.0,0.0,0.0,0.0,0.0,0.0,0.0,0.0,0.0,0.0,0.0,0.0,0.0,0.0,0.0,0.0,0.0,0.0,0.0,0.0,0.0,0.0,0.0,0.0,0.0,0.0,0.0,0.0,0.0,0.0,0.0,0.0,0.0,0.0,0.0,0.0,0.0,0.0,0.0,0.0,0.0,0.0,0.0,0.0,0.0,0.0,-5.3749,-5.6885,-6.1318,-5.9972,-5.9897,-6.1477,-5.7063,-5.3024,-4.9652,0.0,0.0,0.0,0.0,0.0,0.0,0.0,0.0,0.0,0.0,0.0,0.0,0.0,0.0,0.0,0.0,0.0,0.0,0.0,0.0,0.0,0.0,0.0,0.0,0.0,0.0,0.0,0.0,0.0,0.0,0.0,0.0,0.0,0.0,0.0,0.0,0.0,0.0,-3.3062,-3.5954,0.0,0.0,0.0,0.0,0.0,0.0,0.0,0.0,-4.2436,0.0,0.0,0.0,0.0,0.0,0.0,0.0,0.0,0.0,0.0,0.0,0.0,0.0,0.0,0.0,0.0,0.0,0.0,0.0,0.0,0.0,0.0,0.0,0.0,0.0,0.0,0.0,0.0,0.0,0.0,0.0,0.0,0.0,0.0,0.0,0.0,0.0,0.0,0.0,0.0,0.0,0.0,0.0,0.0,0.0,0.0,0.0,0.0,0.0,0.0,0.0,0.0,0.0,0.0,0.0,0.0,0.0,0.0,-5.5778,-5.8887,-5.9074,-5.9448,-6.0069,-5.5464,-5.1318,0.0,0.0,0.0,0.0,0.0,0.0,0.0,0.0,0.0,0.0,0.0,0.0,0.0,0.0,0.0,0.0,0.0,0.0,0.0,0.0,0.0,0.0,0.0,0.0,0.0,0.0,0.0,0.0,0.0,0.0,0.0,0.0,0.0,0.0,0.0,0.0,0.0,0.0,0.0,0.0,0.0,0.0,0.0,0.0,0.0,0.0,0.0,0.0,0.0,0.0,0.0,0.0,0.0,0.0,0.0,0.0,0.0,0.0,0.0,0.0,0.0,0.0,0.0,0.0,0.0,0.0,0.0,0.0,0.0,0.0,0.0,0.0,0.0,0.0,0.0,0.0,0.0,0.0,0.0,0.0,0.0,0.0,0.0,0.0,0.0,0.0,0.0,0.0,0.0,0.0,0.0,0.0,0.0,0.0,0.0,0.0,0.0,0.0,0.0,0.0,0.0,0.0,0.0,0.0,0.0,0.0,0.0,0.0,-5.4716,-5.6703,-5.8289,-5.8939,-5.8566,-5.3748,-4.9625,0.0,0.0,0.0,0.0,0.0,0.0,0.0,0.0,0.0,0.0,0.0,0.0,0.0,0.0,0.0,0.0,0.0,0.0,0.0,0.0,0.0,0.0,0.0,0.0,0.0,0.0,0.0,0.0,0.0,0.0,0.0,0.0,0.0,0.0,0.0,0.0,0.0,0.0,0.0,0.0,0.0,0.0,0.0,0.0,0.0,0.0,0.0,0.0,-3.6913,0.0,0.0,0.0,0.0,0.0,0.0,0.0,0.0,0.0,0.0,0.0,0.0,0.0,0.0,0.0,0.0,0.0,0.0,0.0,0.0,0.0,0.0,0.0,0.0,0.0,0.0,0.0,0.0,0.0,0.0,0.0,0.0,0.0,0.0,0.0,0.0,0.0,0.0,0.0,0.0,0.0,0.0,0.0,0.0,0.0,0.0,0.0,0.0,0.0,0.0,0.0,0.0,0.0,0.0,0.0,0.0,0.0,0.0,0.0,-5.3429,-5.6495,-5.8214,-5.8356,-5.6779,-5.2059,-4.7913,0.0,0.0,0.0,0.0,0.0,0.0,0.0,0.0,0.0,0.0,0.0,0.0,0.0,0.0,0.0,0.0,0.0,0.0,0.0,0.0,0.0,0.0,0.0,0.0,0.0,0.0,0.0,0.0,0.0,0.0,0.0,0.0,0.0,0.0,0.0,0.0,0.0,0.0,0.0,0.0,0.0,0.0,0.0,0.0,0.0,0.0,0.0,0.0,0.0,0.0,0.0,0.0,0.0,0.0,0.0,0.0,0.0,0.0,0.0,0.0,0.0,0.0,0.0,0.0,0.0,0.0,0.0,0.0,0.0,0.0,0.0,0.0,0.0,0.0,0.0,0.0,0.0,0.0,0.0,0.0,0.0,0.0,0.0,0.0,0.0,0.0,0.0,0.0,0.0,0.0,0.0,0.0,0.0,0.0,0.0,0.0,0.0,0.0,0.0,0.0,0.0,0.0,0.0,0.0,0.0,0.0,0.0,0.0,-5.0924,-5.2307,-5.4887,-5.5052,-5.2453,-4.8475,-4.4884,0.0,0.0,0.0,0.0,0.0,0.0,0.0,0.0,0.0,0.0,0.0,0.0,0.0,0.0,0.0,0.0,0.0,0.0,0.0,0.0,0.0,0.0,0.0,0.0,0.0,0.0,0.0,0.0,0.0,0.0,0.0,0.0,0.0,0.0,0.0,0.0,0.0,0.0,0.0,0.0,0.0,0.0,0.0,0.0,0.0,0.0,0.0,0.0,0.0,0.0,0.0,0.0,0.0,0.0,0.0,0.0,0.0,0.0,0.0,0.0,0.0,0.0,0.0,0.0,0.0,0.0,0.0,0.0,0.0,0.0,0.0,0.0,0.0,0.0,0.0,0.0,0.0,0.0,0.0,0.0,0.0,0.0,0.0,0.0,0.0,0.0,0.0,0.0,0.0,0.0,0.0,0.0,0.0,0.0,0.0,0.0,0.0,0.0,0.0,0.0,0.0,0.0,0.0,0.0,0.0,0.0,0.0,0.0,0.0,-4.9185,-5.1203,-5.0961,-4.8156,-4.5266,-4.2231,0.0,0.0,0.0,0.0,0.0,0.0,0.0,0.0,0.0,0.0,0.0,0.0,0.0,0.0,0.0,0.0,0.0,0.0,0.0,0.0,0.0,0.0,0.0,0.0,0.0,0.0,0.0,0.0,0.0,0.0,0.0,0.0,0.0,0.0,0.0,0.0,0.0,0.0,0.0,0.0,0.0,0.0,0.0,0.0,0.0,0.0,0.0,0.0,0.0,0.0,0.0,0.0,0.0,0.0,0.0,0.0,0.0,0.0,0.0,0.0,0.0,0.0,0.0,0.0,0.0,0.0,0.0,0.0,0.0,0.0,0.0,0.0,0.0,0.0,0.0,0.0,0.0,0.0,0.0,0.0,0.0,0.0,0.0,0.0,0.0,0.0,0.0,0.0,0.0,0.0,0.0,0.0,0.0,0.0,0.0,0.0,0.0,0.0,0.0,0.0,0.0,0.0,0.0,0.0,0.0,0.0,0.0,0.0,0.0,-4.9129,-4.7913,-4.6512,-4.4885,-4.3085,-4.0588,0.0,0.0,0.0,0.0,0.0,0.0,0.0,0.0,0.0,0.0,0.0,0.0,0.0,0.0,0.0,0.0,0.0,0.0,0.0,0.0,0.0,0.0,0.0,0.0,0.0,0.0,0.0,0.0,0.0,0.0,0.0,0.0,0.0,0.0,0.0,0.0,0.0,0.0,0.0,0.0,0.0,0.0,0.0,0.0,0.0,0.0,0.0,0.0,0.0,0.0,0.0,0.0,0.0,0.0,0.0,0.0,0.0,0.0,0.0,0.0,0.0,0.0,0.0,0.0,0.0,0.0,0.0,0.0,0.0,0.0,0.0,0.0,0.0,0.0,0.0,0.0,0.0,0.0,0.0,0.0,0.0,0.0,0.0,0.0,0.0,0.0,0.0,0.0,0.0,0.0,0.0,0.0,0.0,0.0,0.0,0.0,0.0,0.0,0.0,0.0,0.0,0.0,0.0,0.0,0.0,0.0,0.0,0.0,0.0,-4.3004,-4.258,-4.3048,-4.4597,-4.0948,-3.8405,-3.7375,0.0,0.0,0.0,0.0,0.0,0.0,0.0,0.0,0.0,0.0,0.0,0.0,0.0,0.0,0.0,0.0,0.0,0.0,0.0,0.0,0.0,0.0,0.0,0.0,0.0,0.0,0.0,0.0,0.0,0.0,0.0,0.0,0.0,0.0,0.0,0.0,0.0,0.0,0.0,0.0,0.0,0.0,0.0,0.0,0.0,0.0,0.0,0.0,0.0,0.0,0.0,0.0,0.0,0.0,0.0,0.0,0.0,0.0,0.0,0.0,0.0,0.0,0.0,0.0,0.0,0.0,0.0,0.0,0.0,0.0,0.0,0.0,0.0,0.0,0.0,0.0,0.0,0.0,0.0,0.0,0.0,0.0,0.0,0.0,0.0,0.0,0.0,0.0,0.0,0.0,0.0,0.0,0.0,0.0,0.0,0.0,0.0,0.0,0.0,0.0,0.0,0.0,0.0,0.0,0.0,0.0,0.0,0.0,-3.8747,-3.9372,-4.0616,-4.2228,-3.8525,-3.6256,0.0,0.0,0.0,0.0,0.0,0.0,0.0,0.0,0.0,0.0,0.0,0.0,0.0,0.0,0.0,0.0,0.0,0.0,0.0,0.0,0.0,0.0,0.0,0.0,0.0,0.0,0.0,0.0,0.0,0.0,0.0,0.0,0.0,0.0,0.0,0.0,0.0,0.0,0.0,0.0,0.0,0.0,0.0,0.0,0.0,0.0,0.0,0.0,0.0,0.0,0.0,0.0,0.0,0.0,0.0,0.0,0.0,0.0,0.0,0.0,0.0,0.0,0.0,0.0,0.0,0.0,0.0,0.0,0.0,0.0,0.0,0.0,0.0,0.0,0.0,0.0,0.0,0.0,0.0,0.0,0.0,0.0,0.0,0.0,0.0,0.0,0.0,0.0,0.0,0.0,0.0,0.0,0.0,0.0,0.0,0.0,0.0,0.0,0.0,0.0,0.0,0.0,0.0,0.0,0.0,0.0,0.0,0.0,-3.3987,-3.7201,-3.8913,-3.9081,-3.7457,-3.586,-3.4093,0.0,0.0,0.0,0.0,0.0,0.0,0.0,0.0,0.0,0.0,0.0,0.0,0.0,0.0,0.0,0.0,0.0,0.0,0.0,0.0,0.0,0.0,0.0,0.0,0.0,0.0,0.0,0.0,0.0,0.0,0.0,0.0,0.0,0.0,0.0,0.0,0.0,0.0,0.0,0.0,0.0,0.0,0.0,0.0,0.0,0.0,0.0,0.0,0.0,0.0,0.0,0.0,0.0,0.0,0.0,0.0,0.0,0.0,0.0,0.0,0.0,0.0,0.0,0.0,0.0,0.0,0.0,0.0,0.0,0.0,0.0,0.0,0.0,0.0,0.0,0.0,0.0,0.0,0.0,0.0,0.0,0.0,0.0,0.0,0.0,0.0,0.0,0.0,0.0,0.0,0.0,0.0,0.0,0.0,0.0,0.0,0.0,0.0,0.0,0.0,0.0,0.0,0.0,0.0,0.0,0.0,0.0,0.0,0.0,-3.4025,0.0,-3.7899,-3.7278,-3.5717,-3.4587,0.0,0.0,0.0,0.0,0.0,0.0,0.0,0.0,0.0,0.0,0.0,0.0,0.0,0.0,0.0,0.0,0.0,0.0,0.0,0.0,0.0,0.0,0.0,0.0,0.0,0.0,0.0,0.0,0.0,0.0,0.0,0.0,0.0,0.0,0.0,0.0,0.0,0.0,0.0,0.0,0.0,0.0,0.0,0.0,0.0,0.0,0.0,0.0,0.0,0.0,0.0,0.0,0.0,0.0,0.0,0.0,0.0,0.0,0.0,0.0,0.0,0.0,0.0,0.0,0.0,0.0,0.0,0.0,0.0,0.0,0.0,0.0,0.0,0.0,0.0,0.0,0.0,0.0,0.0,0.0,0.0,0.0,0.0,0.0,0.0,0.0,0.0,0.0,0.0,0.0,0.0,0.0,0.0,0.0,0.0,0.0,0.0,0.0,0.0,0.0,0.0,0.0,0.0,0.0,0.0,0.0,0.0,0.0,0.0,-3.3322,-3.4828,-3.5823,-3.6409,-3.4245,-3.3372,0.0,0.0,0.0,0.0,0.0,0.0,0.0,0.0,0.0,0.0,0.0,0.0,0.0,0.0,0.0,0.0,0.0,0.0,0.0,0.0,0.0,0.0,0.0,0.0,0.0,0.0,0.0,0.0,0.0,0.0,0.0,0.0,0.0,0.0,0.0,0.0,0.0,0.0,0.0,0.0,0.0,0.0,0.0,0.0,0.0,0.0,0.0,0.0,0.0,0.0,0.0,0.0,0.0,0.0,0.0,0.0,0.0,0.0,0.0,0.0,0.0,0.0,0.0,0.0,0.0,0.0,0.0,0.0,0.0,0.0,0.0,0.0,0.0,0.0,0.0,0.0,0.0,0.0,0.0,0.0,0.0,0.0,0.0,0.0,0.0,0.0,0.0,0.0,0.0,0.0,0.0,0.0,0.0,0.0,0.0,0.0,0.0,0.0,0.0,0.0,0.0,0.0,0.0,0.0,0.0,0.0,0.0,0.0,0.0,-3.4511,-3.3182,-3.3182,-3.4739,-3.1739,-3.079,0.0,0.0,0.0,0.0,0.0,0.0,0.0,0.0,0.0,0.0,0.0,0.0,0.0,0.0,0.0,0.0,0.0,0.0,0.0,0.0,0.0,0.0,0.0,0.0,0.0,0.0,0.0,0.0,0.0,0.0,0.0,0.0,0.0,0.0,0.0,0.0,0.0,0.0,0.0,0.0,0.0,0.0,0.0,0.0,0.0,0.0,0.0,0.0,0.0,0.0,0.0,0.0,0.0,0.0,0.0,0.0,0.0,0.0,0.0,0.0,0.0,0.0,0.0,0.0,0.0,0.0,0.0,0.0,0.0,0.0,0.0,0.0,0.0,0.0,0.0,0.0,0.0,0.0,0.0,0.0,0.0,0.0,0.0,0.0,0.0,0.0,0.0,0.0,0.0,0.0,0.0,0.0,0.0,0.0,0.0,0.0,0.0,0.0,0.0,0.0,0.0,0.0,0.0,0.0,0.0,0.0,0.0,0.0,0.0,0.0,-3.0904,-3.1436,-3.2992,-3.2233,-3.1398,-3.0676,0.0,0.0,0.0,0.0,0.0,0.0,0.0,0.0,0.0,0.0,0.0,0.0,0.0,0.0,0.0,0.0,0.0,0.0,0.0,0.0,0.0,0.0,0.0,0.0,0.0,0.0,0.0,0.0,0.0,0.0,0.0,0.0,0.0,0.0,0.0,0.0,0.0,0.0,0.0,0.0,0.0,0.0,0.0,0.0,0.0,0.0,0.0,0.0,0.0,0.0,0.0,0.0,0.0,0.0,0.0,0.0,0.0,0.0,0.0,0.0,0.0,0.0,0.0,0.0,0.0,0.0,0.0,0.0,0.0,0.0,0.0,0.0,0.0,0.0,0.0,0.0,0.0,0.0,0.0,0.0,0.0,0.0,0.0,0.0,0.0,0.0,0.0,0.0,0.0,0.0,0.0,0.0,0.0,0.0,0.0,0.0,0.0,0.0,0.0,0.0,0.0,0.0,0.0,0.0,0.0,0.0,0.0,0.0,0.0,0.0,-3.0714,-3.2423,-3.2461,-3.1967,0.0,0.0,0.0,0.0,0.0,0.0,0.0,0.0,0.0,0.0,0.0,0.0,0.0,0.0,0.0,0.0,0.0,0.0,0.0,0.0,0.0,0.0,0.0,0.0,0.0,0.0,0.0,0.0,0.0,0.0,0.0,0.0,0.0,0.0,0.0,0.0,0.0,0.0,0.0,0.0,0.0,0.0,0.0,0.0,0.0,0.0,0.0,0.0,0.0,0.0,0.0,0.0,0.0,0.0,0.0,0.0,0.0,0.0,0.0,0.0,0.0,0.0,0.0,0.0,0.0,0.0,0.0,0.0,0.0,0.0,0.0,0.0,0.0,0.0,0.0,0.0,0.0,0.0,0.0,0.0,0.0,0.0,0.0,0.0,0.0,0.0,0.0,0.0,0.0,0.0,0.0,0.0,0.0,0.0,0.0,0.0,0.0,0.0,0.0,0.0,0.0,0.0,0.0,0.0,0.0,0.0,0.0,0.0,0.0,0.0,0.0,-3.0828,-3.2157,-3.2537,0.0,-3.2157,0.0,0.0,0.0,0.0,0.0,0.0,0.0,0.0,0.0,0.0,0.0,0.0,0.0,0.0,0.0,0.0,0.0,0.0,0.0,0.0,0.0,0.0,0.0,0.0,0.0,0.0,0.0,0.0,0.0,0.0,0.0,0.0,0.0,0.0,0.0,0.0,0.0,0.0,0.0,0.0,0.0,0.0,0.0,0.0,0.0,0.0,0.0,0.0,0.0,0.0,0.0,0.0,0.0,0.0,0.0,0.0,0.0,0.0,0.0,0.0,0.0,0.0,0.0,0.0,0.0,0.0,0.0,0.0,0.0,0.0,0.0,0.0,0.0,0.0,0.0,0.0,0.0,0.0,0.0,0.0,0.0,0.0,0.0,0.0,0.0,0.0,0.0,0.0,0.0,0.0,0.0,0.0,0.0,0.0,0.0,0.0,0.0,0.0,0.0,0.0,0.0,0.0,0.0,0.0,0.0,0.0,0.0,0.0,0.0,0.0,0.0,0.0,-3.303,-3.3182,-3.0676,0.0,0.0,0.0,0.0,0.0,0.0,0.0,0.0,0.0,0.0,0.0,0.0,0.0,0.0,0.0,0.0,0.0,0.0,0.0,0.0,0.0,0.0,0.0,0.0,0.0,0.0,0.0,0.0,0.0,0.0,0.0,0.0,0.0,0.0,0.0,0.0,0.0,0.0,0.0,0.0,0.0,0.0,0.0,0.0,0.0,0.0,0.0,0.0,0.0,0.0,0.0,0.0,0.0,0.0,0.0,0.0,0.0,0.0,0.0,0.0,0.0,0.0,0.0,0.0,0.0,0.0,0.0,0.0,0.0,0.0,0.0,0.0,0.0,0.0,0.0,0.0,0.0,0.0,0.0,0.0,0.0,0.0,0.0,0.0,0.0,0.0,0.0,0.0,0.0,0.0,0.0,0.0,0.0,0.0,0.0,0.0,0.0,0.0,0.0,0.0,0.0,0.0,0.0,0.0,0.0,0.0,0.0,0.0,0.0,0.0,-3.1625,-3.0069,-3.2499,-3.2612,-3.0069,0.0,0.0,0.0,0.0,0.0,0.0,0.0,0.0,0.0,0.0,0.0,0.0,0.0,0.0,0.0,0.0,0.0,0.0,0.0,0.0,0.0,0.0,0.0,0.0,0.0,0.0,0.0,0.0,0.0,0.0,0.0,0.0,0.0,0.0,0.0,0.0,0.0,0.0,0.0,0.0,0.0,0.0,0.0,0.0,0.0,0.0,0.0,0.0,0.0,0.0,0.0,0.0,0.0,0.0,0.0,0.0,0.0,0.0,0.0,0.0,0.0,0.0,0.0,0.0,0.0,0.0,0.0,0.0,0.0,0.0,0.0,0.0,0.0,0.0,0.0,0.0,0.0,0.0,0.0,0.0,0.0,0.0,0.0,0.0,0.0,0.0,0.0,0.0,0.0,0.0,0.0,0.0,0.0,0.0,0.0,0.0,0.0,0.0,0.0,0.0,0.0,0.0,0.0,0.0,0.0,0.0,0.0,0.0,0.0,0.0,0.0,0.0,0.0,0.0,-3.0335,0.0,0.0,0.0,0.0,0.0,0.0,0.0,0.0,0.0,0.0,0.0,0.0,0.0,0.0,0.0,0.0,0.0,0.0,0.0,0.0,0.0,0.0,0.0,0.0,0.0,0.0,0.0,0.0,0.0,0.0,0.0,0.0,0.0,0.0,0.0,0.0,0.0,0.0,0.0,0.0,0.0,0.0,0.0,0.0,0.0,0.0,0.0,0.0,0.0,0.0,0.0,0.0,0.0,0.0,0.0,0.0,0.0,0.0,0.0,0.0,0.0,0.0,0.0,0.0,0.0,0.0,0.0,0.0,0.0,0.0,0.0,0.0,0.0,0.0,0.0,0.0,0.0,0.0,0.0,0.0,0.0,0.0,0.0,0.0,0.0,0.0,0.0,0.0,0.0,0.0,0.0,0.0,0.0,0.0,0.0,0.0,0.0,0.0,0.0,0.0,0.0,0.0,0.0,0.0,0.0,0.0,0.0,0.0,0.0,0.0,0.0,0.0,0.0,0.0,0.0,0.0,0.0,0.0,0.0,0.0,0.0,0.0,0.0,0.0,0.0,0.0,0.0,0.0,0.0,0.0,0.0,0.0,0.0,0.0,0.0,0.0,0.0,0.0,0.0,0.0,0.0,0.0,0.0,0.0,0.0,0.0,0.0,0.0,0.0,0.0,0.0,0.0,0.0,0.0,0.0,0.0,0.0,0.0,0.0,0.0,0.0,0.0,0.0,0.0,0.0,0.0,0.0,0.0,0.0,0.0,0.0,0.0,0.0,0.0,0.0,0.0,0.0,0.0,0.0,0.0,0.0,0.0,0.0,0.0,0.0,0.0,0.0,0.0,0.0,0.0,0.0,0.0,0.0,0.0,0.0,0.0,0.0,0.0,0.0,0.0,0.0,0.0,0.0,0.0,0.0,0.0,0.0,0.0,0.0,0.0,0.0,0.0,0.0,0.0,0.0,0.0,0.0,0.0,0.0,0.0,0.0,0.0,0.0,0.0,0.0,0.0,0.0,0.0,0.0,0.0,0.0,0.0,0.0,0.0,0.0,0.0,0.0,0.0,0.0,0.0,0.0,0.0,0.0,0.0,0.0,0.0,0.0,0.0,0.0,0.0,0.0,0.0,0.0,0.0,0.0,0.0,0.0,0.0,0.0,0.0,0.0,0.0,0.0,0.0,0.0,0.0,0.0,0.0,0.0,0.0,0.0,0.0,0.0,0.0,0.0,0.0,0.0,0.0,0.0,0.0,0.0,0.0,0.0,0.0,0.0,0.0,0.0,0.0,0.0,0.0,0.0,0.0,0.0,0.0,0.0,0.0,0.0,0.0,0.0,0.0,0.0,0.0,0.0,0.0,0.0,0.0,0.0,0.0,0.0,0.0,0.0,0.0,0.0,0.0,0.0,0.0,0.0,0.0,0.0,0.0,0.0,0.0,0.0,0.0,0.0,0.0,0.0,0.0,0.0,0.0,0.0,0.0,0.0,0.0,0.0,0.0,0.0,0.0,0.0,0.0,0.0,0.0,0.0,0.0,0.0,0.0,0.0,0.0,0.0,0.0,0.0,0.0,0.0,0.0,0.0,0.0,0.0,0.0,0.0,0.0,0.0,0.0,0.0,0.0,0.0,0.0,0.0,0.0,0.0,0.0,0.0,0.0,0.0,0.0,0.0,0.0,0.0,0.0,0.0,0.0,0.0,0.0,0.0,0.0,0.0,0.0,0.0,0.0,0.0,0.0,0.0,0.0,0.0,0.0,0.0,0.0,0.0,0.0,0.0,0.0,0.0,0.0,0.0,0.0,0.0,0.0,0.0,0.0,0.0,0.0,0.0,0.0,0.0,0.0,0.0,0.0,0.0,0.0,0.0,0.0,0.0,0.0,0.0,0.0,0.0,0.0,0.0,0.0,0.0,0.0,0.0,0.0,0.0,0.0,0.0,0.0,0.0,0.0,0.0,0.0,0.0,0.0,0.0,0.0,0.0,0.0,0.0,0.0,0.0,0.0,0.0,0.0,0.0,0.0,0.0,0.0,0.0,0.0,0.0,0.0,0.0,0.0,0.0,0.0,0.0,0.0,0.0,0.0,0.0,0.0,0.0,0.0,0.0,0.0,0.0,0.0,0.0,0.0,0.0,0.0,0.0,0.0,0.0,0.0,0.0,0.0,0.0,0.0,0.0,0.0,0.0,0.0,0.0,0.0,0.0,0.0,0.0,0.0,0.0,0.0,0.0,0.0,0.0,0.0,0.0,0.0,0.0,0.0,0.0,0.0,0.0,0.0,0.0,0.0,0.0,0.0,0.0,0.0,0.0,0.0,0.0,0.0,0.0,0.0,0.0,0.0,0.0,0.0,0.0,0.0,0.0,0.0,0.0,0.0,0.0,0.0,0.0,0.0,0.0,0.0,0.0,0.0,0.0,0.0,0.0,0.0,0.0,0.0,0.0,0.0,0.0,0.0,0.0,0.0,0.0,0.0,0.0,0.0,0.0,0.0,0.0,0.0,0.0,0.0,0.0,0.0,0.0,0.0,0.0,0.0,0.0,0.0,0.0,0.0,0.0,0.0,0.0,0.0,0.0,0.0,0.0,0.0,0.0,0.0,0.0,0.0,0.0,0.0,0.0,0.0,0.0,0.0,0.0,0.0,0.0,0.0,0.0,0.0,0.0,0.0,0.0,0.0,0.0,0.0,0.0,0.0,0.0,0.0,0.0,0.0,0.0,0.0,0.0,0.0,0.0,0.0,0.0,0.0,0.0,0.0,0.0,0.0,0.0,0.0,0.0,0.0,0.0,0.0,0.0,0.0,0.0,0.0,0.0,0.0,0.0,0.0,0.0,0.0,0.0,0.0,0.0,0.0,0.0,0.0,0.0,0.0,0.0,0.0,0.0,0.0,0.0,0.0,0.0,0.0,0.0,0.0,0.0,0.0,0.0,0.0,0.0,0.0,0.0,0.0,0.0,0.0,0.0,0.0,0.0,0.0,0.0,0.0,0.0,0.0,0.0,0.0,0.0,0.0,0.0,0.0,0.0,0.0,0.0,0.0,0.0,0.0,0.0,0.0,0.0,0.0,0.0,0.0,0.0,0.0,0.0,0.0,0.0,0.0,0.0,0.0,0.0,0.0,0.0,0.0,0.0,0.0,0.0,0.0,0.0,0.0,0.0,0.0,0.0,0.0,0.0,0.0,0.0,0.0,0.0,0.0,0.0,0.0,0.0,0.0,0.0,0.0,0.0,0.0,0.0,0.0,0.0,0.0,0.0,0.0,0.0,0.0,0.0,0.0,0.0,0.0,0.0,0.0,0.0,0.0,0.0,0.0,0.0,0.0,0.0,0.0,0.0,0.0,0.0,0.0,0.0,0.0,0.0,0.0,0.0,0.0,0.0,0.0,0.0,0.0,0.0,0.0,0.0,0.0,0.0,0.0,0.0,0.0,0.0,0.0,0.0,0.0,0.0,0.0,0.0,0.0,0.0,0.0,0.0,0.0,0.0,0.0,0.0,0.0,0.0,0.0,0.0,0.0,0.0,0.0,0.0,0.0,0.0,0.0,0.0,0.0,0.0,0.0,0.0,0.0,0.0,0.0,0.0,0.0,0.0,0.0,0.0,0.0,0.0,0.0,0.0,0.0,0.0,0.0,0.0,0.0,0.0,0.0,0.0,0.0,0.0,0.0,0.0,0.0,0.0,0.0,0.0,0.0,0.0,0.0,0.0,0.0,0.0,0.0,0.0,0.0,0.0,0.0,0.0,0.0,0.0,0.0,0.0,0.0,0.0,0.0,0.0,0.0,0.0,0.0,0.0,0.0,0.0,0.0,0.0,0.0,0.0,0.0,0.0,0.0,0.0,0.0,0.0,0.0,0.0,0.0,0.0,0.0,0.0,0.0,0.0,0.0,0.0,0.0,0.0,0.0,0.0,0.0,0.0,0.0,0.0,0.0,0.0,0.0,0.0,0.0,0.0,0.0,0.0,0.0,0.0,0.0,0.0,0.0,0.0,0.0,0.0,0.0,0.0,0.0,0.0,0.0,0.0,0.0,0.0,0.0,0.0,0.0,0.0,0.0,0.0,0.0,0.0,0.0,0.0,0.0,0.0,0.0,0.0,0.0,0.0,0.0,0.0,0.0,0.0,0.0,0.0,0.0,0.0,0.0,0.0,0.0,0.0,0.0,0.0,0.0,0.0,0.0,0.0,0.0,0.0,0.0,0.0,0.0,0.0,0.0,0.0,0.0,0.0,0.0,0.0,0.0,0.0,0.0,0.0,0.0,0.0,0.0,0.0,0.0,0.0,0.0,0.0,0.0,0.0,0.0,0.0,0.0,0.0,0.0,0.0,0.0,0.0,0.0,0.0,0.0,0.0,0.0,0.0,0.0,0.0,0.0,0.0,0.0]}]]]